[[{"header":{"parameterUnit":"m.s-1","parameterCategory":1,"la1":30.6,"la2":29.2853,"lo1":-89.7004,"lo2":-87.6739,"dy":0.0162,"dx":0.0183,"nx":112,"ny":82,"refTime":"2023-07-05T06:00:00:Z","depth":0,"parameterNumber":2,"parameterNumberName":"U-component_of_WINDS"},"data":[0.0,0.0,0.0,0.0,0.0,0.0,0.0,0.0,0.0,0.0,0.0,0.0,0.0,0.0,0.0,0.0,0.0,0.0,0.0,0.0,0.0,0.0,0.0,0.0,0.0,0.0,0.0,0.0,0.0,0.0,0.0,0.0,0.0,0.0,0.0,0.0,0.0,0.0,0.0,0.0,0.0,0.0,0.0,0.0,0.0,0.0,0.0,0.0,0.0,0.0,0.0,0.0,0.0,0.0,0.0,0.0,0.0,0.0,0.0,0.0,0.0,0.0,0.0,0.0,0.0,0.0,0.0,0.0,0.0,0.0,0.0,0.0,0.0,0.0,0.0,0.0,0.0,0.0,0.0,0.0,0.0,0.0,0.0,0.0,0.0,0.0,0.0,0.0,0.0,0.0,-2.8402,-2.8993,-3.0214,-3.0986,-3.0986,-3.0861,-3.0097,-2.8438,0.0,0.0,0.0,0.0,0.0,0.0,0.0,0.0,0.0,0.0,0.0,0.0,0.0,0.0,0.0,0.0,0.0,0.0,0.0,0.0,0.0,0.0,0.0,0.0,0.0,0.0,0.0,0.0,0.0,0.0,0.0,0.0,0.0,0.0,0.0,0.0,0.0,0.0,0.0,0.0,0.0,0.0,0.0,0.0,0.0,0.0,0.0,0.0,0.0,0.0,0.0,0.0,0.0,0.0,0.0,0.0,0.0,0.0,0.0,0.0,0.0,0.0,0.0,0.0,0.0,0.0,0.0,0.0,0.0,0.0,0.0,0.0,0.0,0.0,0.0,0.0,0.0,0.0,0.0,0.0,0.0,0.0,0.0,0.0,0.0,0.0,0.0,0.0,0.0,0.0,0.0,0.0,0.0,0.0,0.0,0.0,0.0,0.0,0.0,0.0,0.0,0.0,0.0,0.0,-2.9121,-3.0509,-3.0882,-3.0986,-3.0986,-3.0305,-2.9366,-2.807,0.0,0.0,0.0,0.0,0.0,0.0,0.0,0.0,0.0,0.0,0.0,0.0,0.0,0.0,0.0,0.0,0.0,0.0,0.0,0.0,0.0,0.0,0.0,0.0,0.0,0.0,0.0,0.0,0.0,0.0,0.0,0.0,0.0,0.0,0.0,0.0,0.0,0.0,0.0,0.0,0.0,0.0,0.0,0.0,0.0,0.0,0.0,0.0,0.0,0.0,0.0,0.0,0.0,0.0,0.0,0.0,0.0,0.0,0.0,0.0,0.0,0.0,0.0,0.0,0.0,0.0,0.0,0.0,0.0,0.0,0.0,0.0,0.0,0.0,0.0,0.0,0.0,0.0,0.0,0.0,0.0,0.0,0.0,0.0,0.0,0.0,0.0,0.0,0.0,0.0,0.0,0.0,0.0,0.0,0.0,0.0,0.0,0.0,0.0,0.0,0.0,0.0,0.0,-2.7176,-2.9113,-3.0177,-3.071,-3.0823,-3.0343,-2.9935,-2.8899,-2.7103,-2.662,0.0,0.0,0.0,0.0,0.0,0.0,0.0,0.0,0.0,0.0,0.0,0.0,0.0,0.0,0.0,0.0,0.0,0.0,0.0,0.0,0.0,0.0,0.0,0.0,0.0,0.0,0.0,0.0,0.0,0.0,0.0,0.0,0.0,0.0,0.0,0.0,0.0,0.0,0.0,0.0,0.0,0.0,0.0,0.0,0.0,0.0,0.0,0.0,0.0,0.0,0.0,0.0,0.0,0.0,0.0,0.0,0.0,0.0,0.0,0.0,0.0,0.0,0.0,0.0,0.0,0.0,0.0,0.0,0.0,0.0,0.0,0.0,0.0,0.0,0.0,0.0,0.0,0.0,0.0,0.0,0.0,0.0,0.0,0.0,0.0,0.0,0.0,0.0,0.0,0.0,0.0,0.0,0.0,0.0,0.0,0.0,0.0,0.0,0.0,0.0,0.0,0.0,-2.7355,-2.86,-2.9333,-2.9986,-3.0101,-2.9459,-2.9225,-2.8238,-2.6211,-2.539,0.0,0.0,0.0,0.0,0.0,0.0,0.0,0.0,0.0,0.0,0.0,0.0,0.0,0.0,0.0,0.0,0.0,0.0,0.0,0.0,0.0,0.0,0.0,0.0,0.0,0.0,0.0,0.0,0.0,0.0,0.0,0.0,0.0,0.0,0.0,0.0,0.0,0.0,0.0,0.0,0.0,0.0,0.0,0.0,0.0,0.0,0.0,0.0,0.0,0.0,0.0,0.0,0.0,0.0,0.0,0.0,0.0,0.0,0.0,0.0,0.0,0.0,0.0,0.0,0.0,0.0,0.0,0.0,0.0,0.0,0.0,0.0,0.0,0.0,0.0,0.0,0.0,0.0,0.0,0.0,0.0,0.0,0.0,0.0,0.0,0.0,0.0,0.0,0.0,0.0,0.0,0.0,0.0,0.0,0.0,0.0,0.0,0.0,0.0,0.0,0.0,0.0,-2.7418,-2.7619,-2.8414,-2.8545,-2.8545,-2.8505,-2.781,-2.6886,-2.5785,-2.4535,0.0,0.0,0.0,0.0,0.0,0.0,0.0,0.0,0.0,0.0,0.0,0.0,0.0,0.0,0.0,0.0,0.0,0.0,0.0,0.0,0.0,0.0,0.0,0.0,0.0,0.0,0.0,0.0,0.0,0.0,0.0,0.0,0.0,0.0,0.0,0.0,0.0,0.0,0.0,0.0,0.0,0.0,0.0,0.0,0.0,0.0,0.0,0.0,0.0,0.0,0.0,0.0,0.0,0.0,0.0,0.0,0.0,0.0,0.0,0.0,0.0,0.0,0.0,0.0,0.0,0.0,0.0,0.0,0.0,0.0,0.0,0.0,0.0,0.0,0.0,0.0,0.0,0.0,0.0,0.0,0.0,0.0,0.0,0.0,0.0,0.0,0.0,0.0,0.0,0.0,0.0,0.0,0.0,0.0,0.0,0.0,0.0,0.0,0.0,0.0,0.0,0.0,-2.653,-2.7338,0.0,-2.8119,-2.8187,-2.7689,-2.7377,-2.6411,-2.4564,0.0,0.0,0.0,0.0,0.0,0.0,0.0,0.0,0.0,0.0,0.0,0.0,0.0,0.0,0.0,0.0,0.0,0.0,0.0,0.0,0.0,0.0,0.0,0.0,0.0,0.0,0.0,0.0,0.0,0.0,0.0,0.0,0.0,0.0,0.0,0.0,0.0,0.0,0.0,0.0,0.0,0.0,0.0,0.0,0.0,0.0,0.0,0.0,0.0,0.0,0.0,0.0,0.0,0.0,0.0,0.0,0.0,0.0,0.0,0.0,0.0,0.0,0.0,0.0,0.0,0.0,0.0,0.0,0.0,0.0,0.0,0.0,0.0,0.0,0.0,0.0,0.0,0.0,0.0,0.0,0.0,0.0,0.0,0.0,0.0,0.0,0.0,0.0,0.0,0.0,0.0,0.0,0.0,0.0,0.0,0.0,0.0,0.0,0.0,0.0,0.0,0.0,-2.447,-2.5837,-2.6846,0.0,-2.7284,-2.7366,-2.6816,-2.6787,-2.5901,-2.382,0.0,0.0,0.0,0.0,0.0,0.0,0.0,0.0,0.0,0.0,0.0,0.0,0.0,0.0,0.0,0.0,0.0,0.0,0.0,0.0,0.0,0.0,0.0,0.0,0.0,0.0,0.0,0.0,0.0,0.0,0.0,0.0,0.0,0.0,0.0,0.0,0.0,0.0,0.0,0.0,0.0,0.0,0.0,0.0,0.0,0.0,0.0,0.0,0.0,0.0,0.0,0.0,0.0,0.0,0.0,0.0,0.0,0.0,0.0,0.0,0.0,0.0,0.0,0.0,0.0,0.0,0.0,0.0,0.0,0.0,0.0,0.0,0.0,0.0,0.0,0.0,0.0,0.0,0.0,0.0,0.0,0.0,0.0,0.0,0.0,0.0,0.0,0.0,0.0,0.0,0.0,0.0,0.0,0.0,0.0,0.0,0.0,0.0,0.0,0.0,0.0,0.0,-2.4762,-2.5472,-2.5895,-2.5895,-2.5895,-2.5895,-2.5895,-2.5895,-2.5273,0.0,0.0,0.0,0.0,0.0,0.0,0.0,0.0,0.0,0.0,0.0,0.0,0.0,0.0,0.0,0.0,0.0,0.0,0.0,0.0,0.0,0.0,0.0,0.0,0.0,0.0,0.0,0.0,0.0,0.0,0.0,0.0,0.0,0.0,0.0,0.0,0.0,0.0,0.0,0.0,0.0,0.0,0.0,0.0,0.0,0.0,0.0,0.0,0.0,0.0,0.0,0.0,0.0,0.0,0.0,0.0,0.0,0.0,0.0,0.0,0.0,0.0,0.0,0.0,0.0,0.0,0.0,0.0,0.0,0.0,0.0,0.0,0.0,0.0,0.0,0.0,0.0,0.0,0.0,0.0,0.0,0.0,0.0,0.0,0.0,0.0,0.0,0.0,0.0,0.0,0.0,0.0,0.0,0.0,0.0,0.0,0.0,0.0,0.0,0.0,0.0,0.0,0.0,-2.4028,-2.511,-2.5895,-2.5895,-2.5895,-2.5895,-2.5895,-2.5895,-2.5131,-2.3329,0.0,0.0,0.0,0.0,0.0,0.0,0.0,0.0,0.0,0.0,0.0,0.0,0.0,0.0,0.0,0.0,0.0,0.0,0.0,0.0,0.0,0.0,0.0,0.0,0.0,0.0,0.0,0.0,0.0,0.0,0.0,0.0,0.0,0.0,0.0,0.0,0.0,0.0,0.0,0.0,0.0,0.0,0.0,0.0,0.0,0.0,0.0,0.0,0.0,0.0,0.0,0.0,0.0,0.0,0.0,0.0,0.0,0.0,0.0,0.0,0.0,0.0,0.0,0.0,0.0,0.0,0.0,0.0,0.0,0.0,0.0,0.0,0.0,0.0,0.0,0.0,0.0,0.0,0.0,0.0,0.0,0.0,0.0,0.0,0.0,0.0,0.0,0.0,0.0,0.0,0.0,0.0,0.0,0.0,0.0,0.0,0.0,0.0,0.0,0.0,0.0,0.0,-2.3438,-2.488,-2.5895,-2.5895,-2.5895,-2.5895,-2.5895,-2.5895,-2.524,-2.3689,0.0,0.0,0.0,0.0,0.0,0.0,0.0,0.0,0.0,0.0,0.0,0.0,0.0,0.0,0.0,0.0,0.0,0.0,0.0,0.0,0.0,0.0,0.0,0.0,0.0,0.0,0.0,0.0,0.0,0.0,0.0,0.0,0.0,0.0,0.0,0.0,0.0,0.0,0.0,0.0,0.0,0.0,0.0,0.0,0.0,0.0,0.0,0.0,0.0,0.0,0.0,0.0,0.0,0.0,0.0,0.0,0.0,0.0,0.0,0.0,0.0,0.0,0.0,0.0,0.0,0.0,0.0,0.0,0.0,0.0,0.0,0.0,0.0,0.0,0.0,0.0,0.0,0.0,0.0,0.0,0.0,0.0,0.0,0.0,0.0,0.0,0.0,0.0,0.0,0.0,0.0,0.0,0.0,0.0,0.0,0.0,0.0,0.0,0.0,0.0,0.0,0.0,-2.3001,-2.4705,-2.5895,-2.5895,-2.5895,-2.5895,-2.5895,-2.5853,-2.5409,-2.4462,0.0,0.0,0.0,0.0,0.0,0.0,0.0,0.0,0.0,0.0,0.0,0.0,0.0,0.0,0.0,0.0,0.0,0.0,0.0,0.0,0.0,0.0,0.0,0.0,0.0,0.0,0.0,0.0,0.0,0.0,0.0,0.0,0.0,0.0,0.0,0.0,0.0,0.0,0.0,0.0,0.0,0.0,0.0,0.0,0.0,0.0,0.0,0.0,0.0,0.0,0.0,0.0,0.0,0.0,0.0,0.0,0.0,0.0,0.0,0.0,-2.7306,0.0,0.0,0.0,0.0,0.0,0.0,0.0,0.0,0.0,0.0,0.0,0.0,0.0,0.0,0.0,0.0,0.0,0.0,0.0,0.0,0.0,0.0,0.0,0.0,0.0,0.0,0.0,0.0,0.0,0.0,0.0,0.0,0.0,0.0,0.0,0.0,0.0,0.0,0.0,0.0,0.0,-2.3001,-2.4705,-2.5895,-2.5895,-2.5895,-2.5895,-2.5895,-2.5422,-2.4681,-2.371,-2.2926,0.0,0.0,0.0,0.0,0.0,0.0,0.0,0.0,0.0,0.0,0.0,0.0,0.0,0.0,0.0,0.0,0.0,0.0,0.0,0.0,0.0,0.0,0.0,0.0,0.0,0.0,0.0,0.0,0.0,0.0,0.0,0.0,0.0,0.0,0.0,0.0,0.0,0.0,0.0,0.0,0.0,0.0,0.0,0.0,0.0,0.0,0.0,0.0,0.0,0.0,0.0,0.0,0.0,0.0,0.0,0.0,0.0,0.0,0.0,0.0,-2.7404,0.0,0.0,0.0,0.0,0.0,0.0,0.0,0.0,0.0,0.0,0.0,0.0,0.0,0.0,0.0,0.0,0.0,0.0,0.0,0.0,0.0,0.0,0.0,0.0,0.0,0.0,0.0,0.0,0.0,0.0,0.0,0.0,0.0,0.0,0.0,0.0,0.0,0.0,0.0,0.0,-2.3001,-2.4705,-2.5895,-2.5895,-2.5895,-2.577,-2.5464,-2.5115,-2.4524,-2.3659,-2.2848,0.0,0.0,0.0,0.0,0.0,0.0,0.0,0.0,0.0,0.0,0.0,0.0,0.0,0.0,0.0,0.0,0.0,0.0,0.0,0.0,0.0,0.0,0.0,0.0,0.0,0.0,0.0,0.0,0.0,0.0,0.0,0.0,0.0,0.0,0.0,0.0,0.0,0.0,0.0,0.0,0.0,0.0,0.0,0.0,0.0,0.0,0.0,0.0,0.0,0.0,0.0,0.0,0.0,-2.9137,-2.9261,-2.913,-2.9431,-2.9751,-2.9971,-2.9372,-2.905,-2.886,-2.7131,0.0,0.0,0.0,0.0,0.0,0.0,0.0,0.0,0.0,0.0,0.0,0.0,0.0,0.0,0.0,0.0,0.0,0.0,0.0,0.0,0.0,0.0,0.0,0.0,-2.4942,-2.5106,-2.4734,0.0,0.0,0.0,0.0,0.0,0.0,0.0,0.0,0.0,0.0,0.0,-2.308,-2.4632,-2.5686,-2.5549,-2.5549,-2.5327,-2.4775,-2.4605,-2.4251,-2.3671,-2.279,-2.22,0.0,0.0,0.0,0.0,0.0,0.0,0.0,0.0,0.0,0.0,0.0,0.0,0.0,0.0,0.0,0.0,0.0,0.0,0.0,0.0,0.0,0.0,0.0,0.0,0.0,0.0,0.0,0.0,0.0,0.0,0.0,0.0,-2.634,-2.7385,0.0,0.0,0.0,0.0,0.0,0.0,0.0,0.0,0.0,0.0,0.0,0.0,0.0,-2.8407,-2.8654,-2.931,-2.9628,-2.9628,-3.0392,-3.0714,-3.0677,-3.0764,-3.0803,-3.0831,-3.0753,0.0,-2.8973,-2.8718,0.0,0.0,0.0,0.0,0.0,0.0,0.0,0.0,0.0,0.0,0.0,0.0,0.0,0.0,0.0,0.0,0.0,0.0,0.0,0.0,0.0,0.0,-2.5524,-2.5204,-2.5171,-2.5193,0.0,-2.4421,-2.3646,-2.3034,-2.2914,0.0,0.0,0.0,0.0,0.0,0.0,0.0,-2.3311,-2.4334,-2.4807,-2.4145,-2.4059,-2.4059,-2.393,-2.343,-2.3057,-2.2925,-2.2205,-2.1385,-2.0515,-2.0307,0.0,0.0,0.0,0.0,0.0,0.0,0.0,0.0,0.0,0.0,0.0,0.0,0.0,0.0,0.0,0.0,0.0,0.0,0.0,0.0,0.0,0.0,0.0,0.0,0.0,0.0,0.0,0.0,0.0,-2.6274,-2.7307,-2.6968,-2.7239,-2.7319,0.0,0.0,0.0,0.0,0.0,0.0,0.0,0.0,0.0,-2.9284,-2.9211,-2.9452,-3.0008,-3.0329,-3.0483,-3.0496,-3.0818,-3.0986,-3.0986,-3.0986,-3.0986,-3.0986,-3.0986,-3.0374,-2.9325,-2.8629,-2.765,-2.6474,0.0,0.0,0.0,0.0,-2.3979,-2.3954,-2.4415,-2.4501,0.0,-2.3649,0.0,0.0,0.0,0.0,0.0,0.0,0.0,0.0,0.0,0.0,-2.476,-2.5098,-2.5382,-2.5579,-2.5579,-2.5251,-2.4727,0.0,-2.3383,-2.263,-2.1507,0.0,0.0,0.0,0.0,-2.2697,-2.2808,-2.3688,-2.4145,-2.3833,-2.38,-2.3627,-2.3256,-2.2969,-2.2627,-2.222,-2.1865,-2.1487,-2.1053,-2.073,-2.015,0.0,0.0,0.0,0.0,0.0,0.0,0.0,0.0,0.0,0.0,0.0,0.0,0.0,0.0,0.0,0.0,0.0,0.0,0.0,0.0,0.0,0.0,0.0,0.0,0.0,0.0,0.0,0.0,-2.6627,-2.7523,-2.6809,-2.751,-2.7789,0.0,0.0,0.0,0.0,0.0,0.0,-2.8967,-2.898,-2.9333,-3.0086,-3.0112,-3.0316,-3.0764,-3.0764,-3.0686,-3.0592,-3.0592,-3.0592,-3.0592,-3.0592,-3.0468,-3.0269,-3.0269,-2.9794,-2.8972,-2.8487,-2.7953,-2.7287,-2.5645,-2.4785,-2.4489,-2.4465,-2.4473,-2.4519,-2.488,-2.4971,-2.4851,-2.4115,-2.3841,-2.3656,-2.2966,0.0,0.0,0.0,0.0,-2.3012,-2.3591,-2.4017,-2.4432,-2.5033,-2.5448,-2.5668,-2.5491,-2.5265,-2.5003,0.0,-2.4041,-2.3129,-2.206,0.0,0.0,0.0,0.0,-2.2409,-2.2472,-2.311,-2.3464,-2.328,-2.328,-2.3071,-2.2574,-2.253,-2.2264,-2.1731,-2.1696,-2.1696,-2.1696,-2.1271,-2.092,-2.0634,0.0,0.0,0.0,0.0,0.0,0.0,0.0,0.0,0.0,0.0,0.0,0.0,0.0,0.0,0.0,0.0,0.0,0.0,0.0,0.0,0.0,0.0,0.0,0.0,0.0,0.0,0.0,0.0,0.0,-2.7791,-2.7914,0.0,0.0,0.0,0.0,-2.8687,-2.8677,-2.8993,-2.9703,-2.9729,-3.0112,-3.0921,-3.0934,-3.0699,-3.014,-3.014,-2.9902,-2.9401,-2.9401,-2.9401,-2.9401,-2.9401,-2.8983,-2.8257,-2.8257,-2.7804,-2.7257,-2.8909,-2.8393,-2.6536,-2.6439,-2.5638,-2.4535,-2.4975,-2.5144,-2.5133,-2.5202,-2.5175,-2.4945,-2.3525,-2.2466,-2.1887,-2.275,-2.2695,0.0,0.0,-2.4006,-2.4585,-2.5513,-2.5775,-2.5688,-2.5273,-2.5237,-2.5033,-2.4344,-2.3486,-2.3327,0.0,-2.4962,-2.4325,-2.2909,0.0,-2.2371,-2.2331,-2.2361,-2.2472,-2.2761,-2.2818,-2.2574,-2.1865,-2.182,-2.1776,-2.1785,-2.1785,-2.1741,-2.1696,-2.1696,-2.1696,-2.1696,-2.1668,-2.1215,-2.0238,-2.0192,0.0,0.0,0.0,0.0,0.0,0.0,0.0,0.0,0.0,0.0,0.0,0.0,0.0,0.0,0.0,0.0,0.0,0.0,0.0,0.0,0.0,0.0,0.0,0.0,0.0,0.0,0.0,0.0,-2.757,-2.8038,0.0,-2.8669,-2.9277,-2.9557,-2.9398,-2.9893,-3.011,-2.9978,-2.9978,-2.9986,-2.9902,-2.9925,-2.9784,-2.9588,-2.9588,-2.9483,-2.9287,-2.9653,-2.9823,-2.9849,-3.0215,-3.0262,-2.9939,-2.939,-2.8645,-2.7909,-2.8056,-2.7278,-2.5939,-2.5422,-2.4909,-2.4524,-2.4698,-2.4752,-2.4735,-2.4752,-2.4964,-2.5171,-2.4934,-2.4639,-2.4421,-2.477,-2.4749,-2.4628,-2.465,-2.4792,-2.4975,-2.4978,-2.5207,-2.53,-2.4653,-2.4763,-2.4819,-2.408,-2.3655,-2.3564,-2.4188,-2.3752,-2.3104,-2.2585,-2.2584,-2.2448,-2.179,-2.1849,-2.197,-2.2094,-2.2097,-2.1998,-2.1731,-2.1696,-2.1696,-2.1696,-2.1696,-2.1696,-2.1696,-2.1696,-2.1696,-2.1696,-2.1696,-2.1514,-2.1178,-2.1178,-2.0425,0.0,0.0,0.0,0.0,0.0,0.0,0.0,0.0,0.0,0.0,0.0,0.0,0.0,0.0,0.0,0.0,0.0,0.0,0.0,0.0,0.0,0.0,0.0,0.0,0.0,0.0,-2.7414,-2.7755,-2.85,-2.9001,-2.9059,-2.9694,-3.0074,-3.0001,-3.0257,-3.0278,-2.9935,-2.9849,-2.9758,-2.9575,-2.9575,-2.9575,-2.9575,-2.9575,-2.947,-2.9287,-2.9666,-2.9849,-2.9813,-2.9921,-2.9866,-2.9554,-2.8694,-2.7831,-2.7056,-2.6519,-2.5905,-2.5261,-2.5065,-2.4967,-2.4967,-2.4967,-2.4967,-2.4945,-2.477,-2.4854,-2.504,-2.5317,-2.5426,-2.5426,-2.5426,-2.5535,-2.559,-2.5303,-2.5295,-2.5308,-2.4789,-2.4859,-2.4898,-2.4158,-2.4271,-2.4327,-2.3637,-2.3464,-2.3377,-2.3149,-2.2794,-2.2527,-2.2527,-2.2462,-2.207,-2.1011,-2.1339,-2.1551,-2.1189,-2.1478,-2.1696,-2.1696,-2.1696,-2.1696,-2.1696,-2.1361,-2.1271,-2.1678,-2.1351,-2.1324,-2.1678,-2.1386,-2.1197,-2.1197,-2.088,-1.992,-1.8276,0.0,0.0,0.0,0.0,0.0,0.0,0.0,0.0,0.0,0.0,0.0,0.0,0.0,0.0,0.0,0.0,0.0,0.0,0.0,0.0,0.0,0.0,0.0,-2.6127,-2.6496,-2.7204,-2.844,-2.9189,-2.9669,-2.9783,-3.0303,-3.0555,-3.0388,-2.9744,-2.9407,-2.9487,-2.9407,-2.9549,-3.0061,-3.0074,-3.0074,-3.0074,-3.0074,-2.9823,-2.931,-2.9301,-2.9265,-2.9265,-2.8413,-2.7631,-2.6898,-2.6023,-2.5234,-2.457,-2.453,-2.453,-2.4618,-2.5513,-2.5852,-2.5852,-2.5852,-2.5852,-2.5797,-2.5327,-2.492,-2.4519,-2.453,-2.453,-2.453,-2.453,-2.4847,-2.5237,-2.5237,-2.5535,-2.577,-2.5073,-2.4903,-2.4733,-2.393,-2.3757,-2.3584,-2.2925,-2.2759,-2.253,-2.182,-2.2274,-2.2759,-2.2759,-2.2176,-2.1342,-2.0218,-2.0974,0.0,-2.0209,-2.1036,-2.1678,-2.1659,-2.1659,-2.1659,-2.165,-2.0643,-2.0492,-2.1641,-2.0652,-2.0537,-2.1659,-2.0773,-2.0238,-2.0186,-1.9247,-1.8275,-1.7283,0.0,0.0,0.0,0.0,0.0,0.0,0.0,0.0,0.0,0.0,0.0,0.0,0.0,0.0,0.0,0.0,0.0,0.0,0.0,0.0,0.0,0.0,-2.5893,-2.5729,-2.6497,-2.7312,-2.7939,-2.7921,-2.8353,-2.967,-2.9331,-2.9301,-2.9923,-3.0068,-2.9992,-2.9746,-2.9953,-2.9987,-2.9772,-2.9759,-2.9652,-2.951,-2.951,-2.9431,-2.9287,-2.9061,-2.8933,-2.8909,-2.8481,-2.8188,-2.7927,-2.7121,-2.6651,-2.642,-2.579,-2.5513,-2.5469,-2.5043,-2.488,-2.488,-2.488,-2.488,-2.4912,-2.515,-2.5128,-2.5043,-2.5393,-2.5513,-2.5513,-2.5513,-2.56,-2.5699,-2.5699,-2.5797,-2.577,-2.5073,-2.4903,-2.4605,-2.3353,-2.3047,-2.2872,-2.2176,-2.2008,-2.1954,-2.1741,-2.1865,-2.2008,-2.2008,-2.183,-2.1569,-2.1262,-2.1505,0.0,-2.1262,-2.1514,-2.1423,-2.0675,-2.0526,-2.0526,-2.0603,-2.0233,-2.0492,-2.1641,-2.1397,-2.137,-2.1678,-2.1432,-2.0952,-2.0314,-1.8589,-1.7589,0.0,0.0,0.0,0.0,0.0,0.0,0.0,0.0,0.0,0.0,0.0,0.0,0.0,0.0,0.0,0.0,0.0,0.0,0.0,0.0,0.0,0.0,-2.6478,-2.672,-2.6276,-2.6758,-2.7389,-2.7925,-2.7849,-2.8194,-2.9361,-2.9044,-2.91,-2.9851,-3.0099,-3.0113,-2.9942,-3.0002,-3.0041,-2.9949,-2.9842,-2.9889,-3.003,-3.0102,-3.0102,-2.9993,-2.9912,-2.963,-2.9176,-2.8636,-2.8227,-2.7839,-2.7021,-2.6663,-2.6622,-2.6104,-2.5895,0.0,0.0,0.0,0.0,0.0,-2.5087,-2.512,-2.5382,-2.548,-2.5524,-2.5808,-2.5895,-2.5895,-2.5895,-2.5895,-2.5895,-2.5895,-2.5686,-2.5338,-2.4637,-2.4209,-2.3744,-2.2618,-2.2353,-2.223,-2.1776,-2.1696,-2.1696,-2.1696,-2.1696,0.0,-2.1696,-2.1696,-2.1533,-2.1063,-2.1388,-2.1523,-2.1054,-2.1397,-2.1469,-2.0873,-2.0775,-2.0732,-2.0818,-2.0305,0.0,0.0,0.0,-2.1018,-2.1062,-2.0694,0.0,0.0,0.0,-1.6669,-1.6672,0.0,0.0,0.0,-1.5951,-1.6162,0.0,0.0,0.0,0.0,0.0,0.0,0.0,0.0,0.0,0.0,0.0,0.0,0.0,0.0,0.0,0.0,-2.7472,-2.7748,-2.7389,-2.7307,-2.7509,-2.8171,-2.8344,-2.8573,-2.8913,-2.9057,-2.9422,-2.9993,-3.0042,-3.0092,-3.0231,0.0,0.0,0.0,0.0,-3.0551,-3.1061,-3.1235,-3.1198,-3.1024,-3.1073,-3.0558,-2.9498,-2.8664,-2.7799,-2.7021,-2.6218,-2.5895,-2.5895,-2.5895,-2.5895,-2.5895,-2.5895,-2.5895,-2.5895,-2.5895,-2.5895,-2.5895,-2.5895,0.0,0.0,-2.5895,-2.5895,-2.5895,-2.5895,-2.5895,-2.5895,-2.5895,-2.5422,-2.4722,-2.3973,-2.3299,-2.2618,-2.1865,-2.1696,-2.1696,-2.1696,-2.1696,-2.1696,-2.1696,-2.1696,-2.1696,-2.1696,-2.1696,-2.1361,-2.035,-2.1063,-2.1342,-2.0332,-2.1073,-2.1659,-2.1523,0.0,0.0,-2.1514,-2.0598,-2.0449,-2.1498,-2.0498,-1.9943,-2.0029,-1.9143,-1.8224,-1.7311,-1.6329,-1.5801,-1.5784,-1.5784,-1.5784,-1.5812,-1.6181,-1.633,0.0,0.0,0.0,0.0,0.0,0.0,0.0,0.0,0.0,0.0,0.0,0.0,0.0,0.0,0.0,-2.7265,-2.762,-2.8002,-2.8219,-2.795,-2.7846,-2.794,-2.7616,-2.7731,-2.8535,-2.8435,-2.8703,-2.9538,-3.0344,-3.0877,-3.104,-3.1321,-3.1485,-3.1606,-3.1569,-3.1513,-3.1485,-3.136,-3.1272,-3.1235,0.0,0.0,-2.8624,-2.7799,-2.6981,-2.6135,-2.5979,-2.5895,-2.5895,-2.5895,-2.5895,-2.5895,-2.5895,-2.5895,-2.5895,-2.5895,-2.5895,-2.5895,-2.5895,-2.5895,-2.5895,-2.5895,-2.5895,-2.5895,-2.5895,-2.5895,0.0,-2.5895,-2.5422,-2.4722,-2.3973,-2.3299,-2.2618,-2.1865,-2.1696,-2.1696,-2.1696,-2.1696,-2.1696,-2.1696,-2.1696,-2.1696,-2.1696,-2.1696,-2.1641,-2.1397,-2.1551,-2.1641,-2.1397,-2.1551,-2.1396,-2.0585,-2.0384,-2.0384,-2.047,-2.0198,-2.0181,-2.0531,-1.9579,-1.9052,-1.9089,-1.814,-1.7505,-1.7281,-1.6306,-1.5806,-1.5784,-1.5784,-1.5784,-1.5778,-1.5886,-1.6041,0.0,0.0,0.0,0.0,0.0,0.0,0.0,0.0,0.0,0.0,0.0,-2.6415,0.0,0.0,-2.7528,-2.7908,-2.8104,-2.8271,-2.8471,-2.8311,-2.8108,-2.7846,-2.7561,-2.7589,-2.8051,-2.8537,-2.9116,-2.9852,-3.097,-3.1627,-3.1734,-3.1838,-3.189,-3.189,-3.178,-3.1633,-3.1434,-3.1545,-3.1495,-3.131,-3.0848,-2.9922,-2.8521,-2.8028,-2.7092,-2.5895,-2.5895,-2.5895,-2.5895,-2.5895,-2.5895,-2.5895,-2.5895,-2.5895,-2.5895,-2.5895,-2.5895,-2.5895,-2.5895,-2.5895,-2.5895,-2.5895,-2.5895,-2.5895,-2.5895,-2.5895,-2.5895,-2.5895,-2.5158,-2.4241,-2.3887,-2.3038,-2.2176,-2.1776,-2.1696,-2.1696,-2.1696,-2.1696,-2.1696,-2.1696,-2.1696,-2.1696,-2.1696,-2.1696,-2.1696,-2.1696,-2.1696,-2.1696,-2.1696,-2.1696,-2.1496,-2.1007,-2.0875,-2.0875,-2.0962,-2.0473,-1.9997,-1.9588,-1.9063,-1.8788,-1.8788,-1.7831,-1.7279,-1.7279,-1.6298,-1.5784,-1.5784,-1.5784,-1.5784,-1.5784,-1.5784,-1.6066,0.0,0.0,0.0,0.0,0.0,0.0,0.0,0.0,-2.3208,-2.506,-2.6007,-2.6729,-2.7466,-2.7627,-2.7809,-2.8398,-2.851,-2.851,-2.851,-2.851,-2.8354,-2.7933,-2.7873,-2.7873,-2.7873,-2.895,-2.983,-3.0291,-3.1482,-3.2218,-3.2218,-3.2036,-3.1963,-3.1963,-3.178,-3.1633,-3.1495,-3.178,-3.1743,-3.1421,-3.1559,-3.0684,-2.8993,-2.8612,-2.7637,-2.6218,-2.5979,-2.5895,-2.5895,-2.5895,-2.5895,-2.5895,-2.5895,-2.5895,-2.5895,-2.5895,-2.5895,-2.5895,-2.5895,-2.5895,-2.5895,-2.5895,-2.5895,-2.5895,-2.5895,-2.5895,-2.5895,-2.5895,-2.4893,-2.38,-2.38,-2.2765,-2.1696,-2.1696,-2.1696,-2.1696,-2.1696,-2.1696,-2.1696,-2.1696,-2.1696,-2.1696,-2.1696,-2.1696,-2.1696,-2.1696,-2.1696,-2.1696,-2.1696,-2.1696,-2.1696,-2.1696,-2.1696,-2.1642,-2.1454,-2.0583,-1.9567,-1.8565,-1.8334,-1.8234,-1.8234,-1.7458,-1.7005,-1.7005,-1.6204,-1.5784,-1.5784,-1.5784,-1.5784,-1.5784,-1.5784,-1.6146,-1.951,-1.9842,-2.0523,-2.0999,-2.1065,-2.1588,0.0,0.0,-2.4064,-2.6452,-2.7013,-2.7359,-2.8203,-2.8386,-2.8398,-2.8498,-2.851,-2.851,-2.851,-2.851,-2.8486,-2.8426,-2.8426,-2.8426,-2.8426,-2.9513,-3.0253,-3.0317,-3.1482,-3.2218,-3.2218,-3.2182,-3.2182,-3.2182,-3.2146,-3.2132,-3.2096,-3.1963,-3.189,-3.1817,-3.1669,-3.1086,-3.0088,-2.911,-2.8164,-2.7273,-2.629,-2.5895,-2.5895,-2.5895,-2.5895,-2.5895,-2.5895,-2.5895,-2.5895,-2.5895,-2.5895,-2.5895,-2.5895,-2.5895,-2.5895,-2.5895,-2.5895,-2.5895,-2.5895,-2.5895,-2.5895,-2.5895,-2.4893,-2.38,-2.38,-2.2765,-2.1696,-2.1696,-2.1696,-2.1696,-2.1696,-2.1696,-2.1696,-2.1696,-2.1696,-2.1696,-2.1696,-2.1696,-2.1696,-2.1696,-2.1696,-2.1696,-2.1696,-2.1696,-2.1696,-2.1696,-2.1696,-2.1365,-2.0529,-1.9521,-1.8565,-1.7512,-1.6622,-1.615,-1.615,-1.6015,-1.5967,-1.5967,-1.5879,-1.5784,-1.5784,-1.5784,-1.5784,-1.5784,-1.5784,-1.6146,-2.0938,-2.091,-2.0999,0.0,-2.1773,-2.2038,-2.2942,-2.333,-2.4054,-2.5981,-2.6835,-2.747,-2.8339,-2.851,-2.851,0.0,-2.851,-2.851,-2.851,-2.851,-2.851,-2.851,-2.851,-2.851,-2.851,-2.96,-3.0279,-3.0279,-3.1482,-3.2218,-3.2218,-3.2218,-3.2218,-3.2218,-3.2218,-3.2146,-3.2036,-3.2073,-3.2036,-3.189,-3.1817,-3.131,-3.0469,-2.9909,-2.8848,-2.7435,-2.661,-2.6135,-2.5895,-2.5895,-2.5895,-2.5895,-2.5895,-2.5895,-2.5895,-2.5895,-2.5895,-2.5895,-2.5895,-2.5895,-2.5895,-2.5895,-2.5895,-2.5895,-2.5895,-2.5895,-2.5895,-2.5895,-2.4893,-2.38,-2.38,-2.2765,-2.1696,-2.1696,-2.1696,-2.1696,-2.1696,-2.1696,-2.1696,-2.1696,-2.1696,-2.1696,-2.1696,-2.1696,-2.1696,-2.1696,-2.1696,-2.1696,-2.1696,-2.1696,-2.1696,-2.1696,-2.1221,-2.0484,-1.9521,-1.8519,-1.7505,-1.648,-1.6015,-1.5784,-1.5784,-1.5784,-1.5784,-1.5784,-1.5784,-1.5784,-1.5784,-1.5784,-1.5784,-1.5784,-1.5784,-1.6146,-2.1497,0.0,0.0,-2.203,-2.2317,-2.2437,-2.2437,-2.2922,-2.38,-2.5167,-2.6163,-2.7092,-2.7966,-2.8339,-2.851,-2.851,-2.851,-2.851,-2.851,-2.851,-2.851,-2.851,-2.8669,-2.8736,-2.8736,-2.9678,-3.0279,-3.0279,-3.1482,-3.2218,-3.2218,-3.2218,-3.2218,-3.2218,-3.2218,-3.2146,-3.1963,-3.2146,-3.2146,-3.1963,-3.1963,-3.1643,-3.1033,-3.0507,-2.9291,-2.7464,-2.6928,-2.6373,-2.5895,-2.5895,-2.5895,-2.5895,-2.5895,-2.5895,-2.5895,-2.5895,-2.5895,-2.5895,-2.5895,-2.5895,-2.5895,-2.5895,-2.5895,-2.5895,-2.5895,-2.5895,-2.5895,-2.5895,-2.4893,-2.38,-2.38,-2.2765,-2.1696,-2.1696,-2.1696,-2.1696,-2.1696,-2.1696,-2.1696,-2.1696,-2.1696,-2.1696,-2.1696,-2.1696,-2.1696,-2.1696,-2.1696,-2.1696,-2.1696,-2.1696,-2.1696,-2.1696,-2.0853,-1.9886,-1.888,-1.7878,-1.6857,-1.5872,-1.5784,-1.5784,-1.5784,-1.5784,-1.5784,-1.5784,-1.5784,-1.5784,-1.5784,-1.5784,-1.5784,-1.5784,-1.5784,-1.6099,-2.0186,0.0,-2.137,-2.203,-2.265,-2.3071,-2.3071,-2.3071,-2.3377,-2.4317,-2.5242,-2.6121,-2.7051,-2.7926,-2.851,-2.851,-2.851,-2.851,-2.851,-2.851,-2.851,-2.851,-2.9,-2.938,0.0,-2.9947,-3.0279,-3.0279,-3.1482,-3.2218,-3.2218,-3.2218,-3.2218,-3.2218,-3.2218,-3.2218,-3.2182,-3.2218,-3.2218,-3.2182,-3.2182,-3.2182,-3.2096,-3.0859,-2.9291,-2.7476,-2.7255,-2.6704,-2.5895,-2.5895,-2.5895,-2.5895,-2.5895,-2.5895,-2.5895,-2.5895,-2.5895,-2.5895,-2.5895,-2.5895,-2.5895,-2.5895,-2.5895,-2.5895,-2.5895,-2.5895,-2.5895,-2.5895,-2.4893,-2.38,-2.38,-2.2765,-2.1696,-2.1696,-2.1696,-2.1696,-2.1696,-2.1696,-2.1696,-2.1696,-2.1696,-2.1696,-2.1696,-2.1696,-2.1696,-2.1696,-2.1696,-2.1696,-2.1696,-2.1696,-2.1696,-2.1696,-2.0853,-1.9886,-1.888,-1.7878,-1.6857,-1.5872,-1.5784,-1.5784,-1.5784,-1.5784,-1.5784,-1.5784,-1.5784,-1.5784,-1.5784,-1.5784,-1.5784,-1.5784,-1.5784,-1.5992,-2.0746,-2.1379,-2.2011,-2.265,-2.295,-2.3091,-2.3091,-2.3091,-2.3353,-2.4327,-2.4787,-2.5308,-2.6105,-2.7091,-2.7746,-2.7577,-2.8072,-2.851,-2.851,-2.851,-2.851,-2.851,-2.904,0.0,0.0,0.0,0.0,-3.0884,-3.1716,-3.2218,-3.2218,-3.2218,-3.2218,-3.2218,-3.2218,-3.2218,-3.2218,-3.2218,-3.2218,-3.2218,-3.2218,-3.2218,-3.2169,-3.132,-3.019,-2.8912,-2.8148,-2.7244,-2.629,-2.6021,-2.5895,-2.5895,-2.5895,-2.5895,-2.5895,-2.5895,-2.5895,-2.5895,-2.5895,-2.5895,-2.5895,-2.5895,-2.5895,-2.5895,-2.5895,-2.5895,-2.5895,-2.5895,-2.4893,-2.38,-2.38,-2.2765,-2.1696,-2.1696,-2.1696,-2.1696,-2.1696,-2.1696,-2.1696,-2.1696,-2.1696,-2.1696,-2.1696,-2.1696,-2.1696,-2.1696,-2.1696,-2.1696,-2.1696,-2.1177,-2.0763,-2.0763,-1.9293,-1.8149,-1.7831,-1.6904,-1.6157,-1.5825,-1.5784,-1.5784,-1.5784,-1.5784,-1.5784,-1.5784,-1.5784,-1.5784,-1.5784,-1.5784,-1.5784,-1.5784,-1.5784,-1.5985,-2.1351,-2.1882,-2.2317,-2.295,-2.3091,-2.3091,-2.3091,-2.3091,-2.3266,-2.3864,-2.4367,-2.4824,-2.5253,-2.6467,-2.7257,-2.6796,-2.7431,-2.8024,-2.8103,-2.8064,-2.8203,-2.8752,-2.9341,-2.9793,0.0,0.0,0.0,-3.1233,-3.1813,-3.2218,-3.2218,-3.2218,-3.2218,-3.2218,-3.2218,-3.2218,-3.2218,-3.2218,-3.2218,-3.2218,-3.2218,-3.2218,-3.2169,-3.1666,-3.0934,-2.9961,-2.9213,-2.8215,-2.7028,-2.6805,-2.6445,-2.6093,-2.6093,-2.6021,-2.5895,-2.5895,-2.5895,-2.5895,-2.5895,-2.5895,-2.5895,-2.5895,-2.5895,-2.5895,-2.5895,-2.5895,-2.5895,-2.5895,-2.4893,-2.38,-2.38,-2.2765,-2.1696,-2.1696,-2.1696,-2.1696,-2.1696,-2.1696,-2.1696,-2.1696,-2.1696,-2.1696,-2.1696,-2.1696,-2.1696,-2.1696,-2.1696,-2.1696,-2.1696,-2.0898,-2.0294,-2.0294,-1.8519,-1.7279,-1.7279,-1.6393,-1.5784,-1.5784,-1.5784,-1.5784,-1.5784,-1.5784,-1.5784,-1.5784,-1.5784,-1.5784,-1.5784,-1.5784,-1.5784,-1.5784,-1.5784,-1.5932,-2.1882,-2.224,-2.2389,-2.296,-2.3091,-2.3091,-2.3091,-2.3091,-2.3091,-2.3071,-2.3884,-2.4587,0.0,0.0,-2.7076,-2.6208,-2.6687,-2.7234,-2.7442,-2.7274,-2.7714,0.0,0.0,0.0,0.0,0.0,0.0,-3.1307,0.0,-3.2218,-3.2218,-3.2218,-3.2218,-3.2218,-3.2218,-3.2218,-3.2218,-3.2218,-3.2218,-3.2218,-3.2218,-3.2218,-3.2182,-3.2,-3.1445,-3.0607,-3.0431,-2.9485,-2.8136,-2.8124,-2.7464,-2.6528,-2.6528,-2.6249,-2.5937,-2.5895,-2.5895,-2.5895,-2.5895,-2.5895,-2.5895,-2.5895,-2.5895,-2.5895,-2.5895,-2.5895,-2.5895,-2.5853,-2.485,-2.38,-2.3757,-2.2721,-2.1696,-2.1696,-2.1696,-2.1696,-2.1696,-2.1696,-2.1696,-2.1696,-2.1696,-2.1696,-2.1696,-2.1696,-2.1696,-2.1696,-2.1696,-2.1696,-2.1696,-2.0853,-2.0204,-2.0204,-1.8419,-1.7232,-1.7232,-1.6346,-1.5784,-1.5784,-1.5784,-1.5784,-1.5784,-1.5784,-1.5784,-1.5784,-1.5784,-1.5784,-1.5784,-1.5784,-1.5784,-1.5784,-1.5784,-1.5784,-2.2121,-2.2539,-2.2921,-2.3071,-2.3091,-2.3091,-2.3091,-2.3091,-2.296,-2.2529,-2.3225,-2.3699,0.0,0.0,0.0,-2.5947,-2.7148,0.0,-2.8227,-2.8187,0.0,-2.9289,0.0,-3.0545,-3.1145,-3.1813,0.0,0.0,-3.2096,-3.2218,-3.2218,-3.2218,-3.2218,-3.2218,-3.2218,-3.2218,-3.2218,-3.2218,-3.2218,-3.2218,-3.2218,-3.2218,-3.2218,-3.2146,-3.1753,-3.1033,-3.0696,-2.9807,-2.8581,-2.8227,-2.7666,-2.6981,-2.6652,-2.6445,-2.629,-2.6021,-2.5895,-2.5895,-2.5895,-2.5895,-2.5895,-2.5895,-2.5895,-2.5895,-2.5895,-2.5895,-2.5812,-2.5295,-2.4498,-2.3671,-2.3169,-2.2397,-2.1696,-2.1696,-2.1696,-2.1696,-2.1696,-2.1696,-2.1696,-2.1696,-2.1696,-2.1696,-2.1696,-2.1696,-2.1696,-2.1696,-2.1696,-2.1696,-2.1696,-2.0221,-1.9201,-1.9201,-1.7358,-1.6157,-1.6157,-1.5967,-1.5784,-1.5784,-1.5784,-1.5784,-1.5784,-1.5784,-1.5784,-1.5784,-1.5784,-1.5784,-1.5784,-1.5784,-1.5784,-1.5784,-1.5784,-1.5784,-2.2529,-2.2829,-2.3091,-2.3091,-2.3091,-2.3052,-2.278,-2.2645,-2.2476,-2.224,-2.2645,0.0,0.0,0.0,0.0,0.0,0.0,0.0,-2.8004,-2.8177,-2.8641,0.0,-3.033,0.0,-3.1579,-3.1986,-3.2218,0.0,-3.2218,-3.2218,-3.2218,-3.2218,-3.2218,-3.2218,-3.2218,-3.2218,-3.2218,-3.2218,-3.2218,-3.2218,-3.2218,-3.2218,-3.2218,-3.2218,-3.1973,-3.1629,0.0,-3.0582,-2.9445,-2.9174,-2.8438,-2.7493,-2.7208,-2.6992,-2.6775,-2.6539,-2.6332,-2.6177,-2.6177,-2.6063,-2.5895,-2.5895,-2.5895,-2.5895,-2.5895,-2.5895,-2.577,-2.5084,-2.437,-2.3627,-2.2969,-2.2264,-2.1696,-2.1696,-2.1696,-2.1696,-2.1696,-2.1696,-2.1696,-2.1696,-2.1696,-2.1696,-2.1696,-2.1696,-2.1696,-2.1696,-2.1696,-2.1696,-2.1696,-1.9985,-1.8788,-1.8788,-1.6983,-1.5784,-1.5784,-1.5784,-1.5784,-1.5784,-1.5784,-1.5784,-1.5784,-1.5784,-1.5784,-1.5784,-1.5784,-1.5784,-1.5784,-1.5784,-1.5784,-1.5784,-1.5784,-1.5784,-2.296,-2.3091,-2.3091,-2.3091,-2.3091,-2.294,-2.2446,-2.2169,-2.2057,-2.2174,0.0,-2.2379,-2.2805,-2.4547,-2.5715,-2.4956,0.0,-2.7211,-2.7528,-2.7932,-2.8694,-3.0139,-3.0809,-3.1468,-3.2132,-3.2218,-3.2218,-3.2218,-3.2218,-3.2218,-3.2218,-3.2218,-3.2218,-3.2218,-3.2218,-3.2218,-3.2218,-3.2218,-3.2218,-3.2218,-3.2218,-3.2218,-3.2218,-3.2218,-3.2218,-3.2218,-3.2218,0.0,-3.0279,-3.0279,-2.9367,-2.7962,-2.7921,-2.7667,-2.7267,-2.7226,-2.6887,-2.6487,-2.6487,-2.6249,-2.5895,-2.5895,-2.5895,-2.5895,-2.5895,-2.5853,-2.5644,-2.4946,-2.4241,-2.3507,-2.2838,-2.2176,-2.1696,-2.1696,-2.1696,-2.1696,-2.1696,-2.1696,-2.1696,-2.1696,-2.1696,-2.1696,-2.1696,-2.1696,-2.1696,-2.1696,-2.1696,-2.1696,-2.1696,-1.9985,-1.8788,-1.8788,-1.6983,-1.5784,-1.5784,-1.5784,-1.5784,-1.5784,-1.5784,-1.5784,-1.5784,-1.5784,-1.5784,-1.5784,-1.5784,-1.5784,-1.5784,-1.5784,-1.5784,-1.5784,-1.5784,-1.5784,-2.3071,-2.3091,-2.3091,-2.3091,-2.3091,-2.3071,-2.2981,-2.2914,0.0,0.0,-2.2639,-2.2928,-2.2366,-2.3856,-2.5263,-2.5547,0.0,0.0,0.0,0.0,-2.9449,0.0,0.0,0.0,0.0,0.0,0.0,0.0,0.0,-3.2218,-3.2218,-3.2218,-3.2218,-3.2218,-3.2218,-3.2218,-3.2218,-3.2218,-3.2218,-3.2218,-3.2218,-3.2218,-3.2218,-3.2218,-3.2218,-3.2218,-3.2218,0.0,-3.0279,-3.0279,-2.9535,-2.8351,-2.8042,-2.7841,-2.7708,-2.736,-2.6887,-2.6487,-2.6487,-2.6249,-2.5895,-2.5895,-2.5895,-2.5895,-2.5895,-2.5506,-2.4903,-2.4198,-2.3517,-2.2794,-2.2087,-2.1785,-2.1696,-2.1696,-2.1696,-2.1696,-2.1696,-2.1696,-2.1696,-2.1696,-2.1696,-2.1696,-2.1696,-2.1696,-2.1696,-2.1696,-2.1696,-2.1696,-2.1696,-1.9985,-1.8788,-1.8788,-1.6983,-1.5784,-1.5784,-1.5784,-1.5784,-1.5784,-1.5784,-1.5784,-1.5784,-1.5784,-1.5784,-1.5784,-1.5784,-1.5784,-1.5784,-1.5784,-1.5784,-1.5784,-1.5784,-1.5784,-2.382,-2.382,-2.382,-2.382,-2.4155,-2.4302,-2.3505,0.0,0.0,0.0,-2.2339,-2.2533,-2.2547,0.0,0.0,0.0,0.0,0.0,0.0,0.0,0.0,0.0,0.0,0.0,0.0,0.0,0.0,0.0,0.0,-3.2218,-3.2218,-3.2218,-3.2218,-3.2218,-3.2218,-3.2218,-3.2218,-3.2218,-3.2218,-3.2218,-3.2218,-3.2218,-3.2218,-3.2218,-3.2218,-3.2218,-3.2218,0.0,-3.0279,-3.0279,-2.96,-2.8471,-2.8283,-2.8203,-2.8203,-2.7978,-2.7603,-2.7249,-2.7249,-2.6787,-2.6207,-2.6207,-2.6052,-2.5895,-2.5895,-2.5686,-2.52,-2.4102,-2.3594,-2.3081,-2.1998,-2.1696,-2.1696,-2.1696,-2.1696,-2.1696,-2.1696,-2.1696,-2.1696,-2.1696,-2.1696,-2.1696,-2.1696,-2.1696,-2.1696,-2.1696,-2.1696,-2.1696,-2.1696,-2.0447,-1.9384,-1.888,-1.7451,-1.6393,-1.5825,-1.5784,-1.5784,-1.5784,-1.5784,-1.5784,-1.5784,-1.5784,-1.5784,-1.5784,-1.5784,-1.5784,-1.5784,-1.5784,-1.5784,-1.5784,-1.5784,-1.5784,-2.4723,-2.4787,-2.4787,-2.4787,-2.5284,-2.5444,-2.4028,-2.3564,0.0,0.0,-2.2155,-2.2268,-2.2879,0.0,0.0,0.0,0.0,0.0,0.0,0.0,0.0,0.0,0.0,0.0,0.0,0.0,0.0,0.0,0.0,0.0,-3.2218,-3.2218,-3.2218,-3.2218,-3.2218,-3.2218,-3.2218,-3.2218,-3.2218,-3.2218,-3.2218,-3.2218,-3.2218,-3.2218,-3.2218,-3.2218,-3.2218,0.0,0.0,-3.0355,-2.9678,-2.8657,-2.855,-2.851,-2.851,-2.851,-2.8243,-2.7893,-2.7893,-2.733,-2.664,-2.6528,-2.6218,-2.5895,-2.5895,-2.5812,-2.5422,-2.4145,-2.3714,-2.329,-2.2043,-2.1696,-2.1696,-2.1696,-2.1696,-2.1696,-2.1696,-2.1696,-2.1696,-2.1696,-2.1696,-2.1696,-2.1696,-2.1696,-2.1696,-2.1696,-2.1696,-2.1696,-2.1696,-2.1042,-2.0212,-1.9247,-1.8241,-1.7232,-1.6204,-1.6109,-1.6015,-1.5825,-1.5784,-1.5784,-1.5784,-1.5784,-1.5784,-1.5784,-1.5784,-1.5784,-1.5784,-1.5784,-1.5784,-1.5784,-1.5784,-1.5784,-2.5501,-2.5694,-2.5694,-2.5694,-2.5735,-2.5537,-2.4549,0.0,0.0,-2.3123,-2.2889,-2.2916,-2.3001,-2.3365,0.0,0.0,0.0,0.0,0.0,0.0,0.0,0.0,0.0,0.0,0.0,0.0,0.0,0.0,0.0,0.0,-3.2218,-3.2218,-3.2218,-3.2218,-3.2218,-3.2218,-3.2218,-3.2218,-3.2218,-3.2218,-3.2218,-3.2218,-3.2218,-3.2218,-3.2218,-3.2218,-3.2218,0.0,0.0,-3.0507,-2.9909,-2.9263,-2.8697,-2.851,-2.851,-2.851,-2.8243,-2.7893,-2.7893,-2.7574,-2.7062,-2.6652,-2.6218,-2.5895,-2.5895,-2.5464,-2.4818,-2.4016,-2.3343,-2.2706,-2.1909,-2.1696,-2.1696,-2.1696,-2.1696,-2.1696,-2.1696,-2.1696,-2.1696,-2.1696,-2.1696,-2.1696,-2.1696,-2.1696,-2.1696,-2.1696,-2.1696,-2.1696,-2.1696,-2.1642,-2.1221,-2.0249,-1.9247,-1.8241,-1.7232,-1.7145,-1.6763,-1.5879,-1.5784,-1.5784,-1.5784,-1.5784,-1.5784,-1.5784,-1.5784,-1.5784,-1.5784,-1.5784,-1.5784,-1.5784,-1.5784,-1.5784,-2.6453,-2.6629,-2.6629,-2.6629,-2.6608,-2.6331,-2.5452,0.0,0.0,-2.3181,-2.3001,-2.3001,-2.3001,-2.3214,-2.3512,0.0,0.0,0.0,0.0,0.0,0.0,0.0,0.0,0.0,0.0,0.0,0.0,0.0,0.0,0.0,-3.2218,-3.2218,-3.2218,-3.2218,-3.2218,-3.2218,-3.2218,-3.2218,-3.2218,-3.2218,-3.2218,-3.2218,-3.2218,-3.2218,-3.2218,-3.2218,-3.2218,0.0,0.0,-3.0545,-2.9947,-2.9341,-2.8736,-2.851,-2.851,-2.851,-2.8391,-2.8283,-2.8283,-2.799,-2.7574,-2.7412,-2.6828,-2.6218,-2.5979,-2.5728,-2.5242,-2.4102,-2.3627,-2.3125,-2.1998,-2.1696,-2.1696,-2.1696,-2.1696,-2.1696,-2.1696,-2.1696,-2.1696,-2.1696,-2.1696,-2.1696,-2.1696,-2.1696,-2.1696,-2.1696,-2.1696,-2.1696,-2.1696,-2.1696,-2.1553,-2.1177,-2.0303,-1.9293,-1.8288,-1.8195,-1.7785,-1.6763,-1.6716,-1.644,-1.5832,-1.5784,-1.5784,-1.5784,-1.5784,-1.5784,-1.5784,-1.5784,-1.5784,-1.5784,-1.5784,-1.5784,-2.7184,-2.7515,-2.7592,-2.7592,-2.7327,-2.6851,0.0,0.0,0.0,-2.3174,-2.3001,-2.3032,-2.3062,-2.3239,-2.3398,0.0,0.0,-2.6332,0.0,0.0,0.0,0.0,0.0,0.0,0.0,0.0,0.0,0.0,0.0,0.0,-3.2218,-3.2218,-3.2218,-3.2218,-3.2218,-3.2218,-3.2218,-3.2218,-3.2218,-3.2218,-3.2218,-3.2218,-3.2218,-3.2218,-3.2218,-3.2218,-3.2218,0.0,0.0,-3.062,-3.0063,-2.96,-2.8816,-2.851,-2.851,-2.851,-2.851,-2.851,-2.851,-2.8243,-2.7893,-2.7893,-2.7371,-2.6652,-2.6373,-2.6093,-2.5591,-2.4188,-2.3497,-2.294,-2.1954,-2.1696,-2.1696,-2.1696,-2.1696,-2.1696,-2.1696,-2.1696,-2.1696,-2.1696,-2.1696,-2.1696,-2.1696,-2.1696,-2.1696,-2.1696,-2.1696,-2.1696,-2.1696,-2.1696,-2.1696,-2.1696,-2.1132,-2.0303,-1.9338,-1.9247,-1.8788,-1.7831,-1.7738,-1.7271,-1.6298,-1.6251,-1.6109,-1.5832,-1.5784,-1.5784,-1.5784,-1.5784,-1.5784,-1.5784,-1.5784,-1.5784,-2.7645,-2.8207,-2.8471,-2.8471,-2.7787,-2.6851,0.0,0.0,0.0,-2.3174,-2.3001,-2.3069,-2.3264,-2.3464,-2.3631,-2.3766,0.0,0.0,0.0,0.0,0.0,0.0,0.0,0.0,0.0,0.0,0.0,0.0,0.0,0.0,-3.2246,-3.2218,-3.2218,-3.2218,-3.2218,-3.2218,-3.2218,-3.2218,-3.2218,-3.2218,-3.2218,-3.2218,-3.2218,-3.2218,-3.2218,0.0,0.0,0.0,0.0,-3.0822,-3.0279,-3.0165,-2.8961,-2.851,-2.851,-2.851,-2.851,-2.851,-2.851,-2.8243,-2.7893,-2.7893,-2.7574,-2.7185,-2.7185,-2.658,-2.5591,-2.4188,-2.2809,-2.1741,-2.1696,-2.1696,-2.1696,-2.1696,-2.1696,-2.1696,-2.1696,-2.1696,-2.1696,-2.1696,-2.1696,-2.1696,-2.1696,-2.1696,-2.1696,-2.1696,-2.1696,-2.1696,-2.1696,-2.1696,-2.1696,-2.1696,-2.1687,-2.132,-2.0339,-2.0294,-1.984,-1.8834,-1.8788,-1.8334,-1.7326,-1.7279,-1.681,-1.5825,-1.5784,-1.5784,-1.5784,-1.5784,-1.5784,-1.5784,-1.5784,-1.5784,-2.5985,-2.6687,-2.7186,-2.6774,-2.6217,-2.5625,-2.4983,0.0,0.0,0.0,-2.389,-2.4484,-2.4417,-2.5074,-2.56,-2.5383,0.0,0.0,0.0,0.0,0.0,0.0,0.0,0.0,0.0,0.0,0.0,0.0,0.0,0.0,-3.2246,-3.2218,-3.2218,-3.2218,-3.2218,-3.2218,-3.2218,-3.2218,-3.2218,-3.2218,-3.2218,-3.2218,-3.2218,-3.2218,-3.2218,0.0,0.0,0.0,0.0,-3.0822,-3.0279,-3.0177,-2.8961,-2.851,-2.851,-2.851,-2.851,-2.851,-2.851,-2.8431,-2.8323,-2.8323,-2.803,-2.7667,-2.7667,-2.6734,-2.5295,-2.3594,-2.2432,-2.1696,-2.1696,-2.1696,-2.1696,-2.1696,-2.1696,-2.1696,-2.1696,-2.1696,-2.1696,-2.1696,-2.1696,-2.1696,-2.1696,-2.1696,-2.1696,-2.1696,-2.1696,-2.1696,-2.1696,-2.1696,-2.1696,-2.1696,-2.1696,-2.1597,-2.1275,-2.1275,-2.0853,-1.9886,-1.984,-1.9384,-1.838,-1.7645,-1.7138,-1.6817,-1.6157,-1.5784,-1.5784,-1.5784,-1.5784,-1.5784,-1.5784,-1.5784,0.0,-2.6043,-2.6542,-2.6271,-2.5745,0.0,0.0,0.0,0.0,0.0,0.0,0.0,0.0,0.0,0.0,0.0,0.0,0.0,0.0,0.0,0.0,0.0,0.0,0.0,0.0,0.0,0.0,0.0,0.0,0.0,-3.2223,-3.2218,-3.2218,-3.2218,-3.2218,-3.2218,-3.2218,-3.2218,-3.2218,-3.2218,-3.2218,-3.2218,-3.2218,-3.2218,-3.2218,0.0,0.0,0.0,0.0,-3.0822,-3.0279,-3.0177,-2.8961,-2.851,-2.851,-2.851,-2.851,-2.851,-2.851,-2.8391,-2.8323,-2.8431,-2.8243,-2.776,-2.7062,-2.6049,-2.4819,-2.3353,-2.2309,-2.1696,-2.1696,-2.1696,-2.1696,-2.1696,-2.1696,-2.1696,-2.1696,-2.1696,-2.1696,-2.1696,-2.1696,-2.1696,-2.1696,-2.1696,-2.1696,-2.1696,-2.1696,-2.1696,-2.1696,-2.1696,-2.1696,-2.1696,-2.1696,-2.1696,-2.1696,-2.1696,-2.1463,-2.0853,-2.0808,-2.0393,-1.943,-1.838,-1.7692,-1.7333,-1.6298,-1.5784,-1.5784,-1.5784,-1.5784,-1.5784,-1.5784,-1.5784,0.0,0.0,0.0,0.0,0.0,0.0,0.0,0.0,0.0,0.0,0.0,0.0,0.0,0.0,0.0,0.0,0.0,0.0,0.0,0.0,0.0,0.0,0.0,0.0,0.0,0.0,0.0,0.0,0.0,0.0,-3.2236,-3.2218,-3.2218,-3.2218,-3.2218,-3.2218,-3.2218,-3.2218,-3.2218,-3.2218,-3.2218,-3.2218,-3.2218,-3.2218,-3.2218,0.0,0.0,0.0,0.0,-3.0822,-3.0279,-3.0177,-2.8961,-2.851,-2.851,-2.851,-2.851,-2.851,-2.851,-2.8283,-2.8002,-2.8391,-2.8243,-2.7574,-2.5683,-2.4851,-2.4327,-2.3309,-2.2397,-2.1741,-2.1696,-2.1696,-2.1696,-2.1696,-2.1696,-2.1696,-2.1696,-2.1696,-2.1696,-2.1696,-2.1696,-2.1696,-2.1696,-2.1696,-2.1696,-2.1696,-2.1696,-2.1696,-2.1696,-2.1696,-2.1696,-2.1696,-2.1696,-2.1696,-2.1696,-2.1696,-2.1696,-2.1696,-2.1696,-2.132,-2.0439,-1.943,-1.8427,-1.7419,-1.6346,-1.5784,-1.5784,-1.5784,-1.5784,-1.5784,-1.5804,-1.5865,-2.6935,0.0,-2.7287,-2.6793,-2.6463,0.0,0.0,0.0,0.0,0.0,0.0,0.0,0.0,0.0,0.0,0.0,0.0,0.0,0.0,0.0,0.0,0.0,0.0,0.0,0.0,0.0,0.0,0.0,0.0,-3.2993,-3.2259,-3.2218,-3.2218,-3.2218,-3.2218,-3.2218,-3.2218,-3.2218,-3.2218,-3.2218,-3.2218,-3.2218,-3.2218,-3.2218,-3.2218,0.0,0.0,0.0,-3.2096,-3.0822,-3.0279,-3.0177,-2.8961,-2.851,-2.851,-2.851,-2.851,-2.851,-2.851,-2.8431,-2.8351,-2.8471,-2.8431,-2.7978,-2.6027,-2.5073,-2.436,-2.2564,-2.2008,-2.1963,-2.1731,-2.1696,-2.1696,-2.1696,-2.1696,-2.1696,-2.1696,-2.1696,-2.1696,-2.1696,-2.1696,-2.1696,-2.1696,-2.1696,-2.1696,-2.1696,-2.1696,-2.1696,-2.1696,-2.1696,-2.1696,-2.1696,-2.1696,-2.1696,-2.1696,-2.1696,-2.1696,-2.1696,-2.1696,-2.1597,-2.1365,-2.0439,-1.9476,-1.8473,-1.6709,-1.5784,-1.5784,-1.5784,-1.5784,-1.5832,-1.6059,-1.6166,-2.7945,-2.7583,-2.7139,-2.7122,-2.6647,-2.6128,0.0,0.0,0.0,0.0,0.0,0.0,0.0,0.0,0.0,0.0,0.0,0.0,0.0,0.0,0.0,0.0,0.0,0.0,0.0,0.0,0.0,0.0,0.0,-3.2904,-3.2436,-3.2277,-3.2218,-3.2218,-3.2218,-3.2218,-3.2218,-3.2218,-3.2218,-3.2218,-3.2218,-3.2218,-3.2218,-3.2218,-3.2218,0.0,0.0,0.0,-3.2096,-3.0822,-3.0279,-3.0177,-2.8961,-2.851,-2.851,-2.851,-2.851,-2.851,-2.851,-2.851,-2.851,-2.851,-2.8391,-2.7938,-2.6535,-2.5495,-2.4402,-2.2555,-2.1954,-2.1919,-2.1874,-2.1914,-2.1961,-2.1961,-2.2108,-2.2254,-2.2254,-2.2254,-2.2254,-2.2254,-2.2254,-2.2254,-2.2254,-2.2254,-2.2254,-2.2254,-2.2254,-2.2254,-2.2254,-2.2254,-2.2172,-2.198,-2.1961,-2.1888,-2.1705,-2.1696,-2.1696,-2.1696,-2.1696,-2.1696,-2.1696,-2.0808,-1.984,-1.8834,-1.7271,-1.648,-1.6487,-1.6204,-1.6032,-1.6039,-1.6333,-1.6473,-2.8871,-2.8005,-2.7247,-2.7793,-2.7112,-2.6405,0.0,0.0,0.0,0.0,0.0,0.0,0.0,0.0,0.0,0.0,0.0,0.0,0.0,0.0,0.0,0.0,0.0,0.0,0.0,0.0,0.0,0.0,0.0,-3.2919,-3.2624,-3.2336,-3.2218,-3.2218,-3.2218,-3.2218,-3.2218,-3.2218,-3.2218,-3.2218,-3.2218,-3.2218,-3.2218,-3.2218,-3.2218,-3.2218,0.0,0.0,-3.195,-3.0784,-3.0254,-3.0063,-2.8922,-2.8558,-2.8631,-2.8631,-2.8631,-2.8619,-2.8546,-2.851,-2.851,-2.851,-2.8271,-2.7852,-2.712,-2.6012,-2.4688,-2.3247,-2.2405,-2.1976,-2.222,-2.2344,-2.2419,-2.2419,-2.2648,-2.2904,-2.2904,-2.2904,-2.2904,-2.2904,-2.2904,-2.2904,-2.2904,-2.2904,-2.2904,-2.2904,-2.2904,-2.2904,-2.2904,-2.2904,-2.2776,-2.2419,-2.2373,-2.2236,-2.1906,-2.1879,-2.1879,-2.1879,-2.176,-2.1696,-2.1696,-2.0808,-1.9886,-1.9063,-1.8109,-1.754,-1.7359,-1.6863,-1.6528,-1.6346,-1.664,-1.6774,-2.9624,-2.9709,-2.9787,-2.907,-2.8768,-2.8482,0.0,0.0,0.0,0.0,0.0,0.0,0.0,0.0,0.0,0.0,0.0,0.0,0.0,0.0,0.0,0.0,0.0,0.0,0.0,0.0,0.0,0.0,0.0,-3.2635,-3.2277,-3.2218,-3.2218,-3.2218,-3.2218,-3.2218,-3.2218,-3.2218,-3.2218,-3.2218,-3.2218,-3.2218,-3.2218,-3.2218,-3.2218,-3.2218,0.0,-3.1863,-3.1307,-3.0582,-2.9986,-2.9457,-2.8776,-2.8787,-2.9184,-2.9184,-2.9184,-2.9112,-2.8667,-2.851,-2.851,-2.851,-2.8471,-2.8302,-2.7667,-2.676,-2.572,-2.4966,-2.3845,-2.2911,-2.3075,-2.3112,-2.3112,-2.285,-2.2858,-2.2904,-2.2904,-2.2904,-2.2904,-2.2904,-2.2904,-2.2904,-2.2904,-2.2904,-2.2904,-2.2904,-2.2904,-2.2904,-2.2904,-2.2904,-2.2885,-2.2821,-2.2812,-2.2785,-2.273,-2.2721,-2.2721,-2.2721,-2.2071,-2.1696,-2.1696,-2.0808,-2.0249,-2.0068,-1.94,-1.8618,-1.7743,-1.796,-1.757,-1.6647,-1.6991,-1.7132,-2.929,-2.9319,-2.9523,-2.9303,-2.956,-2.9802,0.0,0.0,0.0,0.0,0.0,0.0,0.0,0.0,0.0,0.0,0.0,0.0,0.0,0.0,0.0,0.0,0.0,0.0,0.0,0.0,0.0,0.0,0.0,0.0,-3.2789,-3.2422,-3.2218,-3.2218,-3.2218,-3.2218,-3.2218,-3.2218,-3.2218,-3.2218,-3.2218,-3.2218,-3.2218,-3.2218,-3.2218,-3.2218,0.0,-3.1813,-3.1145,-3.0545,-2.9947,-2.9341,-2.8736,-2.8835,-2.9328,-2.9629,-2.9544,-2.9268,-2.9027,-2.8751,-2.851,-2.851,-2.8703,-2.8765,-2.7965,-2.7145,-2.6395,-2.5798,-2.4572,-2.3399,-2.3308,-2.3476,-2.3548,-2.3272,-2.3446,-2.3602,-2.3602,-2.3602,-2.3602,-2.3602,-2.3602,-2.3602,-2.3602,-2.3602,-2.3602,-2.3602,-2.3602,-2.3602,-2.3602,-2.3602,-2.3519,-2.3251,-2.3224,-2.3142,-2.2922,-2.2904,-2.2904,-2.2904,-2.2556,-2.2346,-2.2346,-2.1913,-2.1682,-2.1682,-2.0312,-1.939,-1.8868,-1.8131,-1.7498,-1.7005,-1.73,-1.7434,-2.884,-2.8927,-2.9218,-2.9535,0.0,-3.0138,-3.0934,0.0,0.0,0.0,0.0,0.0,0.0,0.0,0.0,0.0,0.0,0.0,0.0,0.0,0.0,0.0,0.0,0.0,0.0,0.0,0.0,0.0,0.0,0.0,-3.3164,-3.2552,-3.2218,-3.2218,-3.2218,-3.2218,-3.2218,-3.2218,-3.2218,-3.2218,-3.2218,-3.2218,-3.2218,-3.2218,-3.2218,-3.2218,-3.2218,-3.174,-3.0959,-3.0469,-2.9871,-2.917,-2.8842,-2.9088,-2.9713,-3.0122,-3.0013,-2.9653,-2.9532,-2.9136,-2.8691,-2.8691,-2.8967,-2.9152,-2.8268,-2.7608,-2.6976,-2.6269,-2.5149,-2.407,-2.3758,-2.3896,-2.4072,-2.3782,-2.3972,-2.4202,-2.4202,-2.4202,-2.4202,-2.4202,-2.4202,-2.4202,-2.4202,-2.4202,-2.4202,-2.4202,-2.4202,-2.4202,-2.4202,-2.4202,-2.4082,-2.3721,-2.3636,-2.3565,-2.3215,-2.3187,-2.3187,-2.3187,-2.3014,-2.2904,-2.2904,-2.2904,-2.2904,-2.2904,-2.1417,-2.0427,-1.9932,-1.8658,-1.7808,-1.7306,-1.7475,-1.7582,-2.884,-2.9566,-3.0422,-3.027,0.0,0.0,-3.0702,0.0,0.0,0.0,0.0,0.0,0.0,0.0,0.0,0.0,0.0,0.0,0.0,0.0,0.0,0.0,0.0,0.0,0.0,0.0,0.0,0.0,0.0,0.0,-3.2775,-3.2408,-3.2218,-3.2218,-3.2218,-3.2218,-3.2218,-3.2218,-3.2218,-3.2218,-3.2218,-3.2218,-3.2218,-3.2218,-3.2218,-3.2218,-3.2218,-3.1519,-3.0355,-3.0317,-2.96,-2.8598,-2.9051,-2.9869,-3.0814,-3.085,-3.0838,-3.0687,-3.0206,-2.9689,-2.9244,-2.9244,-2.9268,-2.9212,-2.8696,-2.8209,-2.7594,-2.6635,-2.5963,-2.5441,-2.4895,-2.4816,-2.4737,-2.4492,-2.4322,-2.4202,-2.4202,-2.4202,-2.4202,-2.4202,-2.4202,-2.4202,-2.4202,-2.4202,-2.4202,-2.4202,-2.4202,-2.4202,-2.4202,-2.4202,-2.4192,-2.4165,-2.4156,-2.4146,-2.4119,-2.4119,-2.4119,-2.4119,-2.3373,-2.2904,-2.2904,-2.2904,-2.2904,-2.2904,-2.3117,-2.2244,-2.0255,-2.0518,-1.9561,-1.7555,-1.7569,-1.7582,-2.8637,-2.9058,-2.9493,-2.9783,0.0,0.0,0.0,0.0,0.0,0.0,0.0,0.0,0.0,0.0,0.0,0.0,0.0,0.0,0.0,0.0,0.0,0.0,0.0,0.0,0.0,0.0,0.0,0.0,0.0,0.0,-3.3659,-3.3399,-3.3244,-3.3244,-3.3244,-3.3244,-3.3244,-3.3244,-3.3244,-3.323,-3.2535,-3.2218,-3.2218,-3.2218,-3.2218,-3.2218,-3.2218,-3.1482,-3.0279,-3.0279,-2.9774,-2.9088,-2.9941,-3.0518,-3.0958,-3.1284,-3.1199,-3.0886,-3.0694,-3.023,-2.9785,-2.9785,-3.0013,-3.0048,-2.8586,-2.8251,-2.7979,-2.6011,-2.5567,-2.5538,-2.4833,-2.4784,-2.4833,-2.4578,-2.4341,-2.4202,-2.4202,-2.4202,-2.4202,-2.4202,-2.4202,-2.4202,-2.4202,-2.4202,-2.4202,-2.4202,-2.4202,-2.4202,-2.4202,-2.4202,-2.4202,-2.4202,-2.4202,-2.4202,-2.4202,-2.4202,-2.4202,-2.4202,-2.3868,-2.3703,-2.3703,-2.3703,-2.3703,-2.3703,-2.3144,-2.2462,-2.1695,-2.1178,-2.0107,-1.861,-1.861,-1.8251,-2.8826,-2.8971,-2.9232,0.0,0.0,0.0,0.0,0.0,0.0,0.0,0.0,0.0,0.0,0.0,0.0,0.0,0.0,0.0,0.0,0.0,0.0,0.0,0.0,0.0,0.0,0.0,0.0,0.0,0.0,0.0,0.0,-3.3955,-3.3819,-3.3908,-3.3908,-3.3908,-3.3908,-3.3908,-3.3908,-3.3894,-3.3132,-3.2643,-3.249,-3.23,-3.2218,-3.2218,-3.2218,-3.1588,-3.0548,-3.0548,-3.0248,-2.9869,-3.0591,-3.1019,-3.1211,-3.1573,-3.1476,-3.1163,-3.1163,-3.0783,-3.0338,-3.0338,-3.0396,-3.0106,-2.8421,-2.8069,-2.7746,-2.5548,-2.5235,-2.544,-2.4784,-2.4784,-2.4833,-2.4686,-2.439,-2.4202,-2.4202,-2.4202,-2.4202,-2.4202,-2.4202,-2.4202,-2.4202,-2.4202,-2.4202,-2.4202,-2.4202,-2.4202,-2.4202,-2.4202,-2.4202,-2.4202,-2.4202,-2.4202,-2.4202,-2.4202,-2.4202,-2.4202,-2.4202,-2.4202,-2.4202,-2.4202,-2.4202,-2.4202,-2.3438,-2.2878,-2.2476,-2.1759,-2.0672,-1.9176,-1.9176,-1.861,-2.9581,-2.9595,-3.0029,0.0,0.0,0.0,0.0,0.0,0.0,0.0,0.0,0.0,0.0,0.0,0.0,0.0,0.0,0.0,0.0,0.0,0.0,0.0,0.0,0.0,0.0,0.0,0.0,0.0,0.0,0.0,0.0,-3.3848,-3.372,-3.3894,-3.3921,-3.3921,-3.3935,-3.3935,-3.3935,-3.3935,-3.3921,-3.3647,-3.3088,-3.2504,-3.2232,-3.2232,-3.2232,-3.1777,-3.1097,-3.1097,-3.0994,-3.0922,-3.0922,-3.1247,-3.1705,-3.1705,-3.1705,-3.1705,-3.1705,-3.1368,-3.0922,-3.0922,-3.0237,-2.9235,-2.8196,-2.7562,-2.6856,-2.5362,-2.5088,-2.5235,-2.4981,-2.4883,-2.4883,-2.4883,-2.4538,-2.4202,-2.4202,-2.4202,-2.4202,-2.4202,-2.4202,-2.4202,-2.4202,-2.4202,-2.4202,-2.4202,-2.4202,-2.4202,-2.4202,-2.4202,-2.4202,-2.4202,-2.4202,-2.4202,-2.4202,-2.4202,-2.4202,-2.4202,-2.4202,-2.4202,-2.4202,-2.4202,-2.4202,-2.4202,-2.4202,-2.3646,-2.2526,-2.2526,-2.1395,-1.9228,-1.9228,-1.8662,-2.8233,-2.9261,0.0,0.0,0.0,0.0,0.0,0.0,0.0,0.0,0.0,0.0,0.0,0.0,0.0,0.0,0.0,0.0,0.0,0.0,0.0,0.0,0.0,0.0,0.0,0.0,0.0,0.0,0.0,0.0,0.0,-3.4362,-3.4427,-3.4931,-3.4687,-3.4734,-3.5141,-3.5154,-3.5154,-3.5141,-3.4734,-3.4219,-3.365,-3.3474,-3.3393,-3.3393,-3.3393,-3.2759,-3.1698,-3.1179,-3.0961,-3.0958,-3.1332,-3.1573,-3.1705,-3.1705,-3.1705,-3.1705,-3.1705,-3.1609,-3.1476,-3.1476,-3.0779,-2.976,-2.8794,-2.7864,-2.6904,-2.5557,-2.5235,-2.5284,-2.5186,-2.5039,-2.4883,-2.4883,-2.4637,-2.439,-2.4251,-2.4202,-2.4202,-2.4202,-2.4202,-2.4202,-2.4202,-2.4202,-2.4202,-2.4202,-2.4202,-2.4202,-2.4202,-2.4202,-2.4202,-2.4202,-2.4202,-2.4202,-2.4202,-2.4202,-2.4202,-2.4202,-2.4202,-2.4202,-2.4202,-2.4202,-2.4202,-2.4202,-2.4202,-2.4053,-2.3696,-2.3696,-2.2568,-2.0416,-2.0416,-1.9391,-2.9334,0.0,0.0,0.0,0.0,0.0,0.0,0.0,0.0,0.0,0.0,0.0,0.0,0.0,0.0,0.0,0.0,0.0,0.0,0.0,0.0,0.0,0.0,0.0,0.0,0.0,0.0,0.0,0.0,0.0,0.0,-3.4503,-3.4584,-3.5041,-3.4669,-3.4721,-3.5317,-3.5317,-3.5439,-3.571,-3.5317,-3.4965,-3.4599,-3.4124,-3.3908,-3.3883,-3.358,-3.3026,-3.2245,-3.1498,-3.1235,-3.1259,-3.1585,-3.1705,-3.1705,-3.1705,-3.1705,-3.1705,-3.1705,-3.1705,-3.1705,-3.1705,-3.0767,-2.9464,-2.8866,-2.7709,-2.6408,-2.5567,-2.5235,-2.5137,-2.5137,-2.503,-2.4883,-2.4883,-2.4686,-2.444,-2.4251,-2.4202,-2.4202,-2.4202,-2.4202,-2.4202,-2.4202,-2.4202,-2.4202,-2.4202,-2.4202,-2.4202,-2.4202,-2.4202,-2.4202,-2.4202,-2.4202,-2.4202,-2.4202,-2.4202,-2.4202,-2.4202,-2.4202,-2.4202,-2.4202,-2.4202,-2.4202,-2.4202,-2.4202,-2.4202,-2.4202,-2.4202,-2.3079,-2.0885,-2.0885,-1.9694,0.0,0.0,0.0,0.0,0.0,0.0,0.0,0.0,0.0,0.0,0.0,0.0,0.0,0.0,0.0,0.0,0.0,0.0,0.0,0.0,0.0,0.0,0.0,0.0,0.0,0.0,0.0,0.0,0.0,0.0,0.0,-3.4356,-3.424,-3.4481,-3.4093,-3.4149,-3.4707,-3.4761,-3.5073,-3.5642,-3.5683,-3.571,-3.5683,-3.4558,-3.407,-3.402,-3.3231,-3.2877,-3.2832,-3.2012,-3.1705,-3.1705,-3.1705,-3.1705,-3.1705,-3.1705,-3.1705,-3.1705,-3.1705,-3.1681,-3.1633,-3.1633,-3.0293,-2.8615,-2.8615,-2.7263,-2.5645,-2.5391,-2.5137,-2.4883,-2.4932,-2.4932,-2.4883,-2.4883,-2.4686,-2.4489,-2.4251,-2.4202,-2.4202,-2.4202,-2.4202,-2.4202,-2.4202,-2.4202,-2.4202,-2.4202,-2.4202,-2.4202,-2.4202,-2.4202,-2.4202,-2.4202,-2.4202,-2.4202,-2.4202,-2.4202,-2.4202,-2.4202,-2.4202,-2.4202,-2.4202,-2.4202,-2.4202,-2.4202,-2.4202,-2.4202,-2.4202,-2.4202,-2.3129,-2.1038,-2.0936,-1.9753,0.0,0.0,0.0,0.0,0.0,0.0,0.0,0.0,0.0,0.0,0.0,0.0,0.0,0.0,0.0,0.0,0.0,0.0,0.0,0.0,0.0,0.0,0.0,0.0,0.0,0.0,0.0,0.0,0.0,0.0,-3.4466,-3.4088,-3.3988,-3.4262,-3.3845,-3.3813,-3.4097,-3.4558,-3.4856,0.0,-3.5493,-3.571,-3.571,-3.5412,-3.529,-3.5263,-3.4012,-3.352,-3.3407,-3.2215,-3.1705,-3.1705,-3.1705,-3.1705,-3.1705,-3.1705,-3.1705,-3.1705,-3.1705,-3.144,-3.1091,-3.1091,-2.9717,-2.8078,-2.8078,-2.6978,-2.5693,-2.5635,-2.5284,-2.4941,-2.5137,-2.5088,-2.4833,-2.4637,-2.4686,-2.4686,-2.4301,-2.4202,-2.4202,-2.4202,-2.4202,-2.4202,-2.4202,-2.4202,-2.4202,-2.4202,-2.4202,-2.4202,-2.4202,-2.4202,-2.4202,-2.4202,-2.4202,-2.4202,-2.4202,-2.4202,-2.4202,-2.4202,-2.4202,-2.4202,-2.4202,-2.4202,-2.4202,-2.4202,-2.4202,-2.4202,-2.4202,-2.4202,-2.3488,-2.2114,-2.1293,-2.0166,0.0,0.0,0.0,0.0,0.0,0.0,0.0,0.0,0.0,0.0,0.0,0.0,0.0,0.0,0.0,0.0,0.0,0.0,0.0,0.0,0.0,0.0,0.0,0.0,0.0,0.0,0.0,0.0,0.0,-3.4414,-3.4414,-3.4025,-3.3788,-3.3761,-3.3403,-3.3294,-3.3512,-3.3824,-3.4272,-3.4788,-3.51,-3.5398,-3.571,-3.571,-3.571,-3.5642,-3.4301,-3.3713,-3.3586,-3.2264,-3.1705,-3.1705,-3.1705,-3.1705,-3.1705,-3.1705,-3.1548,-3.1332,-3.1332,-3.0983,-3.0494,-3.0494,-2.9316,-2.7914,-2.7914,-2.6848,-2.5693,-2.5693,-2.5391,-2.5079,-2.5088,-2.4981,-2.4833,-2.4578,-2.4686,-2.4784,-2.4301,-2.4202,-2.4202,-2.4202,-2.4202,-2.4202,-2.4202,-2.4202,-2.4202,-2.4202,-2.4202,-2.4202,-2.4202,-2.4202,-2.4202,-2.4202,-2.4202,-2.4202,-2.4202,-2.4202,-2.4202,-2.4202,-2.4202,-2.4202,-2.4202,-2.4202,-2.4202,-2.4202,-2.4202,-2.4202,-2.4202,-2.4202,-2.3596,-2.2476,-2.1395,-2.0313,0.0,0.0,0.0,0.0,0.0,0.0,0.0,0.0,0.0,0.0,0.0,0.0,0.0,0.0,0.0,0.0,0.0,0.0,0.0,0.0,0.0,0.0,0.0,0.0,0.0,0.0,0.0,0.0,0.0,-3.4414,-3.4414,-3.4094,-3.3736,-3.3409,-3.3058,-3.2952,-3.3036,-3.3145,-3.3628,-3.4529,-3.4694,-3.51,-3.571,-3.571,-3.571,-3.5642,-3.4301,-3.3713,-3.3586,-3.2264,-3.1705,-3.1705,-3.1609,-3.1573,-3.156,-3.1476,-3.1151,-3.0735,-3.0735,-3.0398,-2.9953,-2.9953,-2.91,-2.7974,-2.7794,-2.6915,-2.5917,-2.5732,-2.5489,-2.5235,-2.499,-2.4883,-2.4833,-2.4538,-2.4637,-2.4735,-2.435,-2.4202,-2.4202,-2.4202,-2.4202,-2.4202,-2.4202,-2.4202,-2.4202,-2.4202,-2.4202,-2.4202,-2.4202,-2.4202,-2.4202,-2.4202,-2.4202,-2.4202,-2.4202,-2.4202,-2.4202,-2.4202,-2.4202,-2.4202,-2.4202,-2.4202,-2.4202,-2.4202,-2.4202,-2.4202,-2.4202,-2.4202,-2.3696,-2.2778,-2.1497,-2.0364,0.0,0.0,0.0,0.0,0.0,0.0,0.0,0.0,0.0,0.0,0.0,0.0,0.0,0.0,0.0,0.0,0.0,0.0,0.0,0.0,0.0,0.0,0.0,0.0,0.0,0.0,0.0,0.0,-3.4414,-3.4414,-3.4414,-3.4346,-3.4128,-3.3736,-3.3667,-3.3347,-3.2756,-3.3266,-3.344,-3.3346,-3.4339,-3.51,-3.571,-3.571,-3.571,-3.5642,-3.4301,-3.3713,-3.3586,-3.2264,-3.1705,-3.1657,-3.1199,-3.1019,-3.097,-3.0513,-3.0254,-3.0194,-3.0194,-2.9845,-2.94,-2.94,-2.9014,-2.8324,-2.7481,-2.7105,-2.6829,-2.5965,-2.5489,-2.5235,-2.499,-2.4883,-2.4784,-2.435,-2.439,-2.4529,-2.4489,-2.4341,-2.4202,-2.4202,-2.4202,-2.4202,-2.4202,-2.4202,-2.4202,-2.4202,-2.4202,-2.4202,-2.4202,-2.4202,-2.4202,-2.4202,-2.4202,-2.4202,-2.4202,-2.4202,-2.4202,-2.4202,-2.4202,-2.4202,-2.4202,-2.4202,-2.4202,-2.4202,-2.4202,-2.4202,-2.4202,-2.4202,-2.4102,-2.3895,-2.1853,-2.0834,0.0,0.0,0.0,0.0,0.0,0.0,0.0,0.0,0.0,0.0,0.0,0.0,0.0,0.0,0.0,0.0,0.0,0.0,0.0,0.0,0.0,0.0,0.0,0.0,0.0,0.0,0.0,0.0,-3.4414,-3.4414,-3.4414,-3.4414,-3.423,-3.3805,-3.3805,-3.3444,-3.2704,-3.2966,-3.3102,-3.3115,-3.4272,-3.4924,-3.5195,-3.5574,-3.571,-3.5642,-3.4301,-3.3713,-3.356,-3.1933,-3.1259,-3.1211,-3.0639,-3.0434,-3.0398,-3.017,-2.9893,-2.9641,-2.9641,-2.9304,-2.8859,-2.8859,-2.8715,-2.8407,-2.7382,-2.7144,-2.701,-2.5955,-2.5635,-2.544,-2.5186,-2.503,-2.4833,-2.4646,-2.4449,-2.4341,-2.4489,-2.4341,-2.4202,-2.4202,-2.4202,-2.4202,-2.4202,-2.4202,-2.4202,-2.4202,-2.4202,-2.4202,-2.4202,-2.4202,-2.4202,-2.4202,-2.4202,-2.4202,-2.4202,-2.4202,-2.4202,-2.4202,-2.4202,-2.4202,-2.4202,-2.4202,-2.4202,-2.4202,-2.4202,-2.4202,-2.4202,-2.4202,-2.4202,-2.4152,-2.2568,-2.1446,0.0,0.0,0.0,0.0,0.0,0.0,0.0,0.0,0.0,0.0,0.0,0.0,0.0,0.0,0.0,0.0,0.0,0.0,0.0,0.0,0.0,0.0,0.0,0.0,0.0,0.0,0.0,0.0,-3.4414,-3.4414,-3.4414,-3.4414,-3.4264,-3.3942,-3.3942,-3.3597,-3.2846,-3.2668,-3.2746,-3.3115,-3.4109,-3.4639,-3.4816,-3.5398,-3.571,-3.5629,-3.4468,-3.3804,-3.3385,-3.1785,-3.0955,-3.0627,-3.0098,-2.9893,-2.9869,-2.9737,-2.9436,-2.91,-2.91,-2.8835,-2.8534,-2.8667,-2.8811,-2.8775,-2.7657,-2.7422,-2.7332,-2.6052,-2.5693,-2.5635,-2.5391,-2.5088,-2.4883,-2.4833,-2.4489,-2.4251,-2.439,-2.4301,-2.4202,-2.4202,-2.4202,-2.4202,-2.4202,-2.4202,-2.4202,-2.4202,-2.4202,-2.4202,-2.4202,-2.4202,-2.4202,-2.4202,-2.4202,-2.4202,-2.4202,-2.4202,-2.4202,-2.4202,-2.4202,-2.4202,-2.4202,-2.4202,-2.4202,-2.4202,-2.4202,-2.4202,-2.4202,-2.4202,-2.4202,-2.4152,-2.3038,-2.2064,0.0,0.0,0.0,0.0,0.0,0.0,0.0,0.0,0.0,0.0,0.0,0.0,0.0,0.0,0.0,0.0,0.0,0.0,0.0,0.0,0.0,0.0,0.0,0.0,0.0,0.0,0.0,0.0,-3.4414,-3.4414,-3.4414,-3.4414,-3.438,-3.438,-3.438,-3.4025,-3.3269,-3.2588,-3.2504,-3.3115,-3.3702,-3.4246,-3.4816,-3.5398,-3.571,-3.5669,-3.4964,-3.3988,-3.2877,-3.216,-3.119,-3.0074,-2.9544,-2.934,-2.928,-2.8775,-2.857,-2.8546,-2.8546,-2.8534,-2.8595,-2.9088,-2.9587,-2.9735,-2.8288,-2.8231,-2.8215,-2.6235,-2.5693,-2.5635,-2.5391,-2.5088,-2.4833,-2.4578,-2.4341,-2.4202,-2.4202,-2.4202,-2.4202,-2.4202,-2.4202,-2.4202,-2.4202,-2.4202,-2.4202,-2.4202,-2.4202,-2.4202,-2.4202,-2.4202,-2.4202,-2.4202,-2.4202,-2.4202,-2.4202,-2.4202,-2.4202,-2.4202,-2.4202,-2.4202,-2.4202,-2.4202,-2.4202,-2.4202,-2.4202,-2.4202,-2.4202,-2.4202,-2.4202,-2.4152,-2.3038,-2.2476,0.0,0.0,0.0,0.0,0.0,0.0,0.0,0.0,0.0,0.0,0.0,0.0,0.0,0.0,0.0,0.0,0.0,0.0,0.0,0.0,0.0,0.0,0.0,0.0,0.0,0.0,0.0,0.0,0.0,-3.4414,-3.4414,-3.4414,-3.4414,-3.4414,-3.4414,-3.4162,-3.3632,-3.2881,-3.2756,-3.3229,-3.3697,-3.4131,-3.4632,-3.5355,-3.571,-3.5669,-3.5005,-3.4016,-3.2813,-3.1326,-3.0301,-2.9532,-2.9003,-2.8799,-2.8775,-2.8582,-2.851,-2.851,-2.851,-2.851,-2.8595,-2.9124,-2.9653,-2.9832,-2.8366,-2.8252,-2.8262,-2.6294,-2.5693,-2.5684,-2.5586,-2.5333,-2.5039,-2.4587,-2.4341,-2.4202,-2.4202,-2.4202,-2.4202,-2.4202,-2.4202,-2.4202,-2.4202,-2.4202,-2.4202,-2.4202,-2.4202,-2.4202,-2.4202,-2.4202,-2.4202,-2.4202,-2.4202,-2.4202,-2.4202,-2.4202,-2.4202,-2.4202,-2.4202,-2.4202,-2.4202,-2.4202,-2.4202,-2.4202,-2.4202,-2.4202,-2.4202,-2.4202,-2.4202,-2.4202,-2.3795,-2.2828,-3.1317,0.0,0.0,0.0,0.0,0.0,0.0,0.0,0.0,0.0,0.0,0.0,0.0,0.0,0.0,0.0,0.0,0.0,0.0,0.0,0.0,0.0,0.0,0.0,0.0,0.0,0.0,0.0,0.0,0.0,-3.4414,-3.4414,-3.4414,-3.4414,-3.4264,-3.4147,-3.4051,-3.329,-3.3115,-3.3534,-3.385,-3.4173,-3.4506,-3.5239,-3.5654,-3.5629,-3.4758,-3.3693,-3.2506,-3.1042,-2.9871,-2.9003,-2.8643,-2.851,-2.851,-2.851,-2.851,-2.851,-2.851,-2.851,-2.8631,-2.9328,-2.9797,-2.9867,-2.8555,-2.8429,-2.8262,-2.6294,-2.5693,-2.5693,-2.5693,-2.5489,-2.5137,-2.4637,-2.439,-2.4301,-2.4202,-2.4202,-2.4202,-2.4202,-2.4202,-2.4202,-2.4202,-2.4202,-2.4202,-2.4202,-2.4202,-2.4202,-2.4202,-2.4202,-2.4202,-2.4202,-2.4202,-2.4202,-2.4202,-2.4202,-2.4202,-2.4202,-2.4202,-2.4202,-2.4202,-2.4202,-2.4202,-2.4202,-2.4202,-2.4202,-2.4202,-2.4202,-2.4202,-2.4202,-2.4202,-2.3029,0.0,0.0,0.0,0.0,0.0,0.0,0.0,0.0,0.0,0.0,0.0,0.0,0.0,0.0,0.0,0.0,0.0,0.0,0.0,0.0,0.0,0.0,0.0,0.0,0.0,0.0,0.0,0.0,-3.3928,-3.4414,-3.4414,-3.4414,-3.4414,-3.4414,-3.4025,-3.4065,-3.4595,-3.3728,-3.3555,-3.3993,-3.4151,-3.4292,-3.453,-3.5137,-3.5509,-3.5642,-3.4301,-3.3113,-3.2049,-3.1361,-3.0049,-2.851,-2.851,-2.851,-2.851,-2.851,-2.851,-2.851,-2.851,-2.851,-2.8679,-2.9725,-3.0074,-2.9927,-2.9014,-2.8716,-2.8308,-2.6284,-2.5732,-2.5693,-2.5693,-2.5489,-2.5186,-2.4637,-2.4529,-2.444,-2.4251,-2.4202,-2.4202,-2.4202,-2.4202,-2.4202,-2.4202,-2.4202,-2.4202,-2.4202,-2.4202,-2.4202,-2.4202,-2.4202,-2.4202,-2.4202,-2.4202,-2.4202,-2.4202,-2.4202,-2.4202,-2.4202,-2.4202,-2.4202,-2.4202,-2.4202,-2.4202,-2.4202,-2.4202,-2.4202,-2.4202,-2.4202,-2.4202,-2.4202,-2.4152,-2.297,-3.0953,0.0,0.0,0.0,0.0,0.0,0.0,0.0,0.0,0.0,0.0,0.0,0.0,0.0,0.0,0.0,0.0,0.0,0.0,0.0,0.0,0.0,0.0,0.0,0.0,0.0,0.0,0.0,-3.3928,-3.4414,-3.4414,-3.4414,-3.4414,-3.4414,-3.4312,-3.4298,-3.4452,-3.3942,-3.3874,-3.4283,-3.425,-3.4453,-3.4943,-3.5252,-3.5509,-3.5629,-3.4799,-3.376,-3.2557,-3.1013,-2.9625,-2.851,-2.851,-2.851,-2.851,-2.851,-2.851,-2.851,-2.851,-2.851,-2.8619,-2.9304,-2.9773,-2.9995,-2.9379,-2.8956,-2.8448,-2.7152,-2.6284,-2.5693,-2.5693,-2.5489,-2.5235,-2.5137,-2.4784,-2.448,-2.444,-2.4291,-2.4202,-2.4202,-2.4202,-2.4202,-2.4202,-2.4202,-2.4202,-2.4202,-2.4202,-2.4202,-2.4202,-2.4202,-2.4202,-2.4202,-2.4202,-2.4202,-2.4202,-2.4202,-2.4202,-2.4202,-2.4202,-2.4202,-2.4202,-2.4202,-2.4202,-2.4202,-2.4202,-2.4202,-2.4202,-2.4202,-2.4202,-2.4202,-2.3338,-2.2215,0.0,0.0,0.0,0.0,0.0,0.0,-3.2597,-3.2992,-3.2909,0.0,0.0,0.0,0.0,0.0,0.0,0.0,0.0,0.0,0.0,0.0,0.0,0.0,0.0,0.0,0.0,-3.2096,-3.3073,-3.2755,-3.3791,-3.4414,-3.4414,-3.4414,-3.4414,-3.4414,-3.4414,-3.4515,-3.4735,-3.4283,-3.4283,-3.4735,-3.4433,-3.4654,-3.5337,-3.5466,-3.569,-3.5965,-3.5237,-3.4155,-3.2787,-3.1199,-2.9869,-2.8823,-2.8595,-2.851,-2.851,-2.851,-2.851,-2.851,-2.851,-2.851,-2.8595,-2.9124,-2.9653,-3.0001,-2.9537,-2.9082,-2.8495,-2.7463,-2.6466,-2.5693,-2.5693,-2.5586,-2.544,-2.5342,-2.4981,-2.4637,-2.4529,-2.4341,-2.4202,-2.4202,-2.4202,-2.4202,-2.4202,-2.4202,-2.4202,-2.4202,-2.4202,-2.4202,-2.4202,-2.4202,-2.4202,-2.4202,-2.4202,-2.4202,-2.4202,-2.4202,-2.4202,-2.4202,-2.4202,-2.4202,-2.4202,-2.4202,-2.4202,-2.4202,-2.4202,-2.4202,-2.4202,-2.4202,-2.4202,-2.4152,-2.3038,-2.1912,0.0,0.0,0.0,0.0,-3.0778,0.0,-3.2042,-3.2399,-3.2374,0.0,0.0,0.0,0.0,0.0,0.0,0.0,0.0,0.0,0.0,0.0,0.0,0.0,0.0,0.0,-3.0113,-3.2051,-3.3052,-3.2412,-3.3618,-3.4414,-3.4414,-3.4414,-3.4414,-3.4414,-3.4414,-3.4635,-3.5103,-3.4635,-3.4635,-3.5103,-3.4635,-3.486,-3.5711,-3.5711,-3.5963,-3.6431,-3.579,-3.4577,-3.3001,-3.1852,-3.054,-2.9244,-2.8715,-2.851,-2.851,-2.851,-2.851,-2.851,-2.851,-2.851,-2.8595,-2.9063,-2.9605,-3.0043,-2.9599,-2.9128,-2.8448,-2.7332,-2.637,-2.5693,-2.5693,-2.5693,-2.5635,-2.5391,-2.5137,-2.4883,-2.4637,-2.439,-2.4251,-2.4251,-2.4202,-2.4202,-2.4202,-2.4202,-2.4202,-2.4202,-2.4202,-2.4202,-2.4202,-2.4202,-2.4202,-2.4202,-2.4202,-2.4202,-2.4202,-2.4202,-2.4202,-2.4202,-2.4202,-2.4202,-2.4202,-2.4202,-2.4202,-2.4202,-2.4202,-2.4202,-2.4202,-2.4202,-2.4202,-2.4152,-2.3038,-2.1912,0.0,0.0,0.0,0.0,-3.2327,0.0,-3.2438,-3.2159,-3.1525,0.0,0.0,0.0,0.0,0.0,0.0,0.0,0.0,0.0,0.0,0.0,0.0,0.0,0.0,0.0,-3.1649,-3.3171,-3.4113,-3.3977,-3.423,-3.4414,-3.4414,-3.4414,-3.4414,-3.4414,-3.4414,-3.4448,-3.4582,-3.4433,-3.4433,-3.4534,-3.4448,-3.486,-3.5711,-3.5711,-3.6136,-3.6875,-3.673,-3.5802,-3.4301,-3.3413,-3.1574,-2.9244,-2.8715,-2.851,-2.851,-2.851,-2.851,-2.851,-2.851,-2.851,-2.8522,-2.8631,-2.9304,-3.0068,-2.9983,-2.9358,-2.8308,-2.6514,-2.5868,-2.5693,-2.5693,-2.5693,-2.5693,-2.5635,-2.544,-2.5186,-2.5137,-2.4784,-2.444,-2.444,-2.4301,-2.4202,-2.4202,-2.4202,-2.4202,-2.4202,-2.4202,-2.4202,-2.4202,-2.4202,-2.4202,-2.4202,-2.4202,-2.4202,-2.4202,-2.4202,-2.4202,-2.4202,-2.4202,-2.4202,-2.4202,-2.4202,-2.4202,-2.4202,-2.4202,-2.4202,-2.4202,-2.4202,-2.4202,-2.4152,-2.3038,-2.1912,0.0,0.0,0.0,-3.2883,-3.2878,0.0,0.0,-3.2185,-3.1709,0.0,0.0,0.0,0.0,0.0,0.0,0.0,0.0,0.0,0.0,0.0,0.0,0.0,0.0,0.0,-3.1489,-3.2911,-3.3962,-3.438,-3.4414,-3.4414,-3.4414,-3.4414,-3.4414,-3.4414,-3.4668,-3.4787,-3.4787,-3.4787,-3.4787,-3.4802,-3.4534,-3.4964,-3.6,-3.6,-3.6484,-3.7303,-3.7303,-3.6308,-3.4665,-3.399,-3.2166,-2.9794,-2.9152,-2.8739,-2.851,-2.851,-2.851,-2.851,-2.851,-2.851,-2.851,-2.851,-2.9232,-3.0086,-3.0086,-2.9454,-2.8262,-2.6294,-2.5693,-2.5693,-2.5693,-2.5693,-2.5693,-2.5693,-2.5489,-2.5284,-2.5284,-2.4981,-2.4686,-2.4538,-2.444,-2.4341,-2.4202,-2.4202,-2.4202,-2.4202,-2.4202,-2.4202,-2.4202,-2.4202,-2.4202,-2.4202,-2.4202,-2.4202,-2.4202,-2.4202,-2.4202,-2.4202,-2.4202,-2.4202,-2.4202,-2.4202,-2.4202,-2.4202,-2.4202,-2.4202,-2.4202,-2.4202,-2.3895,-2.3338,-2.2215,-2.1089,0.0,0.0,0.0,0.0,0.0,-3.3337,0.0,0.0,0.0,0.0,0.0,0.0,0.0,0.0,0.0,0.0,0.0,0.0,0.0,0.0,0.0,0.0,0.0,0.0,-3.0924,-3.2181,-3.3368,-3.4317,-3.4114,-3.4085,-3.4366,-3.4414,-3.4414,-3.4414,-3.482,-3.5037,-3.5037,-3.5037,-3.5037,-3.5037,-3.4733,-3.5198,-3.6301,-3.6446,-3.6945,-3.7739,-3.7739,-3.6624,-3.4829,-3.4324,-3.2744,-3.0535,-2.9697,-2.902,-2.851,-2.851,-2.851,-2.851,-2.851,-2.851,-2.851,-2.851,-2.9232,-3.008,-2.9877,-2.9293,-2.8262,-2.6294,-2.5693,-2.5693,-2.5693,-2.5693,-2.5693,-2.5693,-2.5538,-2.5382,-2.5382,-2.5186,-2.4932,-2.4686,-2.4627,-2.4489,-2.4251,-2.4202,-2.4202,-2.4202,-2.4202,-2.4202,-2.4202,-2.4202,-2.4202,-2.4202,-2.4202,-2.4202,-2.4202,-2.4202,-2.4202,-2.4202,-2.4202,-2.4202,-2.4202,-2.4202,-2.4202,-2.4202,-2.4202,-2.4102,-2.3895,-2.3895,-2.3388,-2.2476,-2.1395,-2.0313,0.0,0.0,0.0,0.0,-3.4784,-3.4937,-3.3856,0.0,-3.2032,-3.0128,0.0,0.0,0.0,0.0,0.0,0.0,0.0,0.0,0.0,0.0,0.0,0.0,0.0,0.0,0.0,-3.1732,-3.2819,-3.4293,-3.3124,-3.2947,-3.4322,-3.4414,-3.4414,-3.4414,-3.4448,-3.4481,-3.4481,-3.4481,-3.4481,-3.4515,-3.5014,-3.5619,-3.633,-3.6925,-3.7527,-3.8127,-3.8127,-3.7116,-3.5453,-3.5035,-3.3542,-3.135,-3.0048,-2.9117,-2.851,-2.851,-2.851,-2.851,-2.851,-2.851,-2.851,-2.851,-2.9232,-2.9945,-2.9128,-2.8778,-2.8262,-2.6294,-2.5693,-2.5693,-2.5693,-2.5693,-2.5693,-2.5693,-2.5684,-2.5635,-2.5635,-2.544,-2.5235,-2.5235,-2.503,-2.4735,-2.4301,-2.4202,-2.4202,-2.4202,-2.4202,-2.4202,-2.4202,-2.4202,-2.4202,-2.4202,-2.4202,-2.4202,-2.4202,-2.4202,-2.4202,-2.4202,-2.4202,-2.4202,-2.4202,-2.4202,-2.4202,-2.4202,-2.4202,-2.3696,-2.2677,-2.2677,-2.2627,-2.2476,-2.1395,-2.0313,0.0,0.0,0.0,0.0,0.0,0.0,-3.3086,0.0,-3.1884,0.0,0.0,0.0,0.0,0.0,0.0,0.0,-2.5551,0.0,0.0,0.0,0.0,0.0,0.0,0.0,0.0,0.0,0.0,0.0,-3.3806,-3.3715,-3.4385,-3.4414,-3.4414,-3.4414,-3.4687,-3.4854,-3.4854,-3.5221,-3.5379,-3.5379,-3.5729,-3.6257,-3.6896,-3.7172,-3.7636,-3.8202,-3.8202,-3.7477,-3.6281,-3.5507,-3.4075,-3.2235,-3.1023,-3.0077,-2.9424,-2.9424,-2.9232,-2.9015,-2.9316,-2.922,-2.9076,-2.9689,-3.0182,-3.046,-2.976,-2.9143,-2.8402,-2.6972,-2.6149,-2.5693,-2.5693,-2.5693,-2.5693,-2.5693,-2.5693,-2.5693,-2.5693,-2.5586,-2.5489,-2.5333,-2.5186,-2.499,-2.444,-2.439,-2.4341,-2.4202,-2.4202,-2.4202,-2.4202,-2.4202,-2.4202,-2.4202,-2.4202,-2.4202,-2.4202,-2.4202,-2.4202,-2.4202,-2.4202,-2.4202,-2.4202,-2.4202,-2.4202,-2.4202,-2.4202,-2.3646,-2.2476,-2.2476,-2.1853,-2.057,-2.0107,-1.9332,-3.5218,0.0,0.0,0.0,0.0,0.0,0.0,0.0,0.0,0.0,0.0,0.0,0.0,0.0,0.0,0.0,0.0,-2.536,0.0,0.0,0.0,0.0,0.0,0.0,0.0,0.0,0.0,-3.4008,-3.3893,-3.3936,-3.4366,-3.4414,-3.4414,-3.4414,-3.4963,-3.5237,-3.5237,-3.5853,-3.6163,-3.6143,-3.6435,-3.6838,-3.7317,-3.7476,-3.7796,-3.8202,-3.8202,-3.772,-3.6819,-3.5749,-3.4441,-3.3018,-3.1864,-3.107,-3.0482,-3.0194,-2.9845,-2.9569,-2.9953,-2.9833,-2.9665,-3.0621,-3.0922,-3.079,-3.0335,-2.9521,-2.8495,-2.7463,-2.6466,-2.5693,-2.5693,-2.5693,-2.5693,-2.5693,-2.5693,-2.5693,-2.5693,-2.5693,-2.5635,-2.544,-2.5391,-2.5235,-2.4784,-2.4587,-2.444,-2.4251,-2.4251,-2.4251,-2.4202,-2.4251,-2.4251,-2.4202,-2.4202,-2.4202,-2.4202,-2.4202,-2.4202,-2.4202,-2.4202,-2.4202,-2.4202,-2.4202,-2.4202,-2.4202,-2.3895,-2.3179,-2.2064,-2.1751,-2.0621,-1.8767,-1.9072,-1.861,0.0,0.0,0.0,-3.4008,0.0,0.0,0.0,0.0,-3.1182,0.0,0.0,0.0,0.0,0.0,0.0,-2.4779,0.0,0.0,0.0,0.0,0.0,0.0,0.0,0.0,0.0,0.0,-3.0782,-3.3077,-3.2594,-3.2846,-3.4308,-3.4414,-3.4414,-3.4414,-3.5043,-3.5398,-3.5398,-3.5988,-3.6272,-3.6286,-3.6954,-3.7288,-3.7331,-3.7912,-3.8188,-3.8202,-3.8202,-3.772,-3.6819,-3.5749,-3.4678,-3.3551,-3.2413,-3.1857,-3.1536,-3.0458,-3.0074,-3.0062,-3.0074,-3.0074,-3.0158,-3.0699,-3.0922,-3.079,-3.0335,-2.9521,-2.8495,-2.7463,-2.6466,-2.5693,-2.5693,-2.5693,-2.5693,-2.5693,-2.5693,-2.5693,-2.5693,-2.5693,-2.5693,-2.5693,-2.5693,-2.5586,-2.5333,-2.4833,-2.444,-2.4251,-2.439,-2.444,-2.4251,-2.439,-2.444,-2.4202,-2.4202,-2.4202,-2.4202,-2.4202,-2.4202,-2.4202,-2.4202,-2.4202,-2.4202,-2.4202,-2.4202,-2.4202,-2.3138,-2.2013,-2.0936,-1.9849,-1.8767,-1.7687,-1.8715,-1.861,0.0,0.0,-3.5207,-3.3482,0.0,0.0,0.0,0.0,0.0,0.0,0.0,0.0,-2.7669,0.0,0.0,-2.5099,0.0,0.0,0.0,0.0,0.0,0.0,0.0,0.0,0.0,0.0,0.0,-3.2417,-3.3182,-3.3849,-3.4385,-3.4414,-3.4603,-3.5058,-3.529,-3.5595,-3.5981,-3.6635,-3.6968,-3.6983,-3.7607,-3.7897,-3.7912,-3.8115,-3.8202,-3.8202,-3.8202,-3.8037,-3.7644,-3.5989,-3.502,-3.4374,-3.2686,-3.1893,-3.1669,-3.1308,-3.0946,-3.0645,-3.0645,-3.0874,-3.1199,-3.138,-3.144,-3.1388,-3.1235,-3.0034,-2.8634,-2.8308,-2.6972,-2.5693,-2.5693,-2.5693,-2.5693,-2.5693,-2.5693,-2.5693,-2.5693,-2.5693,-2.5693,-2.5693,-2.5693,-2.5586,-2.5342,-2.5137,-2.4883,-2.444,-2.444,-2.4489,-2.439,-2.4587,-2.4686,-2.444,-2.439,-2.4341,-2.4202,-2.4202,-2.4202,-2.4202,-2.4202,-2.4202,-2.4202,-2.4202,-2.3845,-2.3088,-2.2677,-2.1599,-1.9797,-1.9383,-1.8662,-1.7635,-1.7996,-1.7943,-3.6685,-3.5934,0.0,-3.3338,-3.2711,0.0,-3.0945,0.0,-3.0778,0.0,0.0,0.0,0.0,0.0,0.0,0.0,0.0,0.0,0.0,-2.3389,0.0,0.0,0.0,0.0,0.0,0.0,-3.1276,-3.2417,-3.3402,-3.41,0.0,0.0,-3.4936,-3.5392,-3.5857,-3.6257,-3.6664,-3.7302,-3.7622,-3.7622,-3.8014,-3.8202,-3.8202,-3.8202,-3.8202,-3.8202,-3.8202,-3.8202,-3.8037,-3.6188,-3.5264,-3.4815,-3.2902,-3.1937,-3.1705,-3.1705,-3.1488,-3.1199,-3.1199,-3.1428,-3.1705,-3.1705,-3.1705,-3.1705,-3.1705,-3.0306,-2.868,-2.868,-2.7531,-2.6149,-2.5781,-2.5965,-2.6139,-2.5781,-2.5693,-2.5693,-2.5693,-2.5693,-2.5693,-2.5693,-2.5693,-2.5645,-2.5489,-2.5333,-2.5137,-2.4578,-2.4578,-2.4578,-2.439,-2.4686,-2.4784,-2.444,-2.444,-2.444,-2.4202,-2.4202,-2.4202,-2.4202,-2.4202,-2.4202,-2.4202,-2.3795,-2.3217,-2.2371,-2.1685,-2.0558,-1.906,-1.8762,-1.8304,-1.7582,-1.7582,-1.7582]},{"header":{"parameterUnit":"m.s-1","parameterCategory":1,"la1":30.6,"la2":29.2853,"lo1":-89.7004,"lo2":-87.6739,"dy":0.0162,"dx":0.0183,"nx":112,"ny":82,"refTime":"2023-07-05T06:00:00:Z","depth":0,"parameterNumber":3,"parameterNumberName":"V-component_of_WINDS"},"data":[0.0,0.0,0.0,0.0,0.0,0.0,0.0,0.0,0.0,0.0,0.0,0.0,0.0,0.0,0.0,0.0,0.0,0.0,0.0,0.0,0.0,0.0,0.0,0.0,0.0,0.0,0.0,0.0,0.0,0.0,0.0,0.0,0.0,0.0,0.0,0.0,0.0,0.0,0.0,0.0,0.0,0.0,0.0,0.0,0.0,0.0,0.0,0.0,0.0,0.0,0.0,0.0,0.0,0.0,0.0,0.0,0.0,0.0,0.0,0.0,0.0,0.0,0.0,0.0,0.0,0.0,0.0,0.0,0.0,0.0,0.0,0.0,0.0,0.0,0.0,0.0,0.0,0.0,0.0,0.0,0.0,0.0,0.0,0.0,0.0,0.0,0.0,0.0,0.0,0.0,-3.3328,-3.3206,-3.3926,-3.4414,-3.4414,-3.4501,-3.3795,-3.2003,0.0,0.0,0.0,0.0,0.0,0.0,0.0,0.0,0.0,0.0,0.0,0.0,0.0,0.0,0.0,0.0,0.0,0.0,0.0,0.0,0.0,0.0,0.0,0.0,0.0,0.0,0.0,0.0,0.0,0.0,0.0,0.0,0.0,0.0,0.0,0.0,0.0,0.0,0.0,0.0,0.0,0.0,0.0,0.0,0.0,0.0,0.0,0.0,0.0,0.0,0.0,0.0,0.0,0.0,0.0,0.0,0.0,0.0,0.0,0.0,0.0,0.0,0.0,0.0,0.0,0.0,0.0,0.0,0.0,0.0,0.0,0.0,0.0,0.0,0.0,0.0,0.0,0.0,0.0,0.0,0.0,0.0,0.0,0.0,0.0,0.0,0.0,0.0,0.0,0.0,0.0,0.0,0.0,0.0,0.0,0.0,0.0,0.0,0.0,0.0,0.0,0.0,0.0,0.0,-3.3353,-3.4108,-3.4298,-3.4414,-3.4414,-3.4938,-3.4688,-3.3379,0.0,0.0,0.0,0.0,0.0,0.0,0.0,0.0,0.0,0.0,0.0,0.0,0.0,0.0,0.0,0.0,0.0,0.0,0.0,0.0,0.0,0.0,0.0,0.0,0.0,0.0,0.0,0.0,0.0,0.0,0.0,0.0,0.0,0.0,0.0,0.0,0.0,0.0,0.0,0.0,0.0,0.0,0.0,0.0,0.0,0.0,0.0,0.0,0.0,0.0,0.0,0.0,0.0,0.0,0.0,0.0,0.0,0.0,0.0,0.0,0.0,0.0,0.0,0.0,0.0,0.0,0.0,0.0,0.0,0.0,0.0,0.0,0.0,0.0,0.0,0.0,0.0,0.0,0.0,0.0,0.0,0.0,0.0,0.0,0.0,0.0,0.0,0.0,0.0,0.0,0.0,0.0,0.0,0.0,0.0,0.0,0.0,0.0,0.0,0.0,0.0,0.0,0.0,-3.3861,-3.349,-3.4791,-3.4635,-3.4534,-3.4905,-3.5204,-3.4825,-3.3469,-3.4226,0.0,0.0,0.0,0.0,0.0,0.0,0.0,0.0,0.0,0.0,0.0,0.0,0.0,0.0,0.0,0.0,0.0,0.0,0.0,0.0,0.0,0.0,0.0,0.0,0.0,0.0,0.0,0.0,0.0,0.0,0.0,0.0,0.0,0.0,0.0,0.0,0.0,0.0,0.0,0.0,0.0,0.0,0.0,0.0,0.0,0.0,0.0,0.0,0.0,0.0,0.0,0.0,0.0,0.0,0.0,0.0,0.0,0.0,0.0,0.0,0.0,0.0,0.0,0.0,0.0,0.0,0.0,0.0,0.0,0.0,0.0,0.0,0.0,0.0,0.0,0.0,0.0,0.0,0.0,0.0,0.0,0.0,0.0,0.0,0.0,0.0,0.0,0.0,0.0,0.0,0.0,0.0,0.0,0.0,0.0,0.0,0.0,0.0,0.0,0.0,0.0,0.0,-3.4468,-3.4464,-3.5505,-3.5187,-3.5088,-3.5578,-3.577,-3.5263,-3.3776,-3.4786,0.0,0.0,0.0,0.0,0.0,0.0,0.0,0.0,0.0,0.0,0.0,0.0,0.0,0.0,0.0,0.0,0.0,0.0,0.0,0.0,0.0,0.0,0.0,0.0,0.0,0.0,0.0,0.0,0.0,0.0,0.0,0.0,0.0,0.0,0.0,0.0,0.0,0.0,0.0,0.0,0.0,0.0,0.0,0.0,0.0,0.0,0.0,0.0,0.0,0.0,0.0,0.0,0.0,0.0,0.0,0.0,0.0,0.0,0.0,0.0,0.0,0.0,0.0,0.0,0.0,0.0,0.0,0.0,0.0,0.0,0.0,0.0,0.0,0.0,0.0,0.0,0.0,0.0,0.0,0.0,0.0,0.0,0.0,0.0,0.0,0.0,0.0,0.0,0.0,0.0,0.0,0.0,0.0,0.0,0.0,0.0,0.0,0.0,0.0,0.0,0.0,0.0,-3.5732,-3.6903,-3.6368,-3.6291,-3.6291,-3.6322,-3.6906,-3.6668,-3.5247,-3.5203,0.0,0.0,0.0,0.0,0.0,0.0,0.0,0.0,0.0,0.0,0.0,0.0,0.0,0.0,0.0,0.0,0.0,0.0,0.0,0.0,0.0,0.0,0.0,0.0,0.0,0.0,0.0,0.0,0.0,0.0,0.0,0.0,0.0,0.0,0.0,0.0,0.0,0.0,0.0,0.0,0.0,0.0,0.0,0.0,0.0,0.0,0.0,0.0,0.0,0.0,0.0,0.0,0.0,0.0,0.0,0.0,0.0,0.0,0.0,0.0,0.0,0.0,0.0,0.0,0.0,0.0,0.0,0.0,0.0,0.0,0.0,0.0,0.0,0.0,0.0,0.0,0.0,0.0,0.0,0.0,0.0,0.0,0.0,0.0,0.0,0.0,0.0,0.0,0.0,0.0,0.0,0.0,0.0,0.0,0.0,0.0,0.0,0.0,0.0,0.0,0.0,0.0,-3.5936,-3.6527,0.0,-3.6646,-3.6569,-3.6996,-3.7252,-3.6771,-3.5326,0.0,0.0,0.0,0.0,0.0,0.0,0.0,0.0,0.0,0.0,0.0,0.0,0.0,0.0,0.0,0.0,0.0,0.0,0.0,0.0,0.0,0.0,0.0,0.0,0.0,0.0,0.0,0.0,0.0,0.0,0.0,0.0,0.0,0.0,0.0,0.0,0.0,0.0,0.0,0.0,0.0,0.0,0.0,0.0,0.0,0.0,0.0,0.0,0.0,0.0,0.0,0.0,0.0,0.0,0.0,0.0,0.0,0.0,0.0,0.0,0.0,0.0,0.0,0.0,0.0,0.0,0.0,0.0,0.0,0.0,0.0,0.0,0.0,0.0,0.0,0.0,0.0,0.0,0.0,0.0,0.0,0.0,0.0,0.0,0.0,0.0,0.0,0.0,0.0,0.0,0.0,0.0,0.0,0.0,0.0,0.0,0.0,0.0,0.0,0.0,0.0,0.0,-3.5605,-3.6222,-3.6866,0.0,-3.7296,-3.7237,-3.7682,-3.7727,-3.699,-3.5315,0.0,0.0,0.0,0.0,0.0,0.0,0.0,0.0,0.0,0.0,0.0,0.0,0.0,0.0,0.0,0.0,0.0,0.0,0.0,0.0,0.0,0.0,0.0,0.0,0.0,0.0,0.0,0.0,0.0,0.0,0.0,0.0,0.0,0.0,0.0,0.0,0.0,0.0,0.0,0.0,0.0,0.0,0.0,0.0,0.0,0.0,0.0,0.0,0.0,0.0,0.0,0.0,0.0,0.0,0.0,0.0,0.0,0.0,0.0,0.0,0.0,0.0,0.0,0.0,0.0,0.0,0.0,0.0,0.0,0.0,0.0,0.0,0.0,0.0,0.0,0.0,0.0,0.0,0.0,0.0,0.0,0.0,0.0,0.0,0.0,0.0,0.0,0.0,0.0,0.0,0.0,0.0,0.0,0.0,0.0,0.0,0.0,0.0,0.0,0.0,0.0,0.0,-3.4397,-3.6717,-3.8391,-3.8391,-3.8391,-3.8391,-3.8391,-3.8391,-3.7469,0.0,0.0,0.0,0.0,0.0,0.0,0.0,0.0,0.0,0.0,0.0,0.0,0.0,0.0,0.0,0.0,0.0,0.0,0.0,0.0,0.0,0.0,0.0,0.0,0.0,0.0,0.0,0.0,0.0,0.0,0.0,0.0,0.0,0.0,0.0,0.0,0.0,0.0,0.0,0.0,0.0,0.0,0.0,0.0,0.0,0.0,0.0,0.0,0.0,0.0,0.0,0.0,0.0,0.0,0.0,0.0,0.0,0.0,0.0,0.0,0.0,0.0,0.0,0.0,0.0,0.0,0.0,0.0,0.0,0.0,0.0,0.0,0.0,0.0,0.0,0.0,0.0,0.0,0.0,0.0,0.0,0.0,0.0,0.0,0.0,0.0,0.0,0.0,0.0,0.0,0.0,0.0,0.0,0.0,0.0,0.0,0.0,0.0,0.0,0.0,0.0,0.0,0.0,-3.4961,-3.6966,-3.8391,-3.8391,-3.8391,-3.8391,-3.8391,-3.8391,-3.7258,-3.4586,0.0,0.0,0.0,0.0,0.0,0.0,0.0,0.0,0.0,0.0,0.0,0.0,0.0,0.0,0.0,0.0,0.0,0.0,0.0,0.0,0.0,0.0,0.0,0.0,0.0,0.0,0.0,0.0,0.0,0.0,0.0,0.0,0.0,0.0,0.0,0.0,0.0,0.0,0.0,0.0,0.0,0.0,0.0,0.0,0.0,0.0,0.0,0.0,0.0,0.0,0.0,0.0,0.0,0.0,0.0,0.0,0.0,0.0,0.0,0.0,0.0,0.0,0.0,0.0,0.0,0.0,0.0,0.0,0.0,0.0,0.0,0.0,0.0,0.0,0.0,0.0,0.0,0.0,0.0,0.0,0.0,0.0,0.0,0.0,0.0,0.0,0.0,0.0,0.0,0.0,0.0,0.0,0.0,0.0,0.0,0.0,0.0,0.0,0.0,0.0,0.0,0.0,-3.4748,-3.6886,-3.8391,-3.8391,-3.8391,-3.8391,-3.8391,-3.8391,-3.742,-3.5121,0.0,0.0,0.0,0.0,0.0,0.0,0.0,0.0,0.0,0.0,0.0,0.0,0.0,0.0,0.0,0.0,0.0,0.0,0.0,0.0,0.0,0.0,0.0,0.0,0.0,0.0,0.0,0.0,0.0,0.0,0.0,0.0,0.0,0.0,0.0,0.0,0.0,0.0,0.0,0.0,0.0,0.0,0.0,0.0,0.0,0.0,0.0,0.0,0.0,0.0,0.0,0.0,0.0,0.0,0.0,0.0,0.0,0.0,0.0,0.0,0.0,0.0,0.0,0.0,0.0,0.0,0.0,0.0,0.0,0.0,0.0,0.0,0.0,0.0,0.0,0.0,0.0,0.0,0.0,0.0,0.0,0.0,0.0,0.0,0.0,0.0,0.0,0.0,0.0,0.0,0.0,0.0,0.0,0.0,0.0,0.0,0.0,0.0,0.0,0.0,0.0,0.0,-3.4101,-3.6627,-3.8391,-3.8391,-3.8391,-3.8391,-3.8391,-3.842,-3.7848,-3.6437,0.0,0.0,0.0,0.0,0.0,0.0,0.0,0.0,0.0,0.0,0.0,0.0,0.0,0.0,0.0,0.0,0.0,0.0,0.0,0.0,0.0,0.0,0.0,0.0,0.0,0.0,0.0,0.0,0.0,0.0,0.0,0.0,0.0,0.0,0.0,0.0,0.0,0.0,0.0,0.0,0.0,0.0,0.0,0.0,0.0,0.0,0.0,0.0,0.0,0.0,0.0,0.0,0.0,0.0,0.0,0.0,0.0,0.0,0.0,0.0,-3.1205,0.0,0.0,0.0,0.0,0.0,0.0,0.0,0.0,0.0,0.0,0.0,0.0,0.0,0.0,0.0,0.0,0.0,0.0,0.0,0.0,0.0,0.0,0.0,0.0,0.0,0.0,0.0,0.0,0.0,0.0,0.0,0.0,0.0,0.0,0.0,0.0,0.0,0.0,0.0,0.0,0.0,-3.4101,-3.6627,-3.8391,-3.8391,-3.8391,-3.8391,-3.8391,-3.8683,-3.828,-3.6861,-3.6779,0.0,0.0,0.0,0.0,0.0,0.0,0.0,0.0,0.0,0.0,0.0,0.0,0.0,0.0,0.0,0.0,0.0,0.0,0.0,0.0,0.0,0.0,0.0,0.0,0.0,0.0,0.0,0.0,0.0,0.0,0.0,0.0,0.0,0.0,0.0,0.0,0.0,0.0,0.0,0.0,0.0,0.0,0.0,0.0,0.0,0.0,0.0,0.0,0.0,0.0,0.0,0.0,0.0,0.0,0.0,0.0,0.0,0.0,0.0,0.0,-3.1456,0.0,0.0,0.0,0.0,0.0,0.0,0.0,0.0,0.0,0.0,0.0,0.0,0.0,0.0,0.0,0.0,0.0,0.0,0.0,0.0,0.0,0.0,0.0,0.0,0.0,0.0,0.0,0.0,0.0,0.0,0.0,0.0,0.0,0.0,0.0,0.0,0.0,0.0,0.0,0.0,-3.4101,-3.6627,-3.8391,-3.8391,-3.8391,-3.8476,-3.8655,-3.886,-3.8774,-3.8233,-3.7745,0.0,0.0,0.0,0.0,0.0,0.0,0.0,0.0,0.0,0.0,0.0,0.0,0.0,0.0,0.0,0.0,0.0,0.0,0.0,0.0,0.0,0.0,0.0,0.0,0.0,0.0,0.0,0.0,0.0,0.0,0.0,0.0,0.0,0.0,0.0,0.0,0.0,0.0,0.0,0.0,0.0,0.0,0.0,0.0,0.0,0.0,0.0,0.0,0.0,0.0,0.0,0.0,0.0,-3.3079,-3.3074,-3.3216,-3.2975,-3.3187,-3.3802,-3.3419,-3.3052,-3.262,-3.1279,0.0,0.0,0.0,0.0,0.0,0.0,0.0,0.0,0.0,0.0,0.0,0.0,0.0,0.0,0.0,0.0,0.0,0.0,0.0,0.0,0.0,0.0,0.0,0.0,-3.6891,-3.7134,-3.6583,0.0,0.0,0.0,0.0,0.0,0.0,0.0,0.0,0.0,0.0,0.0,-3.4542,-3.6864,-3.8532,-3.86,-3.86,-3.8722,-3.9077,-3.9185,-3.9382,-3.9688,-3.8689,-3.7971,0.0,0.0,0.0,0.0,0.0,0.0,0.0,0.0,0.0,0.0,0.0,0.0,0.0,0.0,0.0,0.0,0.0,0.0,0.0,0.0,0.0,0.0,0.0,0.0,0.0,0.0,0.0,0.0,0.0,0.0,0.0,0.0,-3.4638,-3.3743,0.0,0.0,0.0,0.0,0.0,0.0,0.0,0.0,0.0,0.0,0.0,0.0,0.0,-3.3041,-3.3035,-3.3422,-3.3636,-3.3636,-3.3977,-3.4186,-3.422,-3.4167,-3.4211,-3.4317,-3.423,0.0,-3.2677,-3.246,0.0,0.0,0.0,0.0,0.0,0.0,0.0,0.0,0.0,0.0,0.0,0.0,0.0,0.0,0.0,0.0,0.0,0.0,0.0,0.0,0.0,0.0,-3.7841,-3.7279,-3.7231,-3.7263,0.0,-3.6206,-3.5056,-3.4149,-3.3971,0.0,0.0,0.0,0.0,0.0,0.0,0.0,-3.6328,-3.7923,-3.9034,-3.9401,-3.9454,-3.9454,-3.9532,-3.9876,-4.0138,-4.0213,-4.037,-3.9904,-3.8686,-3.8597,0.0,0.0,0.0,0.0,0.0,0.0,0.0,0.0,0.0,0.0,0.0,0.0,0.0,0.0,0.0,0.0,0.0,0.0,0.0,0.0,0.0,0.0,0.0,0.0,0.0,0.0,0.0,0.0,0.0,-3.3629,-3.3126,-3.3377,-3.2751,-3.2199,0.0,0.0,0.0,0.0,0.0,0.0,0.0,0.0,0.0,-3.3392,-3.3456,-3.3583,-3.3769,-3.3981,-3.4078,-3.4093,-3.4302,-3.4414,-3.4414,-3.4414,-3.4414,-3.4414,-3.4414,-3.4332,-3.4184,-3.352,-3.2661,-3.1761,0.0,0.0,0.0,0.0,-3.3156,-3.3894,-3.569,-3.6669,0.0,-3.5899,0.0,0.0,0.0,0.0,0.0,0.0,0.0,0.0,0.0,0.0,-3.6707,-3.7209,-3.763,-3.7922,-3.7922,-3.7436,-3.6659,0.0,-3.4667,-3.355,-3.181,0.0,0.0,0.0,0.0,-3.6324,-3.7128,-3.8467,-3.9401,-3.9568,-3.961,-3.9714,-3.9978,-4.0188,-4.0404,-4.0607,-4.0799,-4.0625,-4.0014,-3.961,-3.8811,0.0,0.0,0.0,0.0,0.0,0.0,0.0,0.0,0.0,0.0,0.0,0.0,0.0,0.0,0.0,0.0,0.0,0.0,0.0,0.0,0.0,0.0,0.0,0.0,0.0,0.0,0.0,0.0,-3.34,-3.2946,-3.3254,-3.2931,-3.2465,0.0,0.0,0.0,0.0,0.0,0.0,-3.3176,-3.3191,-3.3375,-3.3857,-3.3886,-3.3966,-3.4167,-3.4167,-3.408,-3.3902,-3.3902,-3.3902,-3.3902,-3.3902,-3.3987,-3.4138,-3.4138,-3.4502,-3.5068,-3.4405,-3.4061,-3.3923,-3.3572,-3.3266,-3.317,-3.4537,-3.5033,-3.5262,-3.6886,-3.746,-3.7281,-3.6176,-3.5513,-3.5072,-3.4453,0.0,0.0,0.0,0.0,-3.4117,-3.4975,-3.5606,-3.6222,-3.7112,-3.7728,-3.8144,-3.824,-3.7991,-3.7508,0.0,-3.5896,-3.4861,-3.325,0.0,0.0,0.0,0.0,-3.7666,-3.8151,-3.9135,-3.9833,-3.9919,-3.9919,-4.0062,-4.0412,-4.0436,-4.0583,-4.0871,-4.0912,-4.0912,-4.0912,-4.0429,-3.9974,-3.9638,0.0,0.0,0.0,0.0,0.0,0.0,0.0,0.0,0.0,0.0,0.0,0.0,0.0,0.0,0.0,0.0,0.0,0.0,0.0,0.0,0.0,0.0,0.0,0.0,0.0,0.0,0.0,0.0,0.0,-3.3713,-3.4395,0.0,0.0,0.0,0.0,-3.2928,-3.2989,-3.3206,-3.3648,-3.3677,-3.3886,-3.4341,-3.4356,-3.4095,-3.3547,-3.3547,-3.3209,-3.2582,-3.2582,-3.2582,-3.2582,-3.2582,-3.2903,-3.3452,-3.3452,-3.3804,-3.4421,-3.507,-3.5063,-3.4661,-3.4612,-3.3945,-3.3233,-3.5013,-3.566,-3.581,-3.6927,-3.7323,-3.6983,-3.4878,-3.3307,-3.2449,-3.3728,-3.3647,0.0,0.0,-3.559,-3.6448,-3.7825,-3.8213,-3.8084,-3.7469,-3.7328,-3.7465,-3.7847,-3.6865,-3.6179,0.0,-3.8074,-3.8091,-3.5959,0.0,-3.7325,-3.7257,-3.7399,-3.8151,-3.9925,-4.0229,-4.0412,-4.0799,-4.0823,-4.0847,-4.0864,-4.0864,-4.0888,-4.0912,-4.0912,-4.0912,-4.0912,-4.086,-4.0216,-3.8876,-3.8789,0.0,0.0,0.0,0.0,0.0,0.0,0.0,0.0,0.0,0.0,0.0,0.0,0.0,0.0,0.0,0.0,0.0,0.0,0.0,0.0,0.0,0.0,0.0,0.0,0.0,0.0,0.0,0.0,-3.397,-3.447,0.0,-3.3125,-3.3164,-3.3334,-3.3448,-3.3714,-3.3809,-3.3587,-3.3587,-3.3449,-3.3209,-3.3162,-3.3079,-3.2861,-3.2861,-3.2745,-3.2527,-3.2933,-3.3122,-3.3151,-3.3558,-3.3831,-3.4064,-3.4488,-3.5059,-3.5722,-3.6399,-3.6035,-3.5134,-3.5558,-3.5491,-3.5187,-3.5851,-3.6099,-3.6158,-3.6524,-3.6923,-3.7231,-3.6967,-3.6529,-3.6206,-3.6724,-3.6691,-3.6513,-3.6546,-3.6756,-3.6939,-3.7031,-3.7371,-3.7686,-3.7692,-3.8041,-3.8493,-3.8913,-3.8602,-3.836,-3.8709,-3.8382,-3.7794,-3.7036,-3.8244,-3.8979,-3.8028,-3.8915,-3.9942,-4.0587,-4.0697,-4.0728,-4.0871,-4.0912,-4.0912,-4.0912,-4.0912,-4.0912,-4.0912,-4.0912,-4.0912,-4.0912,-4.0912,-4.0676,-4.0147,-4.0147,-3.9131,0.0,0.0,0.0,0.0,0.0,0.0,0.0,0.0,0.0,0.0,0.0,0.0,0.0,0.0,0.0,0.0,0.0,0.0,0.0,0.0,0.0,0.0,0.0,0.0,0.0,0.0,-3.5167,-3.3819,-3.442,-3.4485,-3.3355,-3.3343,-3.3474,-3.354,-3.3678,-3.3554,-3.31,-3.3151,-3.305,-3.2846,-3.2846,-3.2846,-3.2846,-3.2846,-3.273,-3.2527,-3.2948,-3.3151,-3.3184,-3.382,-3.4206,-3.4451,-3.512,-3.5783,-3.6397,-3.6838,-3.6485,-3.5744,-3.6641,-3.7015,-3.7015,-3.7015,-3.7015,-3.6983,-3.6724,-3.6761,-3.7036,-3.7533,-3.7695,-3.7695,-3.7695,-3.7857,-3.7938,-3.7425,-3.7501,-3.761,-3.7275,-3.7557,-3.7976,-3.8381,-3.8841,-3.9312,-3.9731,-3.9833,-3.9885,-3.9995,-3.9184,-3.8435,-3.8435,-3.96,-4.0021,-3.8597,-3.9818,-4.0745,-4.0274,-4.0607,-4.0912,-4.0912,-4.0912,-4.0912,-4.0912,-4.0492,-4.0429,-4.0877,-4.0475,-4.0423,-4.0877,-4.0435,-4.0182,-4.0182,-4.0325,-3.9521,-3.7785,0.0,0.0,0.0,0.0,0.0,0.0,0.0,0.0,0.0,0.0,0.0,0.0,0.0,0.0,0.0,0.0,0.0,0.0,0.0,0.0,0.0,0.0,0.0,-3.5068,-3.5645,-3.5453,-3.3373,-3.448,-3.4969,-3.3812,-3.3215,-3.2982,-3.3163,-3.2746,-3.2445,-3.232,-3.2445,-3.2817,-3.346,-3.3474,-3.3474,-3.3474,-3.3474,-3.3122,-3.2481,-3.2542,-3.2573,-3.2573,-3.3268,-3.3895,-3.4505,-3.5169,-3.5787,-3.6341,-3.6367,-3.6367,-3.6497,-3.7825,-3.8327,-3.8327,-3.8327,-3.8327,-3.8246,-3.7549,-3.6858,-3.6351,-3.6367,-3.6367,-3.6367,-3.6367,-3.6837,-3.7328,-3.7328,-3.7857,-3.8476,-3.8887,-3.8996,-3.9104,-3.9532,-3.9636,-3.974,-4.0213,-4.033,-4.0436,-4.0823,-4.06,-4.033,-4.033,-4.0631,-4.0458,-3.915,-4.0078,0.0,-3.9133,-4.0089,-4.0877,-4.0843,-4.0843,-4.0843,-4.0825,-3.9656,-3.947,-4.0808,-3.9673,-3.9557,-4.0843,-3.9588,-3.8876,-3.8881,-3.9245,-3.9642,-4.0106,0.0,0.0,0.0,0.0,0.0,0.0,0.0,0.0,0.0,0.0,0.0,0.0,0.0,0.0,0.0,0.0,0.0,0.0,0.0,0.0,0.0,0.0,-3.6637,-3.649,-3.6806,-3.6742,-3.5922,-3.5737,-3.517,-3.3833,-3.3299,-3.2829,-3.237,-3.2741,-3.2731,-3.2108,-3.2688,-3.2869,-3.2562,-3.2547,-3.2645,-3.2774,-3.2774,-3.2687,-3.2527,-3.3431,-3.3877,-3.3923,-3.5092,-3.5677,-3.5906,-3.6568,-3.6936,-3.7125,-3.7613,-3.7825,-3.776,-3.7128,-3.6886,-3.6886,-3.6886,-3.6886,-3.6934,-3.7198,-3.7166,-3.7128,-3.7647,-3.7825,-3.7825,-3.7825,-3.7954,-3.81,-3.81,-3.8246,-3.8476,-3.8887,-3.8996,-3.9185,-3.9944,-4.0121,-4.0221,-4.0631,-4.0745,-4.0752,-4.0888,-4.0799,-4.0745,-4.0745,-4.084,-4.078,-4.0412,-4.0659,0.0,-4.0412,-4.0676,-4.0504,-3.9507,-3.943,-3.943,-3.9368,-3.9076,-3.947,-4.0808,-4.0562,-4.051,-4.0877,-4.0521,-4.0464,-4.0744,-4.0208,-3.9973,0.0,0.0,0.0,0.0,0.0,0.0,0.0,0.0,0.0,0.0,0.0,0.0,0.0,0.0,0.0,0.0,0.0,0.0,0.0,0.0,0.0,0.0,-3.6361,-3.6861,-3.7179,-3.734,-3.7098,-3.6229,-3.5645,-3.4972,-3.4076,-3.3265,-3.2747,-3.2648,-3.2633,-3.2434,-3.1899,-3.2456,-3.2713,-3.2612,-3.271,-3.2905,-3.3278,-3.3212,-3.3212,-3.3311,-3.3958,-3.4463,-3.4848,-3.592,-3.6538,-3.686,-3.7535,-3.7815,-3.7844,-3.825,-3.8391,0.0,0.0,0.0,0.0,0.0,-3.7193,-3.7242,-3.763,-3.7776,-3.7841,-3.8262,-3.8391,-3.8391,-3.8391,-3.8391,-3.8391,-3.8391,-3.8532,-3.8738,-3.9142,-3.9408,-3.9713,-4.0387,-4.0534,-4.0624,-4.0847,-4.0912,-4.0912,-4.0912,-4.0912,0.0,-4.0912,-4.0912,-4.0711,-4.0141,-4.0544,-4.0694,-4.0124,-4.0562,-4.059,-3.9778,-3.9697,-3.972,-3.9674,-3.9215,0.0,0.0,0.0,-4.0055,-4.0032,-4.0179,0.0,0.0,0.0,-4.0745,-4.1524,0.0,0.0,0.0,-4.0109,-4.0129,0.0,0.0,0.0,0.0,0.0,0.0,0.0,0.0,0.0,0.0,0.0,0.0,0.0,0.0,0.0,0.0,-3.6622,-3.7075,-3.7268,-3.7328,-3.6839,-3.5416,-3.5002,-3.4739,-3.4457,-3.3279,-3.2748,-3.3311,-3.2499,-3.1919,-3.1787,0.0,0.0,0.0,0.0,-3.3781,-3.4346,-3.4162,-3.4196,-3.438,-3.4283,-3.4691,-3.5546,-3.6197,-3.689,-3.7535,-3.8148,-3.8391,-3.8391,-3.8391,-3.8391,-3.8391,-3.8391,-3.8391,-3.8391,-3.8391,-3.8391,-3.8391,-3.8391,0.0,0.0,-3.8391,-3.8391,-3.8391,-3.8391,-3.8391,-3.8391,-3.8391,-3.8683,-3.9088,-3.9506,-3.9952,-4.0387,-4.0799,-4.0912,-4.0912,-4.0912,-4.0912,-4.0912,-4.0912,-4.0912,-4.0912,-4.0912,-4.0912,-4.0492,-3.9302,-4.0141,-4.0458,-3.9267,-4.0158,-4.0843,-4.0694,0.0,0.0,-4.0676,-3.9569,-3.9492,-4.0861,-3.9907,-3.9247,-3.9203,-3.9578,-3.9988,-4.0413,-4.0799,-4.1843,-4.3515,-4.3515,-4.3515,-4.3442,-4.0816,-4.0546,0.0,0.0,0.0,0.0,0.0,0.0,0.0,0.0,0.0,0.0,0.0,0.0,0.0,0.0,0.0,-3.5775,-3.6487,-3.6908,-3.6693,-3.6923,-3.6952,-3.666,-3.6072,-3.5415,-3.477,-3.3813,-3.3018,-3.259,-3.2539,-3.2466,-3.2283,-3.2933,-3.3397,-3.3525,-3.3559,-3.3719,-3.3985,-3.4074,-3.4128,-3.4162,0.0,0.0,-3.6228,-3.689,-3.7565,-3.8205,-3.8335,-3.8391,-3.8391,-3.8391,-3.8391,-3.8391,-3.8391,-3.8391,-3.8391,-3.8391,-3.8391,-3.8391,-3.8391,-3.8391,-3.8391,-3.8391,-3.8391,-3.8391,-3.8391,-3.8391,0.0,-3.8391,-3.8683,-3.9088,-3.9506,-3.9952,-4.0387,-4.0799,-4.0912,-4.0912,-4.0912,-4.0912,-4.0912,-4.0912,-4.0912,-4.0912,-4.0912,-4.0912,-4.0808,-4.0562,-4.0745,-4.0808,-4.0562,-4.0745,-4.0452,-3.9334,-3.9262,-3.9262,-3.9217,-3.9007,-3.9608,-4.1291,-4.1513,-4.1564,-4.1526,-4.197,-4.226,-4.2373,-4.2758,-4.3133,-4.3515,-4.3515,-4.3515,-4.3496,-4.2916,-4.3191,0.0,0.0,0.0,0.0,0.0,0.0,0.0,0.0,0.0,0.0,0.0,-3.4974,0.0,0.0,-3.5795,-3.6044,-3.6461,-3.6677,-3.6523,-3.6647,-3.6631,-3.629,-3.5918,-3.5551,-3.5187,-3.4236,-3.3642,-3.3594,-3.3211,-3.2966,-3.2862,-3.3331,-3.3605,-3.3605,-3.3709,-3.3848,-3.4005,-3.3902,-3.3922,-3.4094,-3.4486,-3.519,-3.626,-3.6692,-3.746,-3.8391,-3.8391,-3.8391,-3.8391,-3.8391,-3.8391,-3.8391,-3.8391,-3.8391,-3.8391,-3.8391,-3.8391,-3.8391,-3.8391,-3.8391,-3.8391,-3.8391,-3.8391,-3.8391,-3.8391,-3.8391,-3.8391,-3.8391,-3.8832,-3.9365,-3.9558,-4.0104,-4.0631,-4.0847,-4.0912,-4.0912,-4.0912,-4.0912,-4.0912,-4.0912,-4.0912,-4.0912,-4.0912,-4.0912,-4.0912,-4.0912,-4.0912,-4.0912,-4.0912,-4.0912,-4.0642,-3.9928,-3.9887,-3.9887,-3.9842,-4.0073,-4.0661,-4.1768,-4.2074,-4.2198,-4.2198,-4.2653,-4.2901,-4.2901,-4.3304,-4.3515,-4.3515,-4.3515,-4.3515,-4.3515,-4.3515,-4.414,0.0,0.0,0.0,0.0,0.0,0.0,0.0,0.0,-3.6255,-3.6123,-3.5714,-3.5471,-3.5794,-3.5842,-3.5997,-3.643,-3.6492,-3.6492,-3.6492,-3.6492,-3.6292,-3.5753,-3.5676,-3.5676,-3.5676,-3.4731,-3.4316,-3.4846,-3.3908,-3.329,-3.329,-3.3466,-3.3536,-3.3536,-3.3709,-3.3848,-3.3922,-3.3709,-3.3744,-3.3991,-3.3917,-3.4606,-3.5883,-3.6213,-3.7011,-3.8148,-3.8335,-3.8391,-3.8391,-3.8391,-3.8391,-3.8391,-3.8391,-3.8391,-3.8391,-3.8391,-3.8391,-3.8391,-3.8391,-3.8391,-3.8391,-3.8391,-3.8391,-3.8391,-3.8391,-3.8391,-3.8391,-3.8391,-3.898,-3.961,-3.961,-4.0237,-4.0912,-4.0912,-4.0912,-4.0912,-4.0912,-4.0912,-4.0912,-4.0912,-4.0912,-4.0912,-4.0912,-4.0912,-4.0912,-4.0912,-4.0912,-4.0912,-4.0912,-4.0912,-4.0912,-4.0912,-4.0912,-4.0918,-4.0995,-4.1396,-4.1842,-4.2318,-4.2418,-4.244,-4.244,-4.2807,-4.3031,-4.3031,-4.3339,-4.3515,-4.3515,-4.3515,-4.3515,-4.3515,-4.3515,-4.436,-3.65,-3.6831,-3.7506,-3.798,-3.81,-3.8255,0.0,0.0,-3.7863,-3.7342,-3.718,-3.6974,-3.6507,-3.6415,-3.643,-3.6476,-3.6492,-3.6492,-3.6492,-3.6492,-3.6461,-3.6384,-3.6384,-3.6384,-3.6384,-3.5407,-3.4802,-3.4876,-3.3908,-3.329,-3.329,-3.3326,-3.3326,-3.3326,-3.3361,-3.3347,-3.3382,-3.3536,-3.3605,-3.3675,-3.3813,-3.4298,-3.5073,-3.5788,-3.6538,-3.728,-3.8075,-3.8391,-3.8391,-3.8391,-3.8391,-3.8391,-3.8391,-3.8391,-3.8391,-3.8391,-3.8391,-3.8391,-3.8391,-3.8391,-3.8391,-3.8391,-3.8391,-3.8391,-3.8391,-3.8391,-3.8391,-3.8391,-3.898,-3.961,-3.961,-4.0237,-4.0912,-4.0912,-4.0912,-4.0912,-4.0912,-4.0912,-4.0912,-4.0912,-4.0912,-4.0912,-4.0912,-4.0912,-4.0912,-4.0912,-4.0912,-4.0912,-4.0912,-4.0912,-4.0912,-4.0912,-4.0912,-4.1041,-4.1401,-4.1864,-4.2318,-4.2806,-4.316,-4.3339,-4.3339,-4.341,-4.3427,-4.3427,-4.348,-4.3515,-4.3515,-4.3515,-4.3515,-4.3515,-4.3515,-4.436,-3.7969,-3.7917,-3.798,0.0,-3.8778,-3.8853,-3.9143,-3.8731,-3.8216,-3.7979,-3.7621,-3.7208,-3.66,-3.6492,-3.6492,0.0,-3.6492,-3.6492,-3.6492,-3.6492,-3.6492,-3.6492,-3.6492,-3.6492,-3.6492,-3.5512,-3.4909,-3.4909,-3.3908,-3.329,-3.329,-3.329,-3.329,-3.329,-3.329,-3.3361,-3.3466,-3.3431,-3.3466,-3.3605,-3.3675,-3.4094,-3.4743,-3.5175,-3.6025,-3.7161,-3.7828,-3.8205,-3.8391,-3.8391,-3.8391,-3.8391,-3.8391,-3.8391,-3.8391,-3.8391,-3.8391,-3.8391,-3.8391,-3.8391,-3.8391,-3.8391,-3.8391,-3.8391,-3.8391,-3.8391,-3.8391,-3.8391,-3.898,-3.961,-3.961,-4.0237,-4.0912,-4.0912,-4.0912,-4.0912,-4.0912,-4.0912,-4.0912,-4.0912,-4.0912,-4.0912,-4.0912,-4.0912,-4.0912,-4.0912,-4.0912,-4.0912,-4.0912,-4.0912,-4.0912,-4.0912,-4.1094,-4.1423,-4.1864,-4.2338,-4.2788,-4.3214,-4.341,-4.3515,-4.3515,-4.3515,-4.3515,-4.3515,-4.3515,-4.3515,-4.3515,-4.3515,-4.3515,-4.3515,-4.3515,-4.436,-3.8485,0.0,0.0,-3.9037,-3.9346,-3.9457,-3.9457,-3.9109,-3.8742,-3.857,-3.8067,-3.746,-3.6861,-3.66,-3.6492,-3.6492,-3.6492,-3.6492,-3.6492,-3.6492,-3.6492,-3.6492,-3.6367,-3.6289,-3.6289,-3.5447,-3.4909,-3.4909,-3.3908,-3.329,-3.329,-3.329,-3.329,-3.329,-3.329,-3.3361,-3.3536,-3.3361,-3.3361,-3.3536,-3.3536,-3.3785,-3.424,-3.471,-3.5691,-3.7115,-3.7578,-3.8017,-3.8391,-3.8391,-3.8391,-3.8391,-3.8391,-3.8391,-3.8391,-3.8391,-3.8391,-3.8391,-3.8391,-3.8391,-3.8391,-3.8391,-3.8391,-3.8391,-3.8391,-3.8391,-3.8391,-3.8391,-3.898,-3.961,-3.961,-4.0237,-4.0912,-4.0912,-4.0912,-4.0912,-4.0912,-4.0912,-4.0912,-4.0912,-4.0912,-4.0912,-4.0912,-4.0912,-4.0912,-4.0912,-4.0912,-4.0912,-4.0912,-4.0912,-4.0912,-4.0912,-4.126,-4.1692,-4.2157,-4.2634,-4.3069,-4.3462,-4.3515,-4.3515,-4.3515,-4.3515,-4.3515,-4.3515,-4.3515,-4.3515,-4.3515,-4.3515,-4.3515,-4.3515,-4.3515,-4.4232,-3.7178,0.0,-3.8355,-3.9037,-3.9628,-4.0062,-4.0062,-4.0062,-3.9885,-3.9295,-3.8684,-3.8096,-3.749,-3.6892,-3.6492,-3.6492,-3.6492,-3.6492,-3.6492,-3.6492,-3.6492,-3.6492,-3.6053,-3.572,0.0,-3.5219,-3.4909,-3.4909,-3.3908,-3.329,-3.329,-3.329,-3.329,-3.329,-3.329,-3.329,-3.3326,-3.329,-3.329,-3.3326,-3.3326,-3.3326,-3.3382,-3.4423,-3.5691,-3.7131,-3.7342,-3.7786,-3.8391,-3.8391,-3.8391,-3.8391,-3.8391,-3.8391,-3.8391,-3.8391,-3.8391,-3.8391,-3.8391,-3.8391,-3.8391,-3.8391,-3.8391,-3.8391,-3.8391,-3.8391,-3.8391,-3.8391,-3.898,-3.961,-3.961,-4.0237,-4.0912,-4.0912,-4.0912,-4.0912,-4.0912,-4.0912,-4.0912,-4.0912,-4.0912,-4.0912,-4.0912,-4.0912,-4.0912,-4.0912,-4.0912,-4.0912,-4.0912,-4.0912,-4.0912,-4.0912,-4.126,-4.1692,-4.2157,-4.2634,-4.3069,-4.3462,-4.3515,-4.3515,-4.3515,-4.3515,-4.3515,-4.3515,-4.3515,-4.3515,-4.3515,-4.3515,-4.3515,-4.3515,-4.3515,-4.3938,-3.7718,-3.8372,-3.9003,-3.9628,-3.9952,-4.0096,-4.0096,-4.0096,-3.9944,-3.9312,-3.8444,-3.761,-3.7109,-3.6444,-3.5997,-3.6102,-3.6337,-3.6492,-3.6492,-3.6492,-3.6492,-3.6492,-3.6022,0.0,0.0,0.0,0.0,-3.4375,-3.3716,-3.329,-3.329,-3.329,-3.329,-3.329,-3.329,-3.329,-3.329,-3.329,-3.329,-3.329,-3.329,-3.329,-3.3312,-3.4031,-3.496,-3.6024,-3.66,-3.7326,-3.8075,-3.8307,-3.8391,-3.8391,-3.8391,-3.8391,-3.8391,-3.8391,-3.8391,-3.8391,-3.8391,-3.8391,-3.8391,-3.8391,-3.8391,-3.8391,-3.8391,-3.8391,-3.8391,-3.8391,-3.898,-3.961,-3.961,-4.0237,-4.0912,-4.0912,-4.0912,-4.0912,-4.0912,-4.0912,-4.0912,-4.0912,-4.0912,-4.0912,-4.0912,-4.0912,-4.0912,-4.0912,-4.0912,-4.0912,-4.0912,-4.1117,-4.1305,-4.1305,-4.1969,-4.2498,-4.2653,-4.305,-4.3357,-4.3479,-4.3515,-4.3515,-4.3515,-4.3515,-4.3515,-4.3515,-4.3515,-4.3515,-4.3515,-4.3515,-4.3515,-4.3515,-4.3515,-4.392,-3.8321,-3.8874,-3.9346,-3.9952,-4.0096,-4.0096,-4.0096,-4.0096,-3.9995,-3.9618,-3.8434,-3.7416,-3.7176,-3.6345,-3.5683,-3.564,-3.5992,-3.6276,-3.6214,-3.6245,-3.6261,-3.6227,-3.5752,-3.535,0.0,0.0,0.0,-3.4085,-3.3597,-3.329,-3.329,-3.329,-3.329,-3.329,-3.329,-3.329,-3.329,-3.329,-3.329,-3.329,-3.329,-3.329,-3.3312,-3.3736,-3.4356,-3.5157,-3.5755,-3.6523,-3.7458,-3.7666,-3.7943,-3.8234,-3.8234,-3.8307,-3.8391,-3.8391,-3.8391,-3.8391,-3.8391,-3.8391,-3.8391,-3.8391,-3.8391,-3.8391,-3.8391,-3.8391,-3.8391,-3.8391,-3.898,-3.961,-3.961,-4.0237,-4.0912,-4.0912,-4.0912,-4.0912,-4.0912,-4.0912,-4.0912,-4.0912,-4.0912,-4.0912,-4.0912,-4.0912,-4.0912,-4.0912,-4.0912,-4.0912,-4.0912,-4.1237,-4.1494,-4.1494,-4.2338,-4.2901,-4.2901,-4.3268,-4.3515,-4.3515,-4.3515,-4.3515,-4.3515,-4.3515,-4.3515,-4.3515,-4.3515,-4.3515,-4.3515,-4.3515,-4.3515,-4.3515,-4.3515,-4.3773,-3.8874,-3.921,-3.9372,-3.9968,-4.0096,-4.0096,-4.0096,-4.0096,-4.0096,-4.0062,-3.869,-3.7502,0.0,0.0,-3.5526,-3.5177,-3.5576,-3.5896,-3.5763,-3.5867,-3.5874,0.0,0.0,0.0,0.0,0.0,0.0,-3.4016,0.0,-3.329,-3.329,-3.329,-3.329,-3.329,-3.329,-3.329,-3.329,-3.329,-3.329,-3.329,-3.329,-3.329,-3.3326,-3.3501,-3.3942,-3.4595,-3.4776,-3.5531,-3.6584,-3.6569,-3.7115,-3.7886,-3.7886,-3.8103,-3.8363,-3.8391,-3.8391,-3.8391,-3.8391,-3.8391,-3.8391,-3.8391,-3.8391,-3.8391,-3.8391,-3.8391,-3.8391,-3.842,-3.9007,-3.961,-3.9636,-4.0262,-4.0912,-4.0912,-4.0912,-4.0912,-4.0912,-4.0912,-4.0912,-4.0912,-4.0912,-4.0912,-4.0912,-4.0912,-4.0912,-4.0912,-4.0912,-4.0912,-4.0912,-4.126,-4.1539,-4.1539,-4.236,-4.292,-4.292,-4.3286,-4.3515,-4.3515,-4.3515,-4.3515,-4.3515,-4.3515,-4.3515,-4.3515,-4.3515,-4.3515,-4.3515,-4.3515,-4.3515,-4.3515,-4.3515,-4.3515,-3.9098,-3.9534,-3.9901,-4.0062,-4.0096,-4.0096,-4.0096,-4.0096,-3.9968,-3.9517,-3.8086,-3.6845,0.0,0.0,0.0,-3.5225,-3.5864,0.0,-3.6292,-3.6322,0.0,-3.5769,0.0,-3.4677,-3.4138,-3.3597,0.0,0.0,-3.3382,-3.329,-3.329,-3.329,-3.329,-3.329,-3.329,-3.329,-3.329,-3.329,-3.329,-3.329,-3.329,-3.329,-3.329,-3.3361,-3.3681,-3.424,-3.4543,-3.5287,-3.6337,-3.6538,-3.6965,-3.7565,-3.7799,-3.7943,-3.8075,-3.8307,-3.8391,-3.8391,-3.8391,-3.8391,-3.8391,-3.8391,-3.8391,-3.8391,-3.8391,-3.8391,-3.8448,-3.8766,-3.9206,-3.9688,-4.0028,-4.051,-4.0912,-4.0912,-4.0912,-4.0912,-4.0912,-4.0912,-4.0912,-4.0912,-4.0912,-4.0912,-4.0912,-4.0912,-4.0912,-4.0912,-4.0912,-4.0912,-4.0912,-4.1574,-4.2011,-4.2011,-4.2827,-4.3357,-4.3357,-4.3427,-4.3515,-4.3515,-4.3515,-4.3515,-4.3515,-4.3515,-4.3515,-4.3515,-4.3515,-4.3515,-4.3515,-4.3515,-4.3515,-4.3515,-4.3515,-4.3515,-3.9517,-3.9841,-4.0096,-4.0096,-4.0096,-4.0028,-3.9756,-3.9721,-3.9525,-3.8715,-3.741,0.0,0.0,0.0,0.0,0.0,0.0,0.0,-3.6168,-3.5984,-3.5766,0.0,-3.489,0.0,-3.3791,-3.3486,-3.329,0.0,-3.329,-3.329,-3.329,-3.329,-3.329,-3.329,-3.329,-3.329,-3.329,-3.329,-3.329,-3.329,-3.329,-3.329,-3.329,-3.329,-3.3472,-3.377,0.0,-3.4643,-3.564,-3.5787,-3.6399,-3.724,-3.7449,-3.7581,-3.7711,-3.7902,-3.8046,-3.8177,-3.8177,-3.8278,-3.8391,-3.8391,-3.8391,-3.8391,-3.8391,-3.8391,-3.8476,-3.8903,-3.9286,-3.9714,-4.0188,-4.0583,-4.0912,-4.0912,-4.0912,-4.0912,-4.0912,-4.0912,-4.0912,-4.0912,-4.0912,-4.0912,-4.0912,-4.0912,-4.0912,-4.0912,-4.0912,-4.0912,-4.0912,-4.1666,-4.2198,-4.2198,-4.2977,-4.3515,-4.3515,-4.3515,-4.3515,-4.3515,-4.3515,-4.3515,-4.3515,-4.3515,-4.3515,-4.3515,-4.3515,-4.3515,-4.3515,-4.3515,-4.3515,-4.3515,-4.3515,-4.3515,-3.9968,-4.0096,-4.0096,-4.0096,-4.0096,-3.9935,-3.9272,-3.9183,-3.8887,-3.7737,0.0,-3.5901,-3.5539,-3.5219,-3.4911,-3.4666,0.0,-3.5865,-3.5795,-3.5431,-3.512,-3.4901,-3.4442,-3.3894,-3.3347,-3.329,-3.329,-3.329,-3.329,-3.329,-3.329,-3.329,-3.329,-3.329,-3.329,-3.329,-3.329,-3.329,-3.329,-3.329,-3.329,-3.329,-3.329,-3.329,-3.329,-3.329,-3.329,0.0,-3.4909,-3.4909,-3.5705,-3.6938,-3.6969,-3.7135,-3.7358,-3.7387,-3.7608,-3.7915,-3.7915,-3.8103,-3.8391,-3.8391,-3.8391,-3.8391,-3.8391,-3.842,-3.856,-3.8969,-3.9365,-3.9808,-4.0263,-4.0631,-4.0912,-4.0912,-4.0912,-4.0912,-4.0912,-4.0912,-4.0912,-4.0912,-4.0912,-4.0912,-4.0912,-4.0912,-4.0912,-4.0912,-4.0912,-4.0912,-4.0912,-4.1666,-4.2198,-4.2198,-4.2977,-4.3515,-4.3515,-4.3515,-4.3515,-4.3515,-4.3515,-4.3515,-4.3515,-4.3515,-4.3515,-4.3515,-4.3515,-4.3515,-4.3515,-4.3515,-4.3515,-4.3515,-4.3515,-4.3515,-4.0062,-4.0096,-4.0096,-4.0096,-4.0096,-3.9859,-3.8916,-3.8706,0.0,0.0,-3.5968,-3.539,-3.4939,-3.4629,-3.4613,-3.5082,0.0,0.0,0.0,0.0,-3.5409,0.0,0.0,0.0,0.0,0.0,0.0,0.0,0.0,-3.329,-3.329,-3.329,-3.329,-3.329,-3.329,-3.329,-3.329,-3.329,-3.329,-3.329,-3.329,-3.329,-3.329,-3.329,-3.329,-3.329,-3.329,0.0,-3.4909,-3.4909,-3.5591,-3.6616,-3.6877,-3.703,-3.7105,-3.7314,-3.7608,-3.7915,-3.7915,-3.8103,-3.8391,-3.8391,-3.8391,-3.8391,-3.8391,-3.8628,-3.8996,-3.9391,-3.9825,-4.0288,-4.068,-4.0864,-4.0912,-4.0912,-4.0912,-4.0912,-4.0912,-4.0912,-4.0912,-4.0912,-4.0912,-4.0912,-4.0912,-4.0912,-4.0912,-4.0912,-4.0912,-4.0912,-4.0912,-4.1666,-4.2198,-4.2198,-4.2977,-4.3515,-4.3515,-4.3515,-4.3515,-4.3515,-4.3515,-4.3515,-4.3515,-4.3515,-4.3515,-4.3515,-4.3515,-4.3515,-4.3515,-4.3515,-4.3515,-4.3515,-4.3515,-4.3515,-3.9644,-3.9644,-3.9644,-3.9644,-3.9418,-3.8891,-3.7891,0.0,0.0,0.0,-3.5234,-3.4947,-3.4472,0.0,0.0,0.0,0.0,0.0,0.0,0.0,0.0,0.0,0.0,0.0,0.0,0.0,0.0,0.0,0.0,-3.329,-3.329,-3.329,-3.329,-3.329,-3.329,-3.329,-3.329,-3.329,-3.329,-3.329,-3.329,-3.329,-3.329,-3.329,-3.329,-3.329,-3.329,0.0,-3.4909,-3.4909,-3.5512,-3.6523,-3.6693,-3.6754,-3.6754,-3.6877,-3.7134,-3.7419,-3.7419,-3.7727,-3.8132,-3.8132,-3.8262,-3.8391,-3.8391,-3.8532,-3.8805,-3.9428,-3.9756,-4.0079,-4.0728,-4.0912,-4.0912,-4.0912,-4.0912,-4.0912,-4.0912,-4.0912,-4.0912,-4.0912,-4.0912,-4.0912,-4.0912,-4.0912,-4.0912,-4.0912,-4.0912,-4.0912,-4.0912,-4.1463,-4.1927,-4.2157,-4.2789,-4.3268,-4.3479,-4.3515,-4.3515,-4.3515,-4.3515,-4.3515,-4.3515,-4.3515,-4.3515,-4.3515,-4.3515,-4.3515,-4.3515,-4.3515,-4.3515,-4.3515,-4.3515,-4.3515,-3.8995,-3.9001,-3.9001,-3.9001,-3.8657,-3.7989,-3.6911,-3.6723,0.0,0.0,-3.461,-3.4537,-3.4159,0.0,0.0,0.0,0.0,0.0,0.0,0.0,0.0,0.0,0.0,0.0,0.0,0.0,0.0,0.0,0.0,0.0,-3.329,-3.329,-3.329,-3.329,-3.329,-3.329,-3.329,-3.329,-3.329,-3.329,-3.329,-3.329,-3.329,-3.329,-3.329,-3.329,-3.329,0.0,0.0,-3.4843,-3.5447,-3.6352,-3.646,-3.6492,-3.6492,-3.6492,-3.6724,-3.7015,-3.7015,-3.7359,-3.7783,-3.7886,-3.8148,-3.8391,-3.8391,-3.8448,-3.8683,-3.9401,-3.9662,-3.9935,-4.0704,-4.0912,-4.0912,-4.0912,-4.0912,-4.0912,-4.0912,-4.0912,-4.0912,-4.0912,-4.0912,-4.0912,-4.0912,-4.0912,-4.0912,-4.0912,-4.0912,-4.0912,-4.0912,-4.1186,-4.1556,-4.199,-4.2458,-4.292,-4.3339,-4.3375,-4.341,-4.3479,-4.3515,-4.3515,-4.3515,-4.3515,-4.3515,-4.3515,-4.3515,-4.3515,-4.3515,-4.3515,-4.3515,-4.3515,-4.3515,-4.3515,-3.8256,-3.8362,-3.8362,-3.8362,-3.8334,-3.795,-3.6567,0.0,0.0,-3.4443,-3.4176,-3.4134,-3.4101,-3.3138,0.0,0.0,0.0,0.0,0.0,0.0,0.0,0.0,0.0,0.0,0.0,0.0,0.0,0.0,0.0,0.0,-3.329,-3.329,-3.329,-3.329,-3.329,-3.329,-3.329,-3.329,-3.329,-3.329,-3.329,-3.329,-3.329,-3.329,-3.329,-3.329,-3.329,0.0,0.0,-3.471,-3.5252,-3.5816,-3.632,-3.6492,-3.6492,-3.6492,-3.6724,-3.7015,-3.7015,-3.718,-3.7506,-3.7799,-3.8148,-3.8391,-3.8391,-3.8655,-3.905,-3.948,-3.9927,-4.0337,-4.0776,-4.0912,-4.0912,-4.0912,-4.0912,-4.0912,-4.0912,-4.0912,-4.0912,-4.0912,-4.0912,-4.0912,-4.0912,-4.0912,-4.0912,-4.0912,-4.0912,-4.0912,-4.0912,-4.0918,-4.1094,-4.1516,-4.199,-4.2458,-4.292,-4.2975,-4.3105,-4.348,-4.3515,-4.3515,-4.3515,-4.3515,-4.3515,-4.3515,-4.3515,-4.3515,-4.3515,-4.3515,-4.3515,-4.3515,-4.3515,-4.3515,-3.7604,-3.7767,-3.7767,-3.7767,-3.7303,-3.666,-3.5848,0.0,0.0,-3.4286,-3.4101,-3.4101,-3.4101,-3.3077,-3.2288,0.0,0.0,0.0,0.0,0.0,0.0,0.0,0.0,0.0,0.0,0.0,0.0,0.0,0.0,0.0,-3.329,-3.329,-3.329,-3.329,-3.329,-3.329,-3.329,-3.329,-3.329,-3.329,-3.329,-3.329,-3.329,-3.329,-3.329,-3.329,-3.329,0.0,0.0,-3.4677,-3.5219,-3.5752,-3.6289,-3.6492,-3.6492,-3.6492,-3.6585,-3.6693,-3.6693,-3.6892,-3.718,-3.73,-3.7698,-3.8148,-3.8335,-3.8504,-3.8777,-3.9428,-3.9714,-4.0054,-4.0728,-4.0912,-4.0912,-4.0912,-4.0912,-4.0912,-4.0912,-4.0912,-4.0912,-4.0912,-4.0912,-4.0912,-4.0912,-4.0912,-4.0912,-4.0912,-4.0912,-4.0912,-4.0912,-4.0912,-4.0965,-4.1117,-4.1512,-4.1969,-4.2438,-4.2478,-4.2673,-4.3105,-4.3124,-4.325,-4.3497,-4.3515,-4.3515,-4.3515,-4.3515,-4.3515,-4.3515,-4.3515,-4.3515,-4.3515,-4.3515,-4.3515,-3.657,-3.6931,-3.7118,-3.7118,-3.6512,-3.5794,0.0,0.0,0.0,-3.4196,-3.4101,-3.3986,-3.3634,-3.258,-3.162,0.0,0.0,-3.0291,0.0,0.0,0.0,0.0,0.0,0.0,0.0,0.0,0.0,0.0,0.0,0.0,-3.329,-3.329,-3.329,-3.329,-3.329,-3.329,-3.329,-3.329,-3.329,-3.329,-3.329,-3.329,-3.329,-3.329,-3.329,-3.329,-3.329,0.0,0.0,-3.461,-3.5121,-3.5512,-3.6226,-3.6492,-3.6492,-3.6492,-3.6492,-3.6492,-3.6492,-3.6724,-3.7015,-3.7015,-3.7329,-3.7799,-3.8017,-3.8234,-3.8572,-3.9375,-3.9791,-4.0137,-4.0752,-4.0912,-4.0912,-4.0912,-4.0912,-4.0912,-4.0912,-4.0912,-4.0912,-4.0912,-4.0912,-4.0912,-4.0912,-4.0912,-4.0912,-4.0912,-4.0912,-4.0912,-4.0912,-4.0912,-4.0912,-4.0912,-4.114,-4.1512,-4.1948,-4.199,-4.2198,-4.2653,-4.2692,-4.2883,-4.3304,-4.3322,-4.3375,-4.3497,-4.3515,-4.3515,-4.3515,-4.3515,-4.3515,-4.3515,-4.3515,-4.3515,-3.4911,-3.5861,-3.6523,-3.6523,-3.6212,-3.5794,0.0,0.0,0.0,-3.4196,-3.4101,-3.3724,-3.2539,-3.1279,-3.0043,-2.883,0.0,0.0,0.0,0.0,0.0,0.0,0.0,0.0,0.0,0.0,0.0,0.0,0.0,0.0,-3.3319,-3.329,-3.329,-3.329,-3.329,-3.329,-3.329,-3.329,-3.329,-3.329,-3.329,-3.329,-3.329,-3.329,-3.329,0.0,0.0,0.0,0.0,-3.4457,-3.4909,-3.5008,-3.6085,-3.6492,-3.6492,-3.6492,-3.6492,-3.6492,-3.6492,-3.6724,-3.7015,-3.7015,-3.718,-3.7417,-3.7417,-3.7873,-3.8572,-3.9375,-4.0212,-4.0888,-4.0912,-4.0912,-4.0912,-4.0912,-4.0912,-4.0912,-4.0912,-4.0912,-4.0912,-4.0912,-4.0912,-4.0912,-4.0912,-4.0912,-4.0912,-4.0912,-4.0912,-4.0912,-4.0912,-4.0912,-4.0912,-4.0912,-4.0894,-4.1065,-4.1472,-4.1494,-4.1713,-4.2177,-4.2198,-4.2418,-4.2882,-4.2901,-4.3087,-4.3479,-4.3515,-4.3515,-4.3515,-4.3515,-4.3515,-4.3515,-4.3515,-4.3515,-3.3036,-3.3701,-3.4178,-3.4502,-3.4634,-3.471,-3.4863,0.0,0.0,0.0,-3.2882,-3.2565,-3.1535,-3.0485,-2.9711,-2.9589,0.0,0.0,0.0,0.0,0.0,0.0,0.0,0.0,0.0,0.0,0.0,0.0,0.0,0.0,-3.3319,-3.329,-3.329,-3.329,-3.329,-3.329,-3.329,-3.329,-3.329,-3.329,-3.329,-3.329,-3.329,-3.329,-3.329,0.0,0.0,0.0,0.0,-3.4457,-3.4909,-3.5023,-3.6085,-3.6492,-3.6492,-3.6492,-3.6492,-3.6492,-3.6492,-3.6554,-3.6662,-3.6662,-3.6862,-3.7135,-3.7135,-3.774,-3.8673,-3.9756,-4.0468,-4.0912,-4.0912,-4.0912,-4.0912,-4.0912,-4.0912,-4.0912,-4.0912,-4.0912,-4.0912,-4.0912,-4.0912,-4.0912,-4.0912,-4.0912,-4.0912,-4.0912,-4.0912,-4.0912,-4.0912,-4.0912,-4.0912,-4.0912,-4.0912,-4.0942,-4.1088,-4.1088,-4.126,-4.1692,-4.1713,-4.1927,-4.2398,-4.2731,-4.2957,-4.3105,-4.3357,-4.3515,-4.3515,-4.3515,-4.3515,-4.3515,-4.3515,-4.3515,0.0,-3.2667,-3.3218,-3.3854,-3.4011,0.0,0.0,0.0,0.0,0.0,0.0,0.0,0.0,0.0,0.0,0.0,0.0,0.0,0.0,0.0,0.0,0.0,0.0,0.0,0.0,0.0,0.0,0.0,0.0,0.0,-3.3368,-3.329,-3.329,-3.329,-3.329,-3.329,-3.329,-3.329,-3.329,-3.329,-3.329,-3.329,-3.329,-3.329,-3.329,0.0,0.0,0.0,0.0,-3.4457,-3.4909,-3.5023,-3.6085,-3.6492,-3.6492,-3.6492,-3.6492,-3.6492,-3.6492,-3.6585,-3.6662,-3.6554,-3.6724,-3.709,-3.7506,-3.8169,-3.8957,-3.9944,-4.0558,-4.0912,-4.0912,-4.0912,-4.0912,-4.0912,-4.0912,-4.0912,-4.0912,-4.0912,-4.0912,-4.0912,-4.0912,-4.0912,-4.0912,-4.0912,-4.0912,-4.0912,-4.0912,-4.0912,-4.0912,-4.0912,-4.0912,-4.0912,-4.0912,-4.0912,-4.0912,-4.0912,-4.1012,-4.126,-4.1283,-4.1468,-4.1906,-4.2398,-4.2711,-4.29,-4.3304,-4.3515,-4.3515,-4.3515,-4.3515,-4.3515,-4.3515,-4.3515,0.0,0.0,0.0,0.0,0.0,0.0,0.0,0.0,0.0,0.0,0.0,0.0,0.0,0.0,0.0,0.0,0.0,0.0,0.0,0.0,0.0,0.0,0.0,0.0,0.0,0.0,0.0,0.0,0.0,0.0,-3.3382,-3.329,-3.329,-3.329,-3.329,-3.329,-3.329,-3.329,-3.329,-3.329,-3.329,-3.329,-3.329,-3.329,-3.329,0.0,0.0,0.0,0.0,-3.4457,-3.4909,-3.5023,-3.6085,-3.6492,-3.6492,-3.6492,-3.6492,-3.6492,-3.6492,-3.6693,-3.6908,-3.6585,-3.6724,-3.718,-3.8346,-3.8914,-3.9312,-3.9969,-4.051,-4.0888,-4.0912,-4.0912,-4.0912,-4.0912,-4.0912,-4.0912,-4.0912,-4.0912,-4.0912,-4.0912,-4.0912,-4.0912,-4.0912,-4.0912,-4.0912,-4.0912,-4.0912,-4.0912,-4.0912,-4.0912,-4.0912,-4.0912,-4.0912,-4.0912,-4.0912,-4.0912,-4.0912,-4.0912,-4.0912,-4.1065,-4.1445,-4.1906,-4.2378,-4.2844,-4.3286,-4.3515,-4.3515,-4.3515,-4.3515,-4.3515,-4.357,-4.3589,-2.9201,0.0,-2.9779,-3.0485,-3.0644,0.0,0.0,0.0,0.0,0.0,0.0,0.0,0.0,0.0,0.0,0.0,0.0,0.0,0.0,0.0,0.0,0.0,0.0,0.0,0.0,0.0,0.0,0.0,0.0,-3.409,-3.3333,-3.329,-3.329,-3.329,-3.329,-3.329,-3.329,-3.329,-3.329,-3.329,-3.329,-3.329,-3.329,-3.329,-3.329,0.0,0.0,0.0,-3.3382,-3.4457,-3.4909,-3.5023,-3.6085,-3.6492,-3.6492,-3.6492,-3.6492,-3.6492,-3.6492,-3.6554,-3.6616,-3.6523,-3.6554,-3.6877,-3.8137,-3.8794,-3.9269,-4.0395,-4.0745,-4.0769,-4.0871,-4.0912,-4.0912,-4.0912,-4.0912,-4.0912,-4.0912,-4.0912,-4.0912,-4.0912,-4.0912,-4.0912,-4.0912,-4.0912,-4.0912,-4.0912,-4.0912,-4.0912,-4.0912,-4.0912,-4.0912,-4.0912,-4.0912,-4.0912,-4.0912,-4.0912,-4.0912,-4.0912,-4.0912,-4.0942,-4.1041,-4.1445,-4.1885,-4.2358,-4.3105,-4.3515,-4.3515,-4.3515,-4.3515,-4.3497,-4.4121,-4.4415,-2.7461,-2.7825,-2.8474,-2.9533,-2.9464,-2.9274,0.0,0.0,0.0,0.0,0.0,0.0,0.0,0.0,0.0,0.0,0.0,0.0,0.0,0.0,0.0,0.0,0.0,0.0,0.0,0.0,0.0,0.0,0.0,-3.385,-3.3079,-3.3206,-3.329,-3.329,-3.329,-3.329,-3.329,-3.329,-3.329,-3.329,-3.329,-3.329,-3.329,-3.329,-3.329,0.0,0.0,0.0,-3.3382,-3.4457,-3.4909,-3.5023,-3.6085,-3.6492,-3.6492,-3.6492,-3.6492,-3.6492,-3.6492,-3.6492,-3.6492,-3.6492,-3.6585,-3.6907,-3.7809,-3.8518,-3.9242,-4.0377,-4.0752,-4.0793,-4.0817,-4.1106,-4.1412,-4.1412,-4.1688,-4.1964,-4.1964,-4.1964,-4.1964,-4.1964,-4.1964,-4.1964,-4.1964,-4.1964,-4.1964,-4.1964,-4.1964,-4.1964,-4.1964,-4.1964,-4.1809,-4.1447,-4.1412,-4.1274,-4.0929,-4.0912,-4.0912,-4.0912,-4.0912,-4.0912,-4.0912,-4.1283,-4.1713,-4.2177,-4.2883,-4.3214,-4.3232,-4.3777,-4.4048,-4.4066,-4.4874,-4.5259,-2.6225,-2.6867,-2.8154,-2.9416,-2.901,-2.844,0.0,0.0,0.0,0.0,0.0,0.0,0.0,0.0,0.0,0.0,0.0,0.0,0.0,0.0,0.0,0.0,0.0,0.0,0.0,0.0,0.0,0.0,0.0,-3.3645,-3.2838,-3.3122,-3.329,-3.329,-3.329,-3.329,-3.329,-3.329,-3.329,-3.329,-3.329,-3.329,-3.329,-3.329,-3.329,-3.329,0.0,0.0,-3.3521,-3.4491,-3.4957,-3.5121,-3.6116,-3.6553,-3.6645,-3.6645,-3.6645,-3.663,-3.6538,-3.6492,-3.6492,-3.6492,-3.6677,-3.7045,-3.7585,-3.8383,-3.9317,-4.0367,-4.084,-4.1006,-4.103,-4.1584,-4.2164,-4.2164,-4.2706,-4.3189,-4.3189,-4.3189,-4.3189,-4.3189,-4.3189,-4.3189,-4.3189,-4.3189,-4.3189,-4.3189,-4.3189,-4.3189,-4.3189,-4.3189,-4.2948,-4.2275,-4.2189,-4.193,-4.1309,-4.1257,-4.1257,-4.1257,-4.1032,-4.0912,-4.0912,-4.1283,-4.1692,-4.2074,-4.2663,-4.3006,-4.31,-4.4218,-4.4802,-4.4911,-4.5718,-4.6085,-2.6732,-2.7045,-2.7595,-2.7647,-2.7539,-2.7385,0.0,0.0,0.0,0.0,0.0,0.0,0.0,0.0,0.0,0.0,0.0,0.0,0.0,0.0,0.0,0.0,0.0,0.0,0.0,0.0,0.0,0.0,0.0,-3.2993,-3.3206,-3.329,-3.329,-3.329,-3.329,-3.329,-3.329,-3.329,-3.329,-3.329,-3.329,-3.329,-3.329,-3.329,-3.329,-3.329,0.0,-3.3577,-3.4016,-3.4643,-3.5187,-3.5655,-3.6258,-3.6846,-3.7353,-3.7353,-3.7353,-3.7261,-3.6692,-3.6492,-3.6492,-3.6492,-3.6523,-3.6801,-3.8081,-3.8937,-3.9795,-4.1143,-4.151,-4.1654,-4.2388,-4.2679,-4.279,-4.2975,-4.3103,-4.3189,-4.3189,-4.3189,-4.3189,-4.3189,-4.3189,-4.3189,-4.3189,-4.3189,-4.3189,-4.3189,-4.3189,-4.3189,-4.3189,-4.3189,-4.3155,-4.3034,-4.3017,-4.2965,-4.2861,-4.2844,-4.2844,-4.2844,-4.1619,-4.0912,-4.0912,-4.1283,-4.1516,-4.1604,-4.2693,-4.3465,-4.3914,-4.4732,-4.5327,-4.5736,-4.6526,-4.6911,-2.6373,-2.6399,-2.6641,-2.6969,-2.7266,-2.7609,0.0,0.0,0.0,0.0,0.0,0.0,0.0,0.0,0.0,0.0,0.0,0.0,0.0,0.0,0.0,0.0,0.0,0.0,0.0,0.0,0.0,0.0,0.0,0.0,-3.2646,-3.3065,-3.329,-3.329,-3.329,-3.329,-3.329,-3.329,-3.329,-3.329,-3.329,-3.329,-3.329,-3.329,-3.329,-3.329,0.0,-3.3597,-3.4138,-3.4677,-3.5219,-3.5752,-3.6289,-3.6907,-3.7538,-3.7923,-3.7815,-3.7461,-3.7153,-3.6799,-3.6492,-3.6492,-3.6738,-3.7234,-3.8226,-3.9312,-4.0451,-4.1893,-4.224,-4.2322,-4.2817,-4.3237,-4.3597,-4.3768,-4.4096,-4.4389,-4.4389,-4.4389,-4.4389,-4.4389,-4.4389,-4.4389,-4.4389,-4.4389,-4.4389,-4.4389,-4.4389,-4.4389,-4.4389,-4.4389,-4.4234,-4.3845,-4.3793,-4.3638,-4.3224,-4.3189,-4.3189,-4.3189,-4.2534,-4.2137,-4.2137,-4.2319,-4.2438,-4.2438,-4.3435,-4.4067,-4.4315,-4.5589,-4.6337,-4.6562,-4.7369,-4.7736,-2.5968,-2.5989,-2.6366,-2.6946,0.0,-2.7677,-2.8657,0.0,0.0,0.0,0.0,0.0,0.0,0.0,0.0,0.0,0.0,0.0,0.0,0.0,0.0,0.0,0.0,0.0,0.0,0.0,0.0,0.0,0.0,0.0,-3.2237,-3.2909,-3.329,-3.329,-3.329,-3.329,-3.329,-3.329,-3.329,-3.329,-3.329,-3.329,-3.329,-3.329,-3.329,-3.329,-3.329,-3.3667,-3.4308,-3.4743,-3.5285,-3.5941,-3.6504,-3.723,-3.8031,-3.8554,-3.8415,-3.7954,-3.78,-3.7292,-3.6722,-3.6722,-3.7076,-3.765,-3.8464,-3.9704,-4.1145,-4.2658,-4.3124,-4.32,-4.3417,-4.3898,-4.4336,-4.4492,-4.4966,-4.5397,-4.5397,-4.5397,-4.5397,-4.5397,-4.5397,-4.5397,-4.5397,-4.5397,-4.5397,-4.5397,-4.5397,-4.5397,-4.5397,-4.5397,-4.5173,-4.4613,-4.457,-4.432,-4.3776,-4.3724,-4.3724,-4.3724,-4.3396,-4.3189,-4.3189,-4.3189,-4.3189,-4.3189,-4.4033,-4.4565,-4.4767,-4.6325,-4.716,-4.7388,-4.8012,-4.8306,-2.5968,-2.6563,-2.7452,-2.7677,0.0,0.0,-2.8505,0.0,0.0,0.0,0.0,0.0,0.0,0.0,0.0,0.0,0.0,0.0,0.0,0.0,0.0,0.0,0.0,0.0,0.0,0.0,0.0,0.0,0.0,0.0,-3.2632,-3.3051,-3.329,-3.329,-3.329,-3.329,-3.329,-3.329,-3.329,-3.329,-3.329,-3.329,-3.329,-3.329,-3.329,-3.329,-3.329,-3.3874,-3.4843,-3.4876,-3.5512,-3.6522,-3.7184,-3.8231,-3.9351,-3.9398,-3.9382,-3.9277,-3.8662,-3.8,-3.743,-3.743,-3.7461,-3.7728,-3.9047,-4.038,-4.1789,-4.3465,-4.4187,-4.4512,-4.4797,-4.4885,-4.4974,-4.5108,-4.5266,-4.5397,-4.5397,-4.5397,-4.5397,-4.5397,-4.5397,-4.5397,-4.5397,-4.5397,-4.5397,-4.5397,-4.5397,-4.5397,-4.5397,-4.5397,-4.538,-4.5328,-4.5311,-4.5294,-4.5242,-4.5242,-4.5242,-4.5242,-4.3958,-4.3189,-4.3189,-4.3189,-4.3189,-4.3189,-4.3938,-4.4736,-4.5628,-4.6494,-4.737,-4.8233,-4.8269,-4.8306,-2.5785,-2.6106,-2.6556,-2.6993,0.0,0.0,0.0,0.0,0.0,0.0,0.0,0.0,0.0,0.0,0.0,0.0,0.0,0.0,0.0,0.0,0.0,0.0,0.0,0.0,0.0,0.0,0.0,0.0,0.0,0.0,-3.2932,-3.3913,-3.45,-3.45,-3.45,-3.45,-3.45,-3.45,-3.45,-3.4486,-3.3691,-3.329,-3.329,-3.329,-3.329,-3.329,-3.329,-3.3908,-3.4909,-3.4909,-3.5799,-3.723,-3.8323,-3.9062,-3.9536,-3.9951,-3.9844,-3.9444,-3.9198,-3.8692,-3.8123,-3.8123,-3.8415,-3.8982,-4.0354,-4.1395,-4.2472,-4.4158,-4.462,-4.4682,-4.5032,-4.5059,-4.5032,-4.515,-4.53,-4.5397,-4.5397,-4.5397,-4.5397,-4.5397,-4.5397,-4.5397,-4.5397,-4.5397,-4.5397,-4.5397,-4.5397,-4.5397,-4.5397,-4.5397,-4.5397,-4.5397,-4.5397,-4.5397,-4.5397,-4.5397,-4.5397,-4.5397,-4.4889,-4.4578,-4.4578,-4.4578,-4.4578,-4.4578,-4.5179,-4.5674,-4.6,-4.6605,-4.7226,-4.7856,-4.7856,-4.8015,-2.6012,-2.6086,-2.6321,0.0,0.0,0.0,0.0,0.0,0.0,0.0,0.0,0.0,0.0,0.0,0.0,0.0,0.0,0.0,0.0,0.0,0.0,0.0,0.0,0.0,0.0,0.0,0.0,0.0,0.0,0.0,0.0,-3.4104,-3.4868,-3.5189,-3.5189,-3.5189,-3.5189,-3.5189,-3.5189,-3.5175,-3.4309,-3.3803,-3.3571,-3.3375,-3.329,-3.329,-3.329,-3.4023,-3.5219,-3.5219,-3.637,-3.8231,-3.9154,-3.9613,-3.9859,-4.032,-4.0197,-3.9797,-3.9797,-3.94,-3.8831,-3.8831,-3.9256,-4.0043,-4.116,-4.2107,-4.3136,-4.4586,-4.4831,-4.4737,-4.5059,-4.5059,-4.5032,-4.5113,-4.5274,-4.5397,-4.5397,-4.5397,-4.5397,-4.5397,-4.5397,-4.5397,-4.5397,-4.5397,-4.5397,-4.5397,-4.5397,-4.5397,-4.5397,-4.5397,-4.5397,-4.5397,-4.5397,-4.5397,-4.5397,-4.5397,-4.5397,-4.5397,-4.5397,-4.5397,-4.5397,-4.5397,-4.5397,-4.5397,-4.5752,-4.6013,-4.6211,-4.6531,-4.6981,-4.7611,-4.7611,-4.7856,-2.6693,-2.6706,-2.7157,0.0,0.0,0.0,0.0,0.0,0.0,0.0,0.0,0.0,0.0,0.0,0.0,0.0,0.0,0.0,0.0,0.0,0.0,0.0,0.0,0.0,0.0,0.0,0.0,0.0,0.0,0.0,0.0,-3.3408,-3.409,-3.5175,-3.5203,-3.5203,-3.5217,-3.5217,-3.5217,-3.5217,-3.5203,-3.4843,-3.4189,-3.3585,-3.3304,-3.3304,-3.3304,-3.4301,-3.5931,-3.5931,-3.735,-3.949,-3.949,-3.9905,-4.0489,-4.0489,-4.0489,-4.0489,-4.0489,-4.0059,-3.949,-3.949,-3.9944,-4.061,-4.1315,-4.2441,-4.3718,-4.4714,-4.4913,-4.4831,-4.4951,-4.5005,-4.5005,-4.5005,-4.5194,-4.5397,-4.5397,-4.5397,-4.5397,-4.5397,-4.5397,-4.5397,-4.5397,-4.5397,-4.5397,-4.5397,-4.5397,-4.5397,-4.5397,-4.5397,-4.5397,-4.5397,-4.5397,-4.5397,-4.5397,-4.5397,-4.5397,-4.5397,-4.5397,-4.5397,-4.5397,-4.5397,-4.5397,-4.5397,-4.5397,-4.5667,-4.6186,-4.6186,-4.6678,-4.7591,-4.7591,-4.7836,-2.5533,-2.6347,0.0,0.0,0.0,0.0,0.0,0.0,0.0,0.0,0.0,0.0,0.0,0.0,0.0,0.0,0.0,0.0,0.0,0.0,0.0,0.0,0.0,0.0,0.0,0.0,0.0,0.0,0.0,0.0,0.0,-3.3694,-3.4653,-3.5391,-3.5685,-3.6047,-3.6469,-3.6483,-3.6483,-3.6469,-3.6047,-3.5513,-3.4922,-3.4739,-3.4655,-3.4655,-3.4655,-3.5361,-3.6625,-3.7907,-3.8837,-3.9536,-4.0013,-4.032,-4.0489,-4.0489,-4.0489,-4.0489,-4.0489,-4.0366,-4.0197,-4.0197,-4.066,-4.1339,-4.1994,-4.2804,-4.3689,-4.4603,-4.4831,-4.4803,-4.4858,-4.494,-4.5005,-4.5005,-4.514,-4.5274,-4.5371,-4.5397,-4.5397,-4.5397,-4.5397,-4.5397,-4.5397,-4.5397,-4.5397,-4.5397,-4.5397,-4.5397,-4.5397,-4.5397,-4.5397,-4.5397,-4.5397,-4.5397,-4.5397,-4.5397,-4.5397,-4.5397,-4.5397,-4.5397,-4.5397,-4.5397,-4.5397,-4.5397,-4.5397,-4.5476,-4.5641,-4.5641,-4.6144,-4.7093,-4.7093,-4.7545,-2.6587,0.0,0.0,0.0,0.0,0.0,0.0,0.0,0.0,0.0,0.0,0.0,0.0,0.0,0.0,0.0,0.0,0.0,0.0,0.0,0.0,0.0,0.0,0.0,0.0,0.0,0.0,0.0,0.0,0.0,0.0,-3.3465,-3.4358,-3.5117,-3.5511,-3.6033,-3.6652,-3.6652,-3.6778,-3.6978,-3.6652,-3.6286,-3.5906,-3.5414,-3.5189,-3.524,-3.5931,-3.6599,-3.734,-3.9158,-3.989,-3.992,-4.0336,-4.0489,-4.0489,-4.0489,-4.0489,-4.0489,-4.0489,-4.0489,-4.0489,-4.0489,-4.1109,-4.1981,-4.2395,-4.3183,-4.4059,-4.462,-4.4831,-4.4886,-4.4886,-4.4923,-4.5005,-4.5005,-4.5113,-4.5247,-4.5371,-4.5397,-4.5397,-4.5397,-4.5397,-4.5397,-4.5397,-4.5397,-4.5397,-4.5397,-4.5397,-4.5397,-4.5397,-4.5397,-4.5397,-4.5397,-4.5397,-4.5397,-4.5397,-4.5397,-4.5397,-4.5397,-4.5397,-4.5397,-4.5397,-4.5397,-4.5397,-4.5397,-4.5397,-4.5397,-4.5397,-4.5397,-4.5912,-4.6908,-4.6908,-4.7399,0.0,0.0,0.0,0.0,0.0,0.0,0.0,0.0,0.0,0.0,0.0,0.0,0.0,0.0,0.0,0.0,0.0,0.0,0.0,0.0,0.0,0.0,0.0,0.0,0.0,0.0,0.0,0.0,0.0,0.0,0.0,-3.2745,-3.3428,-3.4406,-3.4845,-3.5363,-3.6019,-3.6075,-3.6399,-3.6908,-3.695,-3.6978,-3.695,-3.5864,-3.5358,-3.546,-3.715,-3.7904,-3.802,-3.9797,-4.0489,-4.0489,-4.0489,-4.0489,-4.0489,-4.0489,-4.0489,-4.0489,-4.0489,-4.0459,-4.0397,-4.0397,-4.1314,-4.2423,-4.2423,-4.342,-4.4643,-4.4765,-4.4886,-4.5005,-4.4978,-4.4978,-4.5005,-4.5005,-4.5113,-4.522,-4.5371,-4.5397,-4.5397,-4.5397,-4.5397,-4.5397,-4.5397,-4.5397,-4.5397,-4.5397,-4.5397,-4.5397,-4.5397,-4.5397,-4.5397,-4.5397,-4.5397,-4.5397,-4.5397,-4.5397,-4.5397,-4.5397,-4.5397,-4.5397,-4.5397,-4.5397,-4.5397,-4.5397,-4.5397,-4.5397,-4.5397,-4.5397,-4.5887,-4.684,-4.6886,-4.7396,0.0,0.0,0.0,0.0,0.0,0.0,0.0,0.0,0.0,0.0,0.0,0.0,0.0,0.0,0.0,0.0,0.0,0.0,0.0,0.0,0.0,0.0,0.0,0.0,0.0,0.0,0.0,0.0,0.0,0.0,-3.1307,-3.1718,-3.2395,-3.3377,-3.3772,-3.4409,-3.5386,-3.5864,-3.6174,0.0,-3.6754,-3.6978,-3.6978,-3.675,-3.6624,-3.6676,-3.8023,-3.8561,-3.8685,-3.996,-4.0489,-4.0489,-4.0489,-4.0489,-4.0489,-4.0489,-4.0489,-4.0489,-4.0489,-4.0151,-3.9705,-3.9705,-4.0622,-4.1725,-4.1725,-4.3069,-4.4615,-4.4626,-4.4803,-4.4995,-4.4886,-4.4913,-4.5032,-4.514,-4.5113,-4.5113,-4.5344,-4.5397,-4.5397,-4.5397,-4.5397,-4.5397,-4.5397,-4.5397,-4.5397,-4.5397,-4.5397,-4.5397,-4.5397,-4.5397,-4.5397,-4.5397,-4.5397,-4.5397,-4.5397,-4.5397,-4.5397,-4.5397,-4.5397,-4.5397,-4.5397,-4.5397,-4.5397,-4.5397,-4.5397,-4.5397,-4.5397,-4.5397,-4.5727,-4.6363,-4.6724,-4.7222,0.0,0.0,0.0,0.0,0.0,0.0,0.0,0.0,0.0,0.0,0.0,0.0,0.0,0.0,0.0,0.0,0.0,0.0,0.0,0.0,0.0,0.0,0.0,0.0,0.0,0.0,0.0,0.0,0.0,-3.0986,-3.0986,-3.1384,-3.1924,-3.2603,-3.2969,-3.3659,-3.4702,-3.5026,-3.5489,-3.6103,-3.6427,-3.6736,-3.6978,-3.6978,-3.6978,-3.707,-3.8263,-3.8782,-3.8892,-4.0021,-4.0489,-4.0489,-4.0489,-4.0489,-4.0489,-4.0489,-4.029,-4.0013,-4.0013,-3.9567,-3.9031,-3.9031,-4.0166,-4.1482,-4.1482,-4.2965,-4.4615,-4.4615,-4.4765,-4.4896,-4.4913,-4.4951,-4.5032,-4.515,-4.5113,-4.5059,-4.5344,-4.5397,-4.5397,-4.5397,-4.5397,-4.5397,-4.5397,-4.5397,-4.5397,-4.5397,-4.5397,-4.5397,-4.5397,-4.5397,-4.5397,-4.5397,-4.5397,-4.5397,-4.5397,-4.5397,-4.5397,-4.5397,-4.5397,-4.5397,-4.5397,-4.5397,-4.5397,-4.5397,-4.5397,-4.5397,-4.5397,-4.5397,-4.5693,-4.6211,-4.6678,-4.7138,0.0,0.0,0.0,0.0,0.0,0.0,0.0,0.0,0.0,0.0,0.0,0.0,0.0,0.0,0.0,0.0,0.0,0.0,0.0,0.0,0.0,0.0,0.0,0.0,0.0,0.0,0.0,0.0,0.0,-3.0986,-3.0986,-3.131,-3.1666,-3.1982,-3.2345,-3.2952,-3.3912,-3.4024,-3.4671,-3.5756,-3.6005,-3.6427,-3.6978,-3.6978,-3.6978,-3.707,-3.8263,-3.8782,-3.8892,-4.0021,-4.0489,-4.0489,-4.0366,-4.032,-4.0305,-4.0197,-3.9782,-3.9339,-3.9339,-3.8908,-3.8338,-3.8338,-3.9597,-4.1182,-4.1304,-4.2762,-4.444,-4.457,-4.4709,-4.4831,-4.4968,-4.5005,-4.5032,-4.5194,-4.514,-4.5086,-4.5318,-4.5397,-4.5397,-4.5397,-4.5397,-4.5397,-4.5397,-4.5397,-4.5397,-4.5397,-4.5397,-4.5397,-4.5397,-4.5397,-4.5397,-4.5397,-4.5397,-4.5397,-4.5397,-4.5397,-4.5397,-4.5397,-4.5397,-4.5397,-4.5397,-4.5397,-4.5397,-4.5397,-4.5397,-4.5397,-4.5397,-4.5397,-4.5641,-4.6062,-4.6631,-4.7115,0.0,0.0,0.0,0.0,0.0,0.0,0.0,0.0,0.0,0.0,0.0,0.0,0.0,0.0,0.0,0.0,0.0,0.0,0.0,0.0,0.0,0.0,0.0,0.0,0.0,0.0,0.0,0.0,-3.0986,-3.0986,-3.0986,-3.1061,-3.1272,-3.1666,-3.174,-3.2132,-3.2899,-3.3412,-3.3954,-3.4455,-3.5559,-3.6427,-3.6978,-3.6978,-3.6978,-3.707,-3.8263,-3.8782,-3.8892,-4.0021,-4.0489,-4.0428,-3.9844,-3.9613,-3.9551,-3.8967,-3.8723,-3.8646,-3.8646,-3.82,-3.7631,-3.7631,-3.8591,-3.9893,-4.0455,-4.2039,-4.3781,-4.4412,-4.4709,-4.4831,-4.4968,-4.5005,-4.5059,-4.5318,-4.5274,-4.5177,-4.522,-4.53,-4.5397,-4.5397,-4.5397,-4.5397,-4.5397,-4.5397,-4.5397,-4.5397,-4.5397,-4.5397,-4.5397,-4.5397,-4.5397,-4.5397,-4.5397,-4.5397,-4.5397,-4.5397,-4.5397,-4.5397,-4.5397,-4.5397,-4.5397,-4.5397,-4.5397,-4.5397,-4.5397,-4.5397,-4.5397,-4.5397,-4.545,-4.5537,-4.6465,-4.6931,0.0,0.0,0.0,0.0,0.0,0.0,0.0,0.0,0.0,0.0,0.0,0.0,0.0,0.0,0.0,0.0,0.0,0.0,0.0,0.0,0.0,0.0,0.0,0.0,0.0,0.0,0.0,0.0,-3.0986,-3.0986,-3.0986,-3.0986,-3.1161,-3.1593,-3.1593,-3.1946,-3.2704,-3.2966,-3.3465,-3.4217,-3.5489,-3.6244,-3.6525,-3.6838,-3.6978,-3.707,-3.8263,-3.8782,-3.8863,-3.961,-3.992,-3.9859,-3.9216,-3.8954,-3.8908,-3.8616,-3.8262,-3.7938,-3.7938,-3.7507,-3.6938,-3.6938,-3.8107,-3.9642,-4.031,-4.1898,-4.3647,-4.4395,-4.4626,-4.4737,-4.4858,-4.4923,-4.5032,-4.5157,-4.5264,-4.53,-4.522,-4.53,-4.5397,-4.5397,-4.5397,-4.5397,-4.5397,-4.5397,-4.5397,-4.5397,-4.5397,-4.5397,-4.5397,-4.5397,-4.5397,-4.5397,-4.5397,-4.5397,-4.5397,-4.5397,-4.5397,-4.5397,-4.5397,-4.5397,-4.5397,-4.5397,-4.5397,-4.5397,-4.5397,-4.5397,-4.5397,-4.5397,-4.5397,-4.5423,-4.6144,-4.6654,0.0,0.0,0.0,0.0,0.0,0.0,0.0,0.0,0.0,0.0,0.0,0.0,0.0,0.0,0.0,0.0,0.0,0.0,0.0,0.0,0.0,0.0,0.0,0.0,0.0,0.0,0.0,0.0,-3.0986,-3.0986,-3.0986,-3.0986,-3.1123,-3.1445,-3.1445,-3.1813,-3.2561,-3.2739,-3.3322,-3.4217,-3.5321,-3.5949,-3.6131,-3.6736,-3.6978,-3.7056,-3.8113,-3.8546,-3.8575,-3.9076,-3.9266,-3.92,-3.8523,-3.8262,-3.8231,-3.8061,-3.7677,-3.7246,-3.7246,-3.6907,-3.6522,-3.6692,-3.7888,-3.9424,-4.043,-4.1926,-4.3423,-4.4338,-4.4615,-4.4626,-4.4765,-4.4913,-4.5005,-4.5032,-4.522,-4.5371,-4.5274,-4.5344,-4.5397,-4.5397,-4.5397,-4.5397,-4.5397,-4.5397,-4.5397,-4.5397,-4.5397,-4.5397,-4.5397,-4.5397,-4.5397,-4.5397,-4.5397,-4.5397,-4.5397,-4.5397,-4.5397,-4.5397,-4.5397,-4.5397,-4.5397,-4.5397,-4.5397,-4.5397,-4.5397,-4.5397,-4.5397,-4.5397,-4.5397,-4.5423,-4.5955,-4.6387,0.0,0.0,0.0,0.0,0.0,0.0,0.0,0.0,0.0,0.0,0.0,0.0,0.0,0.0,0.0,0.0,0.0,0.0,0.0,0.0,0.0,0.0,0.0,0.0,0.0,0.0,0.0,0.0,-3.0986,-3.0986,-3.0986,-3.0986,-3.1024,-3.1024,-3.1024,-3.1384,-3.2128,-3.2874,-3.3585,-3.4217,-3.4899,-3.5541,-3.6131,-3.6736,-3.6978,-3.7017,-3.7658,-3.7914,-3.7904,-3.8412,-3.8603,-3.8492,-3.7815,-3.7554,-3.7477,-3.683,-3.6569,-3.6538,-3.6538,-3.6522,-3.6599,-3.723,-3.7955,-3.8927,-4.0872,-4.1952,-4.2831,-4.4207,-4.4615,-4.4626,-4.4765,-4.4913,-4.5032,-4.515,-4.53,-4.5397,-4.5397,-4.5397,-4.5397,-4.5397,-4.5397,-4.5397,-4.5397,-4.5397,-4.5397,-4.5397,-4.5397,-4.5397,-4.5397,-4.5397,-4.5397,-4.5397,-4.5397,-4.5397,-4.5397,-4.5397,-4.5397,-4.5397,-4.5397,-4.5397,-4.5397,-4.5397,-4.5397,-4.5397,-4.5397,-4.5397,-4.5397,-4.5397,-4.5397,-4.5423,-4.5955,-4.6211,0.0,0.0,0.0,0.0,0.0,0.0,0.0,0.0,0.0,0.0,0.0,0.0,0.0,0.0,0.0,0.0,0.0,0.0,0.0,0.0,0.0,0.0,0.0,0.0,0.0,0.0,0.0,0.0,0.0,-3.0986,-3.0986,-3.0986,-3.0986,-3.0986,-3.0986,-3.1235,-3.1776,-3.2525,-3.2899,-3.2868,-3.444,-3.519,-3.5165,-3.6452,-3.6978,-3.7017,-3.762,-3.7862,-3.783,-3.8341,-3.8264,-3.78,-3.7123,-3.6861,-3.683,-3.6584,-3.6492,-3.6492,-3.6492,-3.6492,-3.6599,-3.7277,-3.7954,-3.8877,-4.089,-4.1985,-4.28,-4.4196,-4.4615,-4.4598,-4.4654,-4.4776,-4.494,-4.5167,-4.53,-4.5397,-4.5397,-4.5397,-4.5397,-4.5397,-4.5397,-4.5397,-4.5397,-4.5397,-4.5397,-4.5397,-4.5397,-4.5397,-4.5397,-4.5397,-4.5397,-4.5397,-4.5397,-4.5397,-4.5397,-4.5397,-4.5397,-4.5397,-4.5397,-4.5397,-4.5397,-4.5397,-4.5397,-4.5397,-4.5397,-4.5397,-4.5397,-4.5397,-4.5397,-4.5397,-4.5589,-4.6038,-2.876,0.0,0.0,0.0,0.0,0.0,0.0,0.0,0.0,0.0,0.0,0.0,0.0,0.0,0.0,0.0,0.0,0.0,0.0,0.0,0.0,0.0,0.0,0.0,0.0,0.0,0.0,0.0,0.0,0.0,-3.0986,-3.0986,-3.0986,-3.0986,-3.1123,-3.1222,-3.127,-3.2078,-3.2259,-3.1823,-3.3629,-3.4548,-3.4657,-3.5938,-3.6679,-3.7056,-3.7848,-3.7916,-3.7476,-3.7994,-3.7807,-3.7123,-3.6661,-3.6492,-3.6492,-3.6492,-3.6492,-3.6492,-3.6492,-3.6492,-3.6645,-3.7538,-3.8138,-3.8924,-4.1162,-4.2148,-4.28,-4.4196,-4.4615,-4.4615,-4.4615,-4.4709,-4.4886,-4.514,-4.5274,-4.5344,-4.5397,-4.5397,-4.5397,-4.5397,-4.5397,-4.5397,-4.5397,-4.5397,-4.5397,-4.5397,-4.5397,-4.5397,-4.5397,-4.5397,-4.5397,-4.5397,-4.5397,-4.5397,-4.5397,-4.5397,-4.5397,-4.5397,-4.5397,-4.5397,-4.5397,-4.5397,-4.5397,-4.5397,-4.5397,-4.5397,-4.5397,-4.5397,-4.5397,-4.5397,-4.5397,-4.5938,0.0,0.0,0.0,0.0,0.0,0.0,0.0,0.0,0.0,0.0,0.0,0.0,0.0,0.0,0.0,0.0,0.0,0.0,0.0,0.0,0.0,0.0,0.0,0.0,0.0,0.0,0.0,0.0,-3.1431,-3.0986,-3.0986,-3.0986,-3.0986,-3.0986,-3.1384,-3.1283,-3.0607,-3.1589,-3.1773,-3.1217,-3.2479,-3.3625,-3.4606,-3.5214,-3.6056,-3.707,-3.8263,-3.8009,-3.6787,-3.7375,-3.719,-3.6492,-3.6492,-3.6492,-3.6492,-3.6492,-3.6492,-3.6492,-3.6492,-3.6492,-3.6707,-3.8046,-3.8492,-3.9001,-4.1629,-4.2473,-4.2769,-4.4179,-4.457,-4.4615,-4.4615,-4.4709,-4.4858,-4.514,-4.5177,-4.5247,-4.5371,-4.5397,-4.5397,-4.5397,-4.5397,-4.5397,-4.5397,-4.5397,-4.5397,-4.5397,-4.5397,-4.5397,-4.5397,-4.5397,-4.5397,-4.5397,-4.5397,-4.5397,-4.5397,-4.5397,-4.5397,-4.5397,-4.5397,-4.5397,-4.5397,-4.5397,-4.5397,-4.5397,-4.5397,-4.5397,-4.5397,-4.5397,-4.5397,-4.5397,-4.5423,-4.5945,-2.7325,0.0,0.0,0.0,0.0,0.0,0.0,0.0,0.0,0.0,0.0,0.0,0.0,0.0,0.0,0.0,0.0,0.0,0.0,0.0,0.0,0.0,0.0,0.0,0.0,0.0,0.0,0.0,-3.1431,-3.0986,-3.0986,-3.0986,-3.0986,-3.0986,-3.1099,-3.1086,-3.0885,-3.1445,-3.1519,-3.1073,-3.2431,-3.3489,-3.4189,-3.5099,-3.6056,-3.7056,-3.781,-3.7908,-3.7535,-3.8043,-3.7579,-3.6492,-3.6492,-3.6492,-3.6492,-3.6492,-3.6492,-3.6492,-3.6492,-3.6492,-3.663,-3.7507,-3.8108,-3.8826,-4.053,-4.174,-4.2676,-4.3558,-4.4179,-4.4615,-4.4615,-4.4709,-4.4831,-4.4886,-4.5059,-4.5203,-4.5247,-4.5327,-4.5397,-4.5397,-4.5397,-4.5397,-4.5397,-4.5397,-4.5397,-4.5397,-4.5397,-4.5397,-4.5397,-4.5397,-4.5397,-4.5397,-4.5397,-4.5397,-4.5397,-4.5397,-4.5397,-4.5397,-4.5397,-4.5397,-4.5397,-4.5397,-4.5397,-4.5397,-4.5397,-4.5397,-4.5397,-4.5397,-4.5397,-4.5397,-4.5803,-4.6315,0.0,0.0,0.0,0.0,0.0,0.0,-3.1755,-3.3354,-3.4604,0.0,0.0,0.0,0.0,0.0,0.0,0.0,0.0,0.0,0.0,0.0,0.0,0.0,0.0,0.0,0.0,-3.3164,-3.2218,-3.2541,-3.1579,-3.0986,-3.0986,-3.0986,-3.0986,-3.0986,-3.0986,-3.0874,-3.0596,-3.1073,-3.1073,-3.0596,-3.1691,-3.2742,-3.3754,-3.4324,-3.5379,-3.6758,-3.7376,-3.7684,-3.7801,-3.8016,-3.7634,-3.6892,-3.6599,-3.6492,-3.6492,-3.6492,-3.6492,-3.6492,-3.6492,-3.6492,-3.6599,-3.7277,-3.7954,-3.8747,-4.01,-4.1438,-4.2645,-4.3317,-4.4047,-4.4615,-4.4615,-4.4654,-4.4737,-4.4793,-4.4951,-4.514,-4.5177,-4.53,-4.5397,-4.5397,-4.5397,-4.5397,-4.5397,-4.5397,-4.5397,-4.5397,-4.5397,-4.5397,-4.5397,-4.5397,-4.5397,-4.5397,-4.5397,-4.5397,-4.5397,-4.5397,-4.5397,-4.5397,-4.5397,-4.5397,-4.5397,-4.5397,-4.5397,-4.5397,-4.5397,-4.5397,-4.5397,-4.5397,-4.5397,-4.5423,-4.5955,-4.6459,0.0,0.0,0.0,0.0,-2.8451,0.0,-3.3325,-3.355,-3.3818,0.0,0.0,0.0,0.0,0.0,0.0,0.0,0.0,0.0,0.0,0.0,0.0,0.0,0.0,0.0,-3.518,-3.3262,-3.2268,-3.2911,-3.1763,-3.0986,-3.0986,-3.0986,-3.0986,-3.0986,-3.0986,-3.071,-3.0114,-3.071,-3.071,-3.0114,-3.071,-3.1803,-3.3301,-3.3301,-3.4427,-3.6351,-3.6819,-3.7324,-3.7796,-3.7625,-3.7546,-3.743,-3.6753,-3.6492,-3.6492,-3.6492,-3.6492,-3.6492,-3.6492,-3.6492,-3.6599,-3.72,-3.7892,-3.8714,-3.9909,-4.131,-4.2676,-4.3423,-4.4105,-4.4615,-4.4615,-4.4615,-4.4626,-4.4765,-4.4886,-4.5005,-4.514,-4.5274,-4.5371,-4.5371,-4.5397,-4.5397,-4.5397,-4.5397,-4.5397,-4.5397,-4.5397,-4.5397,-4.5397,-4.5397,-4.5397,-4.5397,-4.5397,-4.5397,-4.5397,-4.5397,-4.5397,-4.5397,-4.5397,-4.5397,-4.5397,-4.5397,-4.5397,-4.5397,-4.5397,-4.5397,-4.5397,-4.5397,-4.5397,-4.5423,-4.5955,-4.6459,0.0,0.0,0.0,0.0,-2.8039,0.0,-3.0051,-3.1949,-3.3439,0.0,0.0,0.0,0.0,0.0,0.0,0.0,0.0,0.0,0.0,0.0,0.0,0.0,0.0,0.0,-3.3644,-3.2173,-3.1259,-3.1408,-3.1161,-3.0986,-3.0986,-3.0986,-3.0986,-3.0986,-3.0986,-3.0949,-3.0798,-3.0936,-3.0936,-3.0823,-3.0949,-3.1803,-3.3301,-3.3301,-3.4217,-3.5844,-3.5937,-3.6671,-3.7763,-3.7354,-3.7297,-3.743,-3.6753,-3.6492,-3.6492,-3.6492,-3.6492,-3.6492,-3.6492,-3.6492,-3.6507,-3.6645,-3.7507,-3.8571,-3.881,-4.0594,-4.2769,-4.4018,-4.4468,-4.4615,-4.4615,-4.4615,-4.4615,-4.4626,-4.4737,-4.4858,-4.4886,-4.5059,-4.5247,-4.5247,-4.5344,-4.5397,-4.5397,-4.5397,-4.5397,-4.5397,-4.5397,-4.5397,-4.5397,-4.5397,-4.5397,-4.5397,-4.5397,-4.5397,-4.5397,-4.5397,-4.5397,-4.5397,-4.5397,-4.5397,-4.5397,-4.5397,-4.5397,-4.5397,-4.5397,-4.5397,-4.5397,-4.5397,-4.5397,-4.5423,-4.5955,-4.6459,0.0,0.0,0.0,-2.7961,-2.8267,0.0,0.0,-3.2255,-3.3561,0.0,0.0,0.0,0.0,0.0,0.0,0.0,0.0,0.0,0.0,0.0,0.0,0.0,0.0,0.0,-3.3768,-3.2412,-3.1394,-3.1024,-3.0986,-3.0986,-3.0986,-3.0986,-3.0986,-3.0986,-3.0672,-3.0508,-3.0508,-3.0508,-3.0508,-3.052,-3.0823,-3.1689,-3.2988,-3.2988,-3.3874,-3.5399,-3.5399,-3.6308,-3.7748,-3.7174,-3.7331,-3.7793,-3.7229,-3.6784,-3.6492,-3.6492,-3.6492,-3.6492,-3.6492,-3.6492,-3.6492,-3.6492,-3.7415,-3.8508,-3.8508,-4.0355,-4.28,-4.4196,-4.4615,-4.4615,-4.4615,-4.4615,-4.4615,-4.4615,-4.4709,-4.4803,-4.4803,-4.4951,-4.5113,-4.5194,-4.5247,-4.53,-4.5397,-4.5397,-4.5397,-4.5397,-4.5397,-4.5397,-4.5397,-4.5397,-4.5397,-4.5397,-4.5397,-4.5397,-4.5397,-4.5397,-4.5397,-4.5397,-4.5397,-4.5397,-4.5397,-4.5397,-4.5397,-4.5397,-4.5397,-4.5397,-4.5397,-4.5397,-4.5537,-4.5803,-4.6315,-4.6817,0.0,0.0,0.0,0.0,0.0,-2.9494,0.0,0.0,0.0,0.0,0.0,0.0,0.0,0.0,0.0,0.0,0.0,0.0,0.0,0.0,0.0,0.0,0.0,0.0,-3.397,-3.2534,-3.1458,-3.1035,-3.0852,-3.0826,-3.1011,-3.0986,-3.0986,-3.0986,-3.047,-3.019,-3.019,-3.019,-3.019,-3.019,-3.0864,-3.1692,-3.2685,-3.2816,-3.3632,-3.4962,-3.4962,-3.599,-3.7596,-3.7132,-3.7502,-3.8302,-3.7671,-3.706,-3.6492,-3.6492,-3.6492,-3.6492,-3.6492,-3.6492,-3.6492,-3.6492,-3.7415,-3.8587,-3.9113,-4.0785,-4.28,-4.4196,-4.4615,-4.4615,-4.4615,-4.4615,-4.4615,-4.4615,-4.4682,-4.4748,-4.4748,-4.4858,-4.4978,-4.5113,-4.5123,-4.522,-4.5371,-4.5397,-4.5397,-4.5397,-4.5397,-4.5397,-4.5397,-4.5397,-4.5397,-4.5397,-4.5397,-4.5397,-4.5397,-4.5397,-4.5397,-4.5397,-4.5397,-4.5397,-4.5397,-4.5397,-4.5397,-4.5397,-4.5397,-4.545,-4.5537,-4.5537,-4.5778,-4.6211,-4.6678,-4.7138,0.0,0.0,0.0,0.0,-2.9252,-3.0037,-3.1365,0.0,-3.2954,-3.4054,0.0,0.0,0.0,0.0,0.0,0.0,0.0,0.0,0.0,0.0,0.0,0.0,0.0,0.0,0.0,-3.1047,-3.0272,-3.0945,-3.0286,-3.019,-3.0972,-3.0986,-3.0986,-3.0986,-3.0949,-3.0911,-3.0911,-3.0911,-3.0911,-3.0874,-3.1458,-3.2071,-3.2712,-3.3247,-3.3863,-3.4481,-3.4481,-3.5454,-3.7035,-3.7324,-3.7996,-3.88,-3.7691,-3.6934,-3.6492,-3.6492,-3.6492,-3.6492,-3.6492,-3.6492,-3.6492,-3.6492,-3.7415,-3.8938,-4.131,-4.2266,-4.28,-4.4196,-4.4615,-4.4615,-4.4615,-4.4615,-4.4615,-4.4615,-4.4598,-4.4626,-4.4626,-4.4737,-4.4831,-4.4831,-4.4923,-4.5086,-4.5344,-4.5397,-4.5397,-4.5397,-4.5397,-4.5397,-4.5397,-4.5397,-4.5397,-4.5397,-4.5397,-4.5397,-4.5397,-4.5397,-4.5397,-4.5397,-4.5397,-4.5397,-4.5397,-4.5397,-4.5397,-4.5397,-4.5397,-4.5641,-4.6112,-4.6112,-4.6137,-4.6211,-4.6678,-4.7138,0.0,0.0,0.0,0.0,0.0,0.0,-3.2372,0.0,-3.3233,0.0,0.0,0.0,0.0,0.0,0.0,0.0,-3.2483,0.0,0.0,0.0,0.0,0.0,0.0,0.0,0.0,0.0,0.0,0.0,-3.064,-3.0624,-3.096,-3.0986,-3.0986,-3.0986,-3.0621,-3.0432,-3.0432,-3.0753,-3.0958,-3.0958,-3.1889,-3.2646,-3.3221,-3.347,-3.3888,-3.4397,-3.4397,-3.5101,-3.6281,-3.7011,-3.7678,-3.8247,-3.8311,-3.8067,-3.7661,-3.7661,-3.7415,-3.7138,-3.7523,-3.74,-3.7215,-3.8,-3.8631,-3.9429,-4.1339,-4.2205,-4.2707,-4.3693,-4.4281,-4.4615,-4.4615,-4.4615,-4.4615,-4.4615,-4.4615,-4.4615,-4.4615,-4.4654,-4.4709,-4.4776,-4.4858,-4.4968,-4.5247,-4.5274,-4.53,-4.5397,-4.5397,-4.5397,-4.5397,-4.5397,-4.5397,-4.5397,-4.5397,-4.5397,-4.5397,-4.5397,-4.5397,-4.5397,-4.5397,-4.5397,-4.5397,-4.5397,-4.5397,-4.5397,-4.5397,-4.5667,-4.6211,-4.6211,-4.6465,-4.7026,-4.7226,-4.7548,-2.9617,0.0,0.0,0.0,0.0,0.0,0.0,0.0,0.0,0.0,0.0,0.0,0.0,0.0,0.0,0.0,0.0,-3.2459,0.0,0.0,0.0,0.0,0.0,0.0,0.0,0.0,0.0,-3.0823,-3.0719,-3.0758,-3.1011,-3.0986,-3.0986,-3.0986,-3.0662,-3.0497,-3.0497,-3.1098,-3.1367,-3.1419,-3.2448,-3.3169,-3.36,-3.3744,-3.4031,-3.4397,-3.4397,-3.4868,-3.579,-3.6777,-3.7503,-3.8066,-3.9087,-3.9324,-3.9016,-3.8646,-3.82,-3.7846,-3.8338,-3.8185,-3.7969,-3.9105,-3.949,-3.9766,-4.1089,-4.1965,-4.2645,-4.3317,-4.4047,-4.4615,-4.4615,-4.4615,-4.4615,-4.4615,-4.4615,-4.4615,-4.4615,-4.4615,-4.4626,-4.4737,-4.4765,-4.4831,-4.5059,-4.5167,-4.5247,-4.5371,-4.5371,-4.5371,-4.5397,-4.5371,-4.5371,-4.5397,-4.5397,-4.5397,-4.5397,-4.5397,-4.5397,-4.5397,-4.5397,-4.5397,-4.5397,-4.5397,-4.5397,-4.5397,-4.5537,-4.5862,-4.6387,-4.6513,-4.7004,-4.7795,-4.7653,-4.7856,0.0,0.0,0.0,-3.1575,0.0,0.0,0.0,0.0,-3.4104,0.0,0.0,0.0,0.0,0.0,0.0,-3.2734,0.0,0.0,0.0,0.0,0.0,0.0,0.0,0.0,0.0,0.0,-2.902,-3.0309,-2.9998,-3.0098,-3.0959,-3.0986,-3.0986,-3.0986,-3.1484,-3.1733,-3.1733,-3.2332,-3.2659,-3.2672,-3.3273,-3.3574,-3.3613,-3.4136,-3.4384,-3.4397,-3.4397,-3.4868,-3.579,-3.6777,-3.7762,-3.8767,-3.9849,-4.032,-4.0274,-3.8985,-3.8492,-3.8477,-3.8492,-3.8492,-3.86,-3.9293,-3.949,-3.9766,-4.1089,-4.1965,-4.2645,-4.3317,-4.4047,-4.4615,-4.4615,-4.4615,-4.4615,-4.4615,-4.4615,-4.4615,-4.4615,-4.4615,-4.4615,-4.4615,-4.4615,-4.4654,-4.4776,-4.5032,-4.5247,-4.5371,-4.5274,-4.5247,-4.5371,-4.5274,-4.5247,-4.5397,-4.5397,-4.5397,-4.5397,-4.5397,-4.5397,-4.5397,-4.5397,-4.5397,-4.5397,-4.5397,-4.5397,-4.5397,-4.5905,-4.6411,-4.6886,-4.7335,-4.7795,-4.8267,-4.7816,-4.7856,0.0,0.0,-3.3777,-3.3555,0.0,0.0,0.0,0.0,0.0,0.0,0.0,0.0,-3.394,0.0,0.0,-3.2636,0.0,0.0,0.0,0.0,0.0,0.0,0.0,0.0,0.0,0.0,0.0,-2.9901,-3.0339,-3.0679,-3.096,-3.0986,-3.1156,-3.1497,-3.1706,-3.198,-3.2398,-3.2986,-3.3287,-3.33,-3.3862,-3.4123,-3.4136,-3.4319,-3.4397,-3.4397,-3.4397,-3.4551,-3.495,-3.6543,-3.7472,-3.8092,-3.9651,-4.0366,-4.0443,-3.9982,-3.9521,-3.9136,-3.9136,-3.9428,-3.9844,-4.0074,-4.0151,-4.0266,-4.0706,-4.1624,-4.2552,-4.2769,-4.3693,-4.4615,-4.4615,-4.4615,-4.4615,-4.4615,-4.4615,-4.4615,-4.4615,-4.4615,-4.4615,-4.4615,-4.4615,-4.4654,-4.4793,-4.4886,-4.5005,-4.5247,-4.5247,-4.522,-4.5274,-4.5167,-4.5113,-4.5247,-4.5274,-4.53,-4.5397,-4.5397,-4.5397,-4.5397,-4.5397,-4.5397,-4.5397,-4.5397,-4.5563,-4.593,-4.6112,-4.6584,-4.7356,-4.7527,-4.7836,-4.8287,-4.8132,-4.8152,-3.2959,-3.4175,0.0,-3.4978,-3.5697,0.0,-3.5442,0.0,-3.5096,0.0,0.0,0.0,0.0,0.0,0.0,0.0,0.0,0.0,0.0,-2.9012,0.0,0.0,0.0,0.0,0.0,0.0,-2.9293,-2.9901,-3.0474,-3.0839,0.0,0.0,-3.1457,-3.1797,-3.2215,-3.2646,-3.3012,-3.3587,-3.3875,-3.3875,-3.4228,-3.4397,-3.4397,-3.4397,-3.4397,-3.4397,-3.4397,-3.4397,-3.4551,-3.6346,-3.7242,-3.7663,-3.9472,-4.0331,-4.0489,-4.0489,-4.0213,-3.9844,-3.9844,-4.0136,-4.0489,-4.0489,-4.0489,-4.0489,-4.0489,-4.1426,-4.252,-4.252,-4.332,-4.4281,-4.4542,-4.4412,-4.4265,-4.4542,-4.4615,-4.4615,-4.4615,-4.4615,-4.4615,-4.4615,-4.4615,-4.4643,-4.4709,-4.4776,-4.4886,-4.515,-4.515,-4.515,-4.5274,-4.5113,-4.5059,-4.5247,-4.5247,-4.5247,-4.5397,-4.5397,-4.5397,-4.5397,-4.5397,-4.5397,-4.5397,-4.5589,-4.5689,-4.574,-4.6371,-4.6861,-4.7174,-4.7629,-4.7995,-4.8306,-4.8306,-4.8306]}]]